Provisional Data: Sterling Run near Sterling Run, PA


Please select a monitoring station.
Please select start date.
Please select start date.

Toggle Unit: C/F Toggle Unit: C/F
Sample Time Temperature (C) Temperature (F) Specific Conductivity (mS/cm) pH   Turbidity (NTU+) DO (mg/L)
2/4/2021 12:00:00 AM 0.7 33.26 0.071 6.5 1.37 14.04
2/4/2021 12:15:00 AM 0.7 33.26 0.071 6.5 1.39 14.05
2/4/2021 12:30:00 AM 0.7 33.26 0.071 6.5 1.43 14.05
2/4/2021 12:45:00 AM 0.7 33.26 0.071 6.5 1.51 14.06
2/4/2021 1:00:00 AM 0.7 33.26 0.071 6.5 1.52 14.06
2/4/2021 1:15:00 AM 0.7 33.26 0.071 6.5 1.58 14.06
2/4/2021 1:30:00 AM 0.7 33.26 0.071 6.5 1.64 14.06
2/4/2021 1:45:00 AM 0.7 33.26 0.071 6.5 1.69 14.06
2/4/2021 2:00:00 AM 0.7 33.26 0.071 6.5 1.77 14.06
2/4/2021 2:15:00 AM 0.7 33.26 0.071 6.5 1.79 14.06
2/4/2021 2:30:00 AM 0.7 33.26 0.071 6.49 1.82 14.07
2/4/2021 2:45:00 AM 0.7 33.26 0.071 6.5 1.88 14.07
2/4/2021 3:00:00 AM 0.7 33.26 0.071 6.49 1.94 14.06
2/4/2021 3:15:00 AM 0.7 33.26 0.071 6.49 1.97 14.07
2/4/2021 3:30:00 AM 0.7 33.26 0.071 6.51 1.96 14.07
2/4/2021 3:45:00 AM 0.71 33.278 0.071 6.51 2.03 14.07
2/4/2021 4:00:00 AM 0.7 33.26 0.071 6.51 2.1 14.07
2/4/2021 4:15:00 AM 0.7 33.26 0.071 6.5 2.1 14.07
2/4/2021 4:30:00 AM 0.7 33.26 0.071 6.5 2.15 14.08
2/4/2021 4:45:00 AM 0.71 33.278 0.071 6.51 2.18 14.07
2/4/2021 5:00:00 AM 0.7 33.26 0.072 6.5 2.19 14.07
2/4/2021 5:15:00 AM 0.71 33.278 0.072 6.5 2.23 14.08
2/4/2021 5:30:00 AM 0.71 33.278 0.072 6.5 2.26 14.07
2/4/2021 5:45:00 AM 0.7 33.26 0.072 6.5 2.27 14.08
2/4/2021 6:00:00 AM 0.7 33.26 0.072 6.5 2.23 14.08
2/4/2021 6:15:00 AM 0.71 33.278 0.072 6.5 2.27 14.08
2/4/2021 6:30:00 AM 0.71 33.278 0.072 6.5 2.23 14.08
2/4/2021 6:45:00 AM 0.7 33.26 0.072 6.5 2.2 14.08
2/4/2021 7:00:00 AM 0.7 33.26 0.072 6.47 2.14 14.09
2/4/2021 7:15:00 AM 0.71 33.278 0.072 6.5 2.08 14.08
2/4/2021 7:30:00 AM 0.7 33.26 0.072 6.47 1.1 14.09
2/4/2021 7:45:00 AM 0.71 33.278 0.072 6.51 1.1 14.1
2/4/2021 8:00:00 AM 0.71 33.278 0.072 6.51 1.11 14.1
2/4/2021 8:15:00 AM 0.71 33.278 0.072 6.48 1.11 14.11
2/4/2021 8:30:00 AM 0.72 33.296 0.073 6.52 1.1 14.11
2/4/2021 8:45:00 AM 0.72 33.296 0.073 6.53 1.09 14.13
2/4/2021 9:00:00 AM 0.73 33.314 0.073 6.53 1.08 14.14
2/4/2021 9:15:00 AM 0.73 33.314 0.073 6.53 1.1 14.15
2/4/2021 9:30:00 AM 0.74 33.332 0.073 6.53 1.1 14.14
2/4/2021 9:45:00 AM 0.73 33.314 0.073 6.51 1.1 14.13
2/4/2021 10:00:00 AM 0.74 33.332 0.072 6.55 1.1 14.12
2/4/2021 10:15:00 AM 0.74 33.332 0.072 6.53 1.1 14.13
2/4/2021 10:30:00 AM 0.75 33.35 0.072 6.53 1.08 14.12
2/4/2021 10:45:00 AM 0.75 33.35 0.072 6.52 1.13 14.12
2/4/2021 11:00:00 AM 0.77 33.386 0.072 6.51 1.12 14.11
2/4/2021 11:15:00 AM 0.75 33.35 0.071 6.5 1.14 14.13
2/4/2021 11:30:00 AM 0.76 33.368 0.071 6.51 1.14 14.13
2/4/2021 11:45:00 AM 0.76 33.368 0.071 6.47 1.29 14.13
2/4/2021 12:00:00 PM 0.77 33.386 0.071 6.47 1.57 14.13
2/4/2021 12:15:00 PM 0.76 33.368 0.07 6.42 1.22 14.12
2/4/2021 12:30:00 PM 0.77 33.386 0.07 6.48 1.23 14.11
2/4/2021 12:45:00 PM 0.77 33.386 0.069 6.5 1.3 14.11
2/4/2021 1:00:00 PM 0.77 33.386 0.069 6.48 1.27 14.1
2/4/2021 1:15:00 PM 0.76 33.368 0.069 6.51 1.32 14.09
2/4/2021 1:30:00 PM 0.76 33.368 0.07 6.51 1.6 14.09
2/4/2021 1:45:00 PM 0.76 33.368 0.07 6.53 1.42 14.09
2/4/2021 2:00:00 PM 0.75 33.35 0.07 6.52 1.43 14.08
2/4/2021 2:15:00 PM 0.75 33.35 0.07 6.52 1.39 14.09
2/4/2021 2:30:00 PM 0.74 33.332 0.07 6.52 1.47 14.08
2/4/2021 2:45:00 PM 0.75 33.35 0.071 6.52 1.48 14.08
2/4/2021 3:00:00 PM 0.75 33.35 0.071 6.51 1.5 14.08
2/4/2021 3:15:00 PM 0.73 33.314 0.072 6.52 1.54 14.07
2/4/2021 3:30:00 PM 0.72 33.296 0.072 6.53 1.55 14.06
2/4/2021 3:45:00 PM 0.71 33.278 0.072 6.48 1.5 14.06
2/4/2021 4:00:00 PM 0.72 33.296 0.073 6.51 1.53 14.05
2/4/2021 4:15:00 PM 0.72 33.296 0.073 6.52 1.44 14.04
2/4/2021 4:30:00 PM 0.72 33.296 0.074 6.52 1.44 14.04
2/4/2021 4:45:00 PM 0.71 33.278 0.074 6.46 1.51 14.04
2/4/2021 5:00:00 PM 0.71 33.278 0.074 6.52 1.47 14.02
2/4/2021 5:15:00 PM 0.71 33.278 0.074 6.53 1.45 14.02
2/4/2021 5:30:00 PM 0.71 33.278 0.074 6.52 1.47 14.01
2/4/2021 5:45:00 PM 0.7 33.26 0.073 6.52 1.49 14.01
2/4/2021 6:00:00 PM 0.71 33.278 0.073 6.52 1.44 14.01
2/4/2021 6:15:00 PM 0.7 33.26 0.073 6.51 1.46 14
2/4/2021 6:30:00 PM 0.71 33.278 0.073 6.51 1.46 13.99
2/4/2021 6:45:00 PM 0.71 33.278 0.073 6.53 1.47 14
2/4/2021 7:00:00 PM 0.7 33.26 0.073 6.52 1.44 13.99
2/4/2021 7:15:00 PM 0.7 33.26 0.073 6.5 1.39 13.99
2/4/2021 7:30:00 PM 0.71 33.278 0.073 6.52 1.4 13.99
2/4/2021 7:45:00 PM 0.71 33.278 0.073 6.53 1.39 13.98
2/4/2021 8:00:00 PM 0.71 33.278 0.073 6.52 1.28 13.99
2/4/2021 8:15:00 PM 0.71 33.278 0.073 6.52 1.31 13.98
2/4/2021 8:30:00 PM 0.71 33.278 0.073 6.52 1.27 13.98
2/4/2021 8:45:00 PM 0.71 33.278 0.073 6.51 1.31 13.97
2/4/2021 9:00:00 PM 0.7 33.26 0.073 6.49 1.2 13.98
2/4/2021 9:15:00 PM 0.71 33.278 0.073 6.53 1.21 13.96
2/4/2021 9:30:00 PM 0.71 33.278 0.073 6.52 1.21 13.96
2/4/2021 9:45:00 PM 0.71 33.278 0.073 6.52 1.14 13.95
2/4/2021 10:00:00 PM 0.71 33.278 0.073 6.52 1.18 13.95
2/4/2021 10:15:00 PM 0.71 33.278 0.073 6.53 1.17 13.94
2/4/2021 10:30:00 PM 0.7 33.26 0.073 6.48 1.18 13.95
2/4/2021 10:45:00 PM 0.71 33.278 0.073 6.52 1.16 13.93
2/4/2021 11:00:00 PM 0.71 33.278 0.073 6.52 1.18 13.93
2/4/2021 11:15:00 PM 0.71 33.278 0.073 6.53 1.15 13.92
2/4/2021 11:30:00 PM 0.71 33.278 0.073 6.51 1.14 13.91
2/4/2021 11:45:00 PM 0.71 33.278 0.073 6.53 1.17 13.91
2/5/2021 12:00:00 AM 0.71 33.278 0.072 6.52 1.12 13.91
2/5/2021 12:15:00 AM 0.71 33.278 0.072 6.52 1.19 13.9
2/5/2021 12:30:00 AM 0.71 33.278 0.072 6.53 1.14 13.91
2/5/2021 12:45:00 AM 0.71 33.278 0.072 6.53 1.12 13.91
2/5/2021 1:00:00 AM 0.7 33.26 0.072 6.49 1.18 13.91
2/5/2021 1:15:00 AM 0.72 33.296 0.072 6.53 1.12 13.89
2/5/2021 1:30:00 AM 0.71 33.278 0.072 6.52 1.14 13.89
2/5/2021 1:45:00 AM 0.71 33.278 0.072 6.52 1.16 13.88
2/5/2021 2:00:00 AM 0.71 33.278 0.072 6.54 1.16 13.87
2/5/2021 2:15:00 AM 0.72 33.296 0.072 6.53 1.15 13.87
2/5/2021 2:30:00 AM 0.71 33.278 0.072 6.52 1.14 13.86
2/5/2021 2:45:00 AM 0.72 33.296 0.072 6.54 1.19 13.85
2/5/2021 3:00:00 AM 0.71 33.278 0.072 6.5 1.17 13.85
2/5/2021 3:15:00 AM 0.72 33.296 0.072 6.54 1.12 13.83
2/5/2021 3:30:00 AM 0.72 33.296 0.072 6.54 1.19 13.83
2/5/2021 3:45:00 AM 0.72 33.296 0.072 6.53 1.17 13.82
2/5/2021 4:00:00 AM 0.72 33.296 0.072 6.53 1.13 13.81
2/5/2021 4:15:00 AM 0.72 33.296 0.072 6.52 1.13 13.81
2/5/2021 4:30:00 AM 0.73 33.314 0.072 6.52 1.15 13.79
2/5/2021 4:45:00 AM 0.73 33.314 0.072 6.54 1.2 13.78
2/5/2021 5:00:00 AM 0.73 33.314 0.072 6.54 1.2 13.78
2/5/2021 5:15:00 AM 0.72 33.296 0.072 6.5 1.2 13.77
2/5/2021 5:30:00 AM 0.73 33.314 0.072 6.55 1.21 13.77
2/5/2021 5:45:00 AM 0.73 33.314 0.072 6.55 1.21 13.75
2/5/2021 6:00:00 AM 0.73 33.314 0.072 6.55 1.14 13.75
2/5/2021 6:15:00 AM 0.73 33.314 0.072 6.54 1.15 13.74
2/5/2021 6:30:00 AM 0.73 33.314 0.072 6.55 1.11 13.74
2/5/2021 6:45:00 AM 0.73 33.314 0.072 6.51 1.17 13.73
2/5/2021 7:00:00 AM 0.73 33.314 0.072 6.55 1.17 13.72
2/5/2021 7:15:00 AM 0.74 33.332 0.072 6.53 1.17 13.72
2/5/2021 7:30:00 AM 0.75 33.35 0.072 6.54 1.16 13.72
2/5/2021 7:45:00 AM 0.76 33.368 0.072 6.54 1.21 13.73
2/5/2021 8:00:00 AM 0.78 33.404 0.072 6.56 1.16 13.74
2/5/2021 8:15:00 AM 0.78 33.404 0.072 6.51 1.15 13.75
2/5/2021 8:30:00 AM 0.8 33.44 0.072 6.54 1.14 13.76
2/5/2021 8:45:00 AM 0.82 33.476 0.072 6.54 1.15 13.76
2/5/2021 9:00:00 AM 0.85 33.53 0.072 6.55 1.24 13.75
2/5/2021 9:15:00 AM 0.86 33.548 0.072 6.55 1.15 13.76
2/5/2021 9:30:00 AM 0.91 33.638 0.072 6.54 1.14 13.75
2/5/2021 9:45:00 AM 0.92 33.656 0.072 6.52 1.1 13.76
2/5/2021 10:00:00 AM 0.95 33.71 0.072 6.55 1.13 13.75
2/5/2021 10:15:00 AM 0.98 33.764 0.072 6.55 1.13 13.75
2/5/2021 10:30:00 AM 1.01 33.818 0.072 6.5 1.12 13.74
2/5/2021 10:45:00 AM 1.07 33.926 0.072 6.53 1.09 13.75
2/5/2021 11:00:00 AM 1.1 33.98 0.072 6.55 1.14 13.75
2/5/2021 11:15:00 AM 1.13 34.034 0.072 6.52 1.11 13.75
2/5/2021 11:30:00 AM 1.18 34.124 0.072 6.55 1.13 13.74
2/5/2021 11:45:00 AM 1.22 34.196 0.072 6.55 1.16 13.72
2/5/2021 12:00:00 PM 1.28 34.304 0.072 6.55 1.08 13.71
2/5/2021 12:15:00 PM 1.28 34.304 0.072 6.55 1.13 13.68
2/5/2021 12:30:00 PM 1.34 34.412 0.072 6.56 1.08 13.68
2/5/2021 12:45:00 PM 1.37 34.466 0.072 6.51 1.13 13.67
2/5/2021 1:00:00 PM 1.42 34.556 0.072 6.56 1.13 13.65
2/5/2021 1:15:00 PM 1.38 34.484 0.072 6.55 1.1 13.64
2/5/2021 1:30:00 PM 1.42 34.556 0.072 6.56 1.19 13.64
2/5/2021 1:45:00 PM 1.46 34.628 0.072 6.55 1.18 13.65
2/5/2021 2:00:00 PM 1.49 34.682 0.072 6.55 1.16 13.64
2/5/2021 2:15:00 PM 1.54 34.772 0.072 6.56 1.1 13.64
2/5/2021 2:30:00 PM 1.51 34.718 0.072 6.55 1.08 13.63
2/5/2021 2:45:00 PM 1.54 34.772 0.072 6.56 1.1 13.64
2/5/2021 3:00:00 PM 1.53 34.754 0.072 6.52 1.13 13.65
2/5/2021 3:15:00 PM 1.55 34.79 0.072 6.56 1.11 13.65
2/5/2021 3:30:00 PM 1.51 34.718 0.072 6.56 1.12 13.64
2/5/2021 3:45:00 PM 1.53 34.754 0.072 6.55 1.14 13.64
2/5/2021 4:00:00 PM 1.54 34.772 0.072 6.56 1.12 13.65
2/5/2021 4:15:00 PM 1.52 34.736 0.072 6.53 1.09 13.64
2/5/2021 4:30:00 PM 1.53 34.754 0.072 6.56 1.14 13.64
2/5/2021 4:45:00 PM 1.49 34.682 0.072 6.51 1.11 13.64
2/5/2021 5:00:00 PM 1.45 34.61 0.072 6.56 1.15 13.63
2/5/2021 5:15:00 PM 1.41 34.538 0.072 6.55 1.18 13.63
2/5/2021 5:30:00 PM 1.37 34.466 0.072 6.51 1.17 13.63
2/5/2021 5:45:00 PM 1.34 34.412 0.072 6.54 1.18 13.63
2/5/2021 6:00:00 PM 1.35 34.43 0.072 6.54 1.17 13.63
2/5/2021 6:15:00 PM 1.29 34.322 0.072 6.48 1.13 13.65
2/5/2021 6:30:00 PM 1.28 34.304 0.072 6.54 1.15 13.65
2/5/2021 6:45:00 PM 1.22 34.196 0.072 6.5 1.1 13.68
2/5/2021 7:00:00 PM 1.2 34.16 0.072 6.53 1.15 13.7
2/5/2021 7:15:00 PM 1.17 34.106 0.072 6.53 1.15 13.72
2/5/2021 7:30:00 PM 1.12 34.016 0.072 6.49 1.13 13.73
2/5/2021 7:45:00 PM 1.11 33.998 0.072 6.53 1.15 13.74
2/5/2021 8:00:00 PM 1.08 33.944 0.072 6.53 1.1 13.75
2/5/2021 8:15:00 PM 1.05 33.89 0.072 6.49 1.15 13.77
2/5/2021 8:30:00 PM 1.05 33.89 0.072 6.53 1.1 13.77
2/5/2021 8:45:00 PM 1.03 33.854 0.073 6.52 1.15 13.77
2/5/2021 9:00:00 PM 1.01 33.818 0.073 6.51 1.14 13.77
2/5/2021 9:15:00 PM 0.99 33.782 0.073 6.53 1.16 13.78
2/5/2021 9:30:00 PM 0.97 33.746 0.073 6.52 1.17 13.79
2/5/2021 9:45:00 PM 0.96 33.728 0.073 6.52 1.1 13.79
2/5/2021 10:00:00 PM 0.95 33.71 0.073 6.51 1.12 13.81
2/5/2021 10:15:00 PM 0.94 33.692 0.073 6.5 1.13 13.81
2/5/2021 10:30:00 PM 0.92 33.656 0.073 6.51 1.09 13.8
2/5/2021 10:45:00 PM 0.9 33.62 0.073 6.52 1.15 13.81
2/5/2021 11:00:00 PM 0.89 33.602 0.073 6.53 1.16 13.82
2/5/2021 11:15:00 PM 0.88 33.584 0.073 6.52 1.15 13.83
2/5/2021 11:30:00 PM 0.86 33.548 0.073 6.5 1.11 13.84
2/5/2021 11:45:00 PM 0.87 33.566 0.073 6.53 1.12 13.85
2/6/2021 12:00:00 AM 0.86 33.548 0.073 6.5 1.18 13.85
2/6/2021 12:15:00 AM 0.86 33.548 0.073 6.51 1.14 13.85
2/6/2021 12:30:00 AM 0.86 33.548 0.073 6.52 1.09 13.85
2/6/2021 12:45:00 AM 0.86 33.548 0.073 6.52 1.14 13.86
2/6/2021 1:00:00 AM 0.87 33.566 0.073 6.52 1.17 13.85
2/6/2021 1:15:00 AM 0.86 33.548 0.073 6.49 1.11 13.85
2/6/2021 1:30:00 AM 0.87 33.566 0.073 6.53 1.11 13.85
2/6/2021 1:45:00 AM 0.87 33.566 0.073 6.53 1.13 13.85
2/6/2021 2:00:00 AM 0.86 33.548 0.073 6.48 1.12 13.86
2/6/2021 2:15:00 AM 0.87 33.566 0.073 6.53 1.11 13.85
2/6/2021 2:30:00 AM 0.87 33.566 0.073 6.52 1.11 13.86
2/6/2021 2:45:00 AM 0.87 33.566 0.073 6.52 1.12 13.85
2/6/2021 3:00:00 AM 0.87 33.566 0.073 6.52 1.1 13.84
2/6/2021 3:15:00 AM 0.87 33.566 0.073 6.52 1.1 13.85
2/6/2021 3:30:00 AM 0.87 33.566 0.073 6.52 1.09 13.84
2/6/2021 3:45:00 AM 0.8 33.44 0.073 6.53 1.14 13.85
2/6/2021 4:00:00 AM 0.78 33.404 0.073 6.5 1.11 13.87
2/6/2021 4:15:00 AM 0.79 33.422 0.073 6.51 1.1 13.87
2/6/2021 4:30:00 AM 0.77 33.386 0.073 6.52 1.13 13.89
2/6/2021 4:45:00 AM 0.75 33.35 0.073 6.53 1.09 13.91
2/6/2021 5:00:00 AM 0.74 33.332 0.073 6.53 1.12 13.92
2/6/2021 5:15:00 AM 0.73 33.314 0.073 6.52 1.1 13.92
2/6/2021 5:30:00 AM 0.72 33.296 0.073 6.52 1.06 13.94
2/6/2021 5:45:00 AM 0.71 33.278 0.073 6.53 1.1 13.94
2/6/2021 6:00:00 AM 0.69 33.242 0.073 6.53 1.07 13.96
2/6/2021 6:15:00 AM 0.68 33.224 0.073 6.53 1.09 13.96
2/6/2021 6:30:00 AM 0.69 33.242 0.073 6.53 1.12 13.97
2/6/2021 6:45:00 AM 0.7 33.26 0.073 6.53 1.09 13.97
2/6/2021 7:00:00 AM 0.68 33.224 0.073 6.46 1.1 14
2/6/2021 7:15:00 AM 0.7 33.26 0.073 6.53 1.11 13.99
2/6/2021 7:30:00 AM 0.7 33.26 0.073 6.53 1.1 14
2/6/2021 7:45:00 AM 0.7 33.26 0.073 6.53 1.1 14.03
2/6/2021 8:00:00 AM 0.7 33.26 0.073 6.52 1.08 14.05
2/6/2021 8:15:00 AM 0.7 33.26 0.073 6.54 1.09 14.07
2/6/2021 8:30:00 AM 0.7 33.26 0.073 6.55 1.09 14.09
2/6/2021 8:45:00 AM 0.71 33.278 0.073 6.56 1.07 14.1
2/6/2021 9:00:00 AM 0.72 33.296 0.073 6.56 1.1 14.11
2/6/2021 9:15:00 AM 0.72 33.296 0.073 6.56 1.07 14.13
2/6/2021 9:30:00 AM 0.72 33.296 0.073 6.56 1.06 14.12
2/6/2021 9:45:00 AM 0.73 33.314 0.073 6.56 1.07 14.13
2/6/2021 10:00:00 AM 0.73 33.314 0.073 6.56 1.1 14.13
2/6/2021 10:15:00 AM 0.74 33.332 0.073 6.54 1.09 14.14
2/6/2021 10:30:00 AM 0.77 33.386 0.073 6.57 1.03 14.14
2/6/2021 10:45:00 AM 0.78 33.404 0.073 6.55 1.06 14.17
2/6/2021 11:00:00 AM 0.86 33.548 0.073 6.58 1.05 14.14
2/6/2021 11:15:00 AM 0.93 33.674 0.073 6.53 1.07 14.13
2/6/2021 11:30:00 AM 0.96 33.728 0.073 6.57 1.07 14.12
2/6/2021 11:45:00 AM 0.99 33.782 0.073 6.56 1.11 14.12
2/6/2021 12:00:00 PM 1 33.8 0.073 6.56 1.03 14.11
2/6/2021 12:15:00 PM 0.96 33.728 0.073 6.55 1.08 14.1
2/6/2021 12:30:00 PM 0.94 33.692 0.073 6.55 1.1 14.08
2/6/2021 12:45:00 PM 0.93 33.674 0.073 6.52 1.11 14.06
2/6/2021 1:00:00 PM 0.97 33.746 0.073 6.55 1.06 14.03
2/6/2021 1:15:00 PM 1.05 33.89 0.073 6.56 1.1 14.01
2/6/2021 1:30:00 PM 1.1 33.98 0.073 6.56 1.06 14
2/6/2021 1:45:00 PM 1.17 34.106 0.073 6.54 1.05 13.98
2/6/2021 2:00:00 PM 1.17 34.106 0.073 6.56 1.05 13.98
2/6/2021 2:15:00 PM 1.11 33.998 0.072 6.56 1.1 13.96
2/6/2021 2:30:00 PM 1.09 33.962 0.072 6.56 1.07 13.96
2/6/2021 2:45:00 PM 1.1 33.98 0.073 6.55 1.08 13.98
2/6/2021 3:00:00 PM 1.11 33.998 0.073 6.56 1.08 13.96
2/6/2021 3:15:00 PM 1.09 33.962 0.073 6.56 1.02 13.95
2/6/2021 3:30:00 PM 1.07 33.926 0.073 6.51 1.07 13.95
2/6/2021 3:45:00 PM 1.07 33.926 0.073 6.55 1.06 13.96
2/6/2021 4:00:00 PM 1.06 33.908 0.073 6.54 1.08 13.95
2/6/2021 4:15:00 PM 1.06 33.908 0.073 6.55 1.06 13.95
2/6/2021 4:30:00 PM 1.05 33.89 0.073 6.53 1.1 13.95
2/6/2021 4:45:00 PM 1.04 33.872 0.073 6.55 1.04 13.94
2/6/2021 5:00:00 PM 1.01 33.818 0.073 6.53 1.05 13.94
2/6/2021 5:15:00 PM 0.98 33.764 0.073 6.54 1.09 13.95
2/6/2021 5:30:00 PM 0.94 33.692 0.073 6.55 1.07 13.95
2/6/2021 5:45:00 PM 0.9 33.62 0.073 6.54 1.11 13.96
2/6/2021 6:00:00 PM 0.86 33.548 0.073 6.53 1.13 13.96
2/6/2021 6:15:00 PM 0.82 33.476 0.073 6.53 1.14 13.98
2/6/2021 6:30:00 PM 0.79 33.422 0.073 6.53 1.18 13.99
2/6/2021 6:45:00 PM 0.75 33.35 0.073 6.54 1.13 14
2/6/2021 7:00:00 PM 0.71 33.278 0.073 6.53 1.12 14.03
2/6/2021 7:15:00 PM 0.67 33.206 0.073 6.53 1.17 14.04
2/6/2021 7:30:00 PM 0.67 33.206 0.074 6.52 1.19 14.05
2/6/2021 7:45:00 PM 0.68 33.224 0.074 6.5 1.11 14.07
2/6/2021 8:00:00 PM 0.7 33.26 0.074 6.51 1.12 14.06
2/6/2021 8:15:00 PM 0.7 33.26 0.074 6.51 1.17 14.07
2/6/2021 8:30:00 PM 0.7 33.26 0.074 6.52 1.05 14.08
2/6/2021 8:45:00 PM 0.69 33.242 0.074 6.52 1.05 14.09
2/6/2021 9:00:00 PM 0.7 33.26 0.074 6.52 1.15 14.1
2/6/2021 9:15:00 PM 0.68 33.224 0.074 6.46 1.08 14.11
2/6/2021 9:30:00 PM 0.69 33.242 0.074 6.51 1.5 14.11
2/6/2021 9:45:00 PM 0.7 33.26 0.074 6.52 1.63 14.11
2/6/2021 10:00:00 PM 0.69 33.242 0.074 6.47 2.1 14.12
2/6/2021 10:15:00 PM 0.7 33.26 0.074 6.52 1.22 14.12
2/6/2021 10:30:00 PM 0.7 33.26 0.074 6.52 1.12 14.12
2/6/2021 10:45:00 PM 0.71 33.278 0.075 6.51 1.07 14.08
2/6/2021 11:00:00 PM 0.71 33.278 0.075 6.51 1.05 14.09
2/6/2021 11:15:00 PM 0.73 33.314 0.075 6.51 1.04 14.05
2/6/2021 11:30:00 PM 0.73 33.314 0.075 6.44 1.03 14.01
2/6/2021 11:45:00 PM 0.74 33.332 0.075 6.49 1.06 14.02
2/7/2021 12:00:00 AM 0.73 33.314 0.075 6.49 1.07 14.03
2/7/2021 12:15:00 AM 0.73 33.314 0.075 6.49 1.05 14.04
2/7/2021 12:30:00 AM 0.73 33.314 0.075 6.45 1.04 14.04
2/7/2021 12:45:00 AM 0.74 33.332 0.076 6.49 1.01 14.03
2/7/2021 1:00:00 AM 0.73 33.314 0.076 6.49 1.04 14.05
2/7/2021 1:15:00 AM 0.74 33.332 0.076 6.49 1.02 14.03
2/7/2021 1:30:00 AM 0.74 33.332 0.076 6.49 1.03 14.03
2/7/2021 1:45:00 AM 0.74 33.332 0.076 6.48 1.02 14
2/7/2021 2:00:00 AM 0.74 33.332 0.076 6.48 1.07 14.01
2/7/2021 2:15:00 AM 0.75 33.35 0.076 6.47 1 13.97
2/7/2021 2:30:00 AM 0.75 33.35 0.076 6.46 1.03 13.96
2/7/2021 2:45:00 AM 0.76 33.368 0.076 6.47 1.02 13.97
2/7/2021 3:00:00 AM 0.76 33.368 0.076 6.47 1 13.96
2/7/2021 3:15:00 AM 0.76 33.368 0.076 6.47 1.03 13.97
2/7/2021 3:30:00 AM 0.75 33.35 0.076 6.47 1.04 13.99
2/7/2021 3:45:00 AM 0.75 33.35 0.076 6.42 1.03 13.98
2/7/2021 4:00:00 AM 0.75 33.35 0.076 6.45 1.02 13.96
2/7/2021 4:15:00 AM 0.75 33.35 0.076 6.47 1.02 13.97
2/7/2021 4:30:00 AM 0.75 33.35 0.076 6.47 0.98 13.97
2/7/2021 4:45:00 AM 0.74 33.332 0.076 6.45 1.02 13.97
2/7/2021 5:00:00 AM 0.75 33.35 0.076 6.45 1.01 13.96
2/7/2021 5:15:00 AM 0.75 33.35 0.076 6.46 0.98 13.95
2/7/2021 5:30:00 AM 0.75 33.35 0.076 6.47 1 13.96
2/7/2021 5:45:00 AM 0.75 33.35 0.076 6.47 1.02 13.95
2/7/2021 6:00:00 AM 0.75 33.35 0.076 6.47 1.03 13.94
2/7/2021 6:15:00 AM 0.75 33.35 0.076 6.46 1 13.94
2/7/2021 6:30:00 AM 0.74 33.332 0.076 6.42 1.02 13.93
2/7/2021 6:45:00 AM 0.75 33.35 0.076 6.45 1 13.92
2/7/2021 7:00:00 AM 0.76 33.368 0.076 6.46 1.03 13.9
2/7/2021 7:15:00 AM 0.75 33.35 0.076 6.46 1.03 13.89
2/7/2021 7:30:00 AM 0.76 33.368 0.076 6.46 1.03 13.89
2/7/2021 7:45:00 AM 0.75 33.35 0.076 6.47 1.04 13.9
2/7/2021 8:00:00 AM 0.74 33.332 0.076 6.41 1.02 13.93
2/7/2021 8:15:00 AM 0.75 33.35 0.076 6.48 1.02 13.93
2/7/2021 8:30:00 AM 0.74 33.332 0.075 6.49 1.02 13.97
2/7/2021 8:45:00 AM 0.74 33.332 0.075 6.5 1.05 14
2/7/2021 9:00:00 AM 0.75 33.35 0.075 6.5 1.07 14
2/7/2021 9:15:00 AM 0.76 33.368 0.075 6.49 1.03 14.01
2/7/2021 9:30:00 AM 0.79 33.422 0.075 6.5 1.07 13.99
2/7/2021 9:45:00 AM 0.75 33.35 0.075 6.53 1.07 14.05
2/7/2021 10:00:00 AM 0.73 33.314 0.074 6.51 1.08 14.09
2/7/2021 10:15:00 AM 0.74 33.332 0.074 6.54 1.23 14.09
2/7/2021 10:30:00 AM 0.74 33.332 0.073 6.52 1.34 14.12
2/7/2021 10:45:00 AM 0.74 33.332 0.073 6.56 1.35 14.12
2/7/2021 11:00:00 AM 0.73 33.314 0.072 6.58 1.22 14.13
2/7/2021 11:15:00 AM 0.73 33.314 0.072 6.58 1.17 14.14
2/7/2021 11:30:00 AM 0.73 33.314 0.071 6.58 1.19 14.14
2/7/2021 11:45:00 AM 0.73 33.314 0.071 6.59 1.16 14.14
2/7/2021 12:00:00 PM 0.72 33.296 0.07 6.59 1.22 14.15
2/7/2021 12:15:00 PM 0.73 33.314 0.07 6.6 1.17 14.15
2/7/2021 12:30:00 PM 0.73 33.314 0.07 6.6 1.25 14.14
2/7/2021 12:45:00 PM 0.72 33.296 0.07 6.5 1.27 14.15
2/7/2021 1:00:00 PM 0.74 33.332 0.07 6.55 1.33 14.14
2/7/2021 1:15:00 PM 0.74 33.332 0.07 6.52 1.38 14.13
2/7/2021 1:30:00 PM 0.72 33.296 0.07 6.48 1.33 14.13
2/7/2021 1:45:00 PM 0.71 33.278 0.071 6.46 1.32 14.13
2/7/2021 2:00:00 PM 0.72 33.296 0.071 6.43 1.46 14.14
2/7/2021 2:15:00 PM 0.72 33.296 0.072 6.44 1.36 14.14
2/7/2021 2:30:00 PM 0.72 33.296 0.073 6.44 1.4 14.13
2/7/2021 2:45:00 PM 0.72 33.296 0.073 6.44 1.39 14.14
2/7/2021 3:00:00 PM 0.71 33.278 0.074 6.42 1.36 14.15
2/7/2021 3:15:00 PM 0.7 33.26 0.074 6.43 1.5 14.14
2/7/2021 3:30:00 PM 0.69 33.242 0.075 6.44 1.39 14.15
2/7/2021 3:45:00 PM 0.7 33.26 0.075 6.45 1.36 14.15
2/7/2021 4:00:00 PM 0.69 33.242 0.076 6.43 1.41 14.16
2/7/2021 4:15:00 PM 0.69 33.242 0.076 6.45 1.34 14.16
2/7/2021 4:30:00 PM 0.68 33.224 0.076 6.41 1.33 14.17
2/7/2021 4:45:00 PM 0.69 33.242 0.077 6.44 1.32 14.17
2/7/2021 5:00:00 PM 0.68 33.224 0.077 6.44 1.27 14.17
2/7/2021 5:15:00 PM 0.69 33.242 0.077 6.45 1.3 14.17
2/7/2021 5:30:00 PM 0.67 33.206 0.078 6.41 1.28 14.17
2/7/2021 5:45:00 PM 0.68 33.224 0.078 6.45 1.25 14.15
2/7/2021 6:00:00 PM 0.68 33.224 0.078 6.45 1.27 14.15
2/7/2021 6:15:00 PM 0.68 33.224 0.078 6.45 1.26 14.14
2/7/2021 6:30:00 PM 0.68 33.224 0.078 6.45 1.25 14.14
2/7/2021 6:45:00 PM 0.68 33.224 0.078 6.45 1.24 14.14
2/7/2021 7:00:00 PM 0.66 33.188 0.078 6.4 1.23 14.15
2/7/2021 7:15:00 PM 0.68 33.224 0.078 6.44 1.2 14.14
2/7/2021 7:30:00 PM 0.67 33.206 0.078 6.45 1.21 14.15
2/7/2021 7:45:00 PM 0.68 33.224 0.078 6.46 1.21 14.15
2/7/2021 8:00:00 PM 0.68 33.224 0.078 6.46 1.21 14.15
2/7/2021 8:15:00 PM 0.68 33.224 0.078 6.46 1.19 14.16
2/7/2021 8:30:00 PM 0.68 33.224 0.078 6.44 1.13 14.16
2/7/2021 8:45:00 PM 0.68 33.224 0.078 6.44 1.22 14.16
2/7/2021 9:00:00 PM 0.68 33.224 0.078 6.46 1.36 14.17
2/7/2021 9:15:00 PM 0.67 33.206 0.078 6.44 1.37 14.17
2/7/2021 9:30:00 PM 0.68 33.224 0.077 6.46 1.47 14.17
2/7/2021 9:45:00 PM 0.68 33.224 0.077 6.46 1.98 14.16
2/7/2021 10:00:00 PM 0.68 33.224 0.077 6.46 3.33 14.18
2/7/2021 10:15:00 PM 0.68 33.224 0.077 6.48 4.66 14.2
2/7/2021 10:30:00 PM 0.68 33.224 0.077 6.49 3.86 14.2
2/7/2021 10:45:00 PM 0.68 33.224 0.077 6.49 5.75 14.19
2/7/2021 11:00:00 PM 0.68 33.224 0.077 6.5 5.44 14.18
2/7/2021 11:15:00 PM 0.68 33.224 0.076 6.49 8.35 14.18
2/7/2021 11:30:00 PM 0.69 33.242 0.077 6.5 11.03 14.18
2/7/2021 11:45:00 PM 0.68 33.224 0.077 6.51 27.31 14.17
2/8/2021 12:00:00 AM 0.68 33.224 0.077 6.51 28.2 14.18
2/8/2021 12:15:00 AM 0.69 33.242 0.077 6.51 26.02 14.19
2/8/2021 12:30:00 AM 0.69 33.242 0.076 6.51 27.45 14.19
2/8/2021 12:45:00 AM 0.68 33.224 0.075 6.48 35.82 14.2
2/8/2021 1:00:00 AM 0.69 33.242 0.075 6.51 40.67 14.19
2/8/2021 1:15:00 AM 0.69 33.242 0.074 6.51 43.07 14.18
2/8/2021 1:30:00 AM 0.69 33.242 0.073 6.5 39.09 14.19
2/8/2021 1:45:00 AM 0.69 33.242 0.073 6.51 38 14.18
2/8/2021 2:00:00 AM 0.69 33.242 0.072 6.51 36.79 14.17
2/8/2021 2:15:00 AM 0.69 33.242 0.073 6.5 34.96 14.17
2/8/2021 2:30:00 AM 0.69 33.242 0.073 6.51 31.62 14.16
2/8/2021 2:45:00 AM 0.69 33.242 0.073 6.5 30.01 14.15
2/8/2021 3:00:00 AM 0.7 33.26 0.073 6.5 27.94 14.15
2/8/2021 3:15:00 AM 0.69 33.242 0.074 6.49 27.03 14.15
2/8/2021 3:30:00 AM 0.69 33.242 0.074 6.5 27.03 14.12
2/8/2021 3:45:00 AM 0.69 33.242 0.074 6.5 27.01 14.12
2/8/2021 4:00:00 AM 0.7 33.26 0.074 6.5 25.89 14.1
2/8/2021 4:15:00 AM 0.7 33.26 0.075 6.49 24.58 14.08
2/8/2021 4:30:00 AM 0.7 33.26 0.075 6.49 22.59 14.09
2/8/2021 4:45:00 AM 0.7 33.26 0.075 6.5 22.54 14.12
2/8/2021 5:00:00 AM 0.7 33.26 0.075 6.49 25.21 14.11
2/8/2021 5:15:00 AM 0.7 33.26 0.075 6.49 28.99 14.11
2/8/2021 5:30:00 AM 0.69 33.242 0.076 6.45 34.01 14.11
2/8/2021 5:45:00 AM 0.7 33.26 0.076 6.48 39.26 14.1
2/8/2021 6:00:00 AM 0.7 33.26 0.076 6.48 44.47 14.1
2/8/2021 6:15:00 AM 0.7 33.26 0.076 6.47 48.65 14.09
2/8/2021 6:30:00 AM 0.71 33.278 0.076 6.47 50.05 14.07
2/8/2021 6:45:00 AM 0.71 33.278 0.077 6.45 49.15 14.08
2/8/2021 7:00:00 AM 0.72 33.296 0.077 6.47 48.41 14.08
2/8/2021 7:15:00 AM 0.72 33.296 0.077 6.45 48.77 14.07
2/8/2021 7:30:00 AM 0.72 33.296 0.077 6.47 45.65 14.09
2/8/2021 7:45:00 AM 0.72 33.296 0.077 6.47 52.85 14.1
2/8/2021 8:00:00 AM 0.72 33.296 0.077 6.47 59.37 14.13
2/8/2021 8:15:00 AM 0.73 33.314 0.077 6.46 68.32 14.15
2/8/2021 8:30:00 AM 0.73 33.314 0.077 6.47 1.02 14.16
2/8/2021 8:45:00 AM 0.73 33.314 0.078 6.47 0.97 14.21
2/8/2021 9:00:00 AM 0.73 33.314 0.078 6.47 1.01 14.24
2/8/2021 9:15:00 AM 0.71 33.278 0.078 6.45 1 14.27
2/8/2021 9:30:00 AM 0.72 33.296 0.078 6.48 1 14.26
2/8/2021 9:45:00 AM 0.72 33.296 0.078 6.48 1 14.28
2/8/2021 10:00:00 AM 0.72 33.296 0.078 6.49 1.01 14.29
2/8/2021 10:15:00 AM 0.73 33.314 0.078 6.49 1.01 14.28
2/8/2021 10:30:00 AM 0.73 33.314 0.078 6.49 1 14.29
2/8/2021 10:45:00 AM 0.75 33.35 0.078 6.5 1.21 14.29
2/8/2021 11:00:00 AM 0.75 33.35 0.077 6.5 1.16 14.29
2/8/2021 11:15:00 AM 0.76 33.368 0.077 6.51 1.09 14.29
2/8/2021 11:30:00 AM 0.78 33.404 0.077 6.52 1.1 14.29
2/8/2021 11:45:00 AM 0.78 33.404 0.077 6.53 1.06 14.28
2/8/2021 12:00:00 PM 0.79 33.422 0.077 6.54 1.09 14.26
2/8/2021 12:15:00 PM 0.75 33.35 0.077 6.52 1.09 14.28
2/8/2021 12:30:00 PM 0.76 33.368 0.077 6.55 1.2 14.29
2/8/2021 12:45:00 PM 0.75 33.35 0.076 6.52 1.35 14.3
2/8/2021 1:00:00 PM 0.75 33.35 0.076 6.55 1.27 14.29
2/8/2021 1:15:00 PM 0.74 33.332 0.076 6.57 1.24 14.29
2/8/2021 1:30:00 PM 0.74 33.332 0.076 6.56 1.2 14.29
2/8/2021 1:45:00 PM 0.73 33.314 0.075 6.53 1.77 14.28
2/8/2021 2:00:00 PM 0.74 33.332 0.075 6.48 1.18 14.27
2/8/2021 2:15:00 PM 0.73 33.314 0.075 6.47 1.31 14.27
2/8/2021 2:30:00 PM 0.73 33.314 0.074 6.48 1.27 14.28
2/8/2021 2:45:00 PM 0.72 33.296 0.074 6.43 1.25 14.28
2/8/2021 3:00:00 PM 0.73 33.314 0.074 6.53 1.22 14.26
2/8/2021 3:15:00 PM 0.73 33.314 0.074 6.55 1.2 14.27
2/8/2021 3:30:00 PM 0.72 33.296 0.074 6.55 1.27 14.29
2/8/2021 3:45:00 PM 0.73 33.314 0.074 6.55 1.23 14.28
2/8/2021 4:00:00 PM 0.71 33.278 0.074 6.56 1.32 14.28
2/8/2021 4:15:00 PM 0.71 33.278 0.074 6.55 1.29 14.28
2/8/2021 4:30:00 PM 0.7 33.26 0.074 6.55 1.3 14.29
2/8/2021 4:45:00 PM 0.7 33.26 0.074 6.53 1.28 14.29
2/8/2021 5:00:00 PM 0.7 33.26 0.075 6.53 1.23 14.28
2/8/2021 5:15:00 PM 0.69 33.242 0.075 6.5 1.28 14.27
2/8/2021 5:30:00 PM 0.7 33.26 0.076 6.53 1.18 14.26
2/8/2021 5:45:00 PM 0.7 33.26 0.076 6.53 1.24 14.25
2/8/2021 6:00:00 PM 0.69 33.242 0.077 6.5 1.23 14.24
2/8/2021 6:15:00 PM 0.7 33.26 0.077 6.53 1.17 14.22
2/8/2021 6:30:00 PM 0.7 33.26 0.077 6.52 1.26 14.22
2/8/2021 6:45:00 PM 0.7 33.26 0.078 6.52 1.16 14.21
2/8/2021 7:00:00 PM 0.69 33.242 0.078 6.48 1.17 14.21
2/8/2021 7:15:00 PM 0.7 33.26 0.078 6.52 1.14 14.19
2/8/2021 7:30:00 PM 0.7 33.26 0.078 6.51 1.16 14.2
2/8/2021 7:45:00 PM 0.7 33.26 0.078 6.51 1.14 14.19
2/8/2021 8:00:00 PM 0.7 33.26 0.078 6.52 1.13 14.18
2/8/2021 8:15:00 PM 0.7 33.26 0.079 6.52 1.16 14.18
2/8/2021 8:30:00 PM 0.7 33.26 0.079 6.52 1.18 14.18
2/8/2021 8:45:00 PM 0.7 33.26 0.079 6.51 1.11 14.18
2/8/2021 9:00:00 PM 0.7 33.26 0.079 6.52 1.16 14.18
2/8/2021 9:15:00 PM 0.7 33.26 0.079 6.51 1.15 14.17
2/8/2021 9:30:00 PM 0.7 33.26 0.079 6.51 1.17 14.16
2/8/2021 9:45:00 PM 0.7 33.26 0.079 6.51 1.13 14.16
2/8/2021 10:00:00 PM 0.7 33.26 0.079 6.51 1.12 14.15
2/8/2021 10:15:00 PM 0.68 33.224 0.079 6.46 1.13 14.17
2/8/2021 10:30:00 PM 0.7 33.26 0.078 6.51 1.13 14.15
2/8/2021 10:45:00 PM 0.69 33.242 0.078 6.47 1.1 14.15
2/8/2021 11:00:00 PM 0.7 33.26 0.078 6.51 1.13 14.15
2/8/2021 11:15:00 PM 0.7 33.26 0.078 6.51 1.11 14.14
2/8/2021 11:30:00 PM 0.7 33.26 0.078 6.51 1.11 14.14
2/8/2021 11:45:00 PM 0.69 33.242 0.078 6.47 1.09 14.14
2/9/2021 12:00:00 AM 0.7 33.26 0.078 6.51 1.15 14.14
2/9/2021 12:15:00 AM 0.7 33.26 0.078 6.51 1.12 14.13
2/9/2021 12:30:00 AM 0.7 33.26 0.078 6.51 1.15 14.13
2/9/2021 12:45:00 AM 0.7 33.26 0.078 6.51 1.09 14.13
2/9/2021 1:00:00 AM 0.7 33.26 0.077 6.51 1.1 14.13
2/9/2021 1:15:00 AM 0.7 33.26 0.077 6.51 1.11 14.13
2/9/2021 1:30:00 AM 0.7 33.26 0.077 6.49 1.08 14.12
2/9/2021 1:45:00 AM 0.69 33.242 0.077 6.49 1.09 14.12
2/9/2021 2:00:00 AM 0.7 33.26 0.077 6.51 1.06 14.11
2/9/2021 2:15:00 AM 0.7 33.26 0.077 6.51 1.06 14.11
2/9/2021 2:30:00 AM 0.7 33.26 0.077 6.51 1.08 14.1
2/9/2021 2:45:00 AM 0.7 33.26 0.077 6.51 1.09 14.09
2/9/2021 3:00:00 AM 0.7 33.26 0.077 6.51 1.07 14.09
2/9/2021 3:15:00 AM 0.7 33.26 0.077 6.51 1.09 14.1
2/9/2021 3:30:00 AM 0.7 33.26 0.077 6.51 1.07 14.09
2/9/2021 3:45:00 AM 0.7 33.26 0.077 6.51 1.07 14.1
2/9/2021 4:00:00 AM 0.7 33.26 0.076 6.51 1.1 14.09
2/9/2021 4:15:00 AM 0.69 33.242 0.076 6.5 1.07 14.08
2/9/2021 4:30:00 AM 0.7 33.26 0.076 6.52 1.08 14.08
2/9/2021 4:45:00 AM 0.7 33.26 0.076 6.51 1.07 14.07
2/9/2021 5:00:00 AM 0.7 33.26 0.076 6.52 1.08 14.07
2/9/2021 5:15:00 AM 0.7 33.26 0.076 6.52 1.08 14.07
2/9/2021 5:30:00 AM 0.7 33.26 0.076 6.52 1.09 14.07
2/9/2021 5:45:00 AM 0.7 33.26 0.076 6.52 1.1 14.06
2/9/2021 6:00:00 AM 0.7 33.26 0.076 6.52 1.09 14.05
2/9/2021 6:15:00 AM 0.7 33.26 0.076 6.52 1.08 14.05
2/9/2021 6:30:00 AM 0.69 33.242 0.076 6.48 1.09 14.06
2/9/2021 6:45:00 AM 0.7 33.26 0.076 6.52 1.08 14.05
2/9/2021 7:00:00 AM 0.7 33.26 0.076 6.51 1.09 14.05
2/9/2021 7:15:00 AM 0.7 33.26 0.076 6.52 1.03 14.05
2/9/2021 7:30:00 AM 0.7 33.26 0.076 6.52 1.07 14.05
2/9/2021 7:45:00 AM 0.7 33.26 0.076 6.52 1.07 14.06
2/9/2021 8:00:00 AM 0.7 33.26 0.076 6.53 1.07 14.06
2/9/2021 8:15:00 AM 0.7 33.26 0.076 6.53 1.1 14.06
2/9/2021 8:30:00 AM 0.7 33.26 0.076 6.53 1.09 14.08
2/9/2021 8:45:00 AM 0.71 33.278 0.076 6.54 1.07 14.09
2/9/2021 9:00:00 AM 0.7 33.26 0.076 6.53 1.06 14.1
2/9/2021 9:15:00 AM 0.71 33.278 0.076 6.54 1.05 14.11
2/9/2021 9:30:00 AM 0.71 33.278 0.076 6.52 1.08 14.12
2/9/2021 9:45:00 AM 0.71 33.278 0.076 6.54 1.06 14.12
2/9/2021 10:00:00 AM 0.71 33.278 0.076 6.55 1.07 14.13
2/9/2021 10:15:00 AM 0.72 33.296 0.076 6.55 1.06 14.14
2/9/2021 10:30:00 AM 0.72 33.296 0.076 6.55 1.09 14.14
2/9/2021 10:45:00 AM 0.73 33.314 0.076 6.55 1.05 14.15
2/9/2021 11:00:00 AM 0.72 33.296 0.076 6.51 1.06 14.16
2/9/2021 11:15:00 AM 0.73 33.314 0.076 6.55 1.05 14.16
2/9/2021 11:30:00 AM 0.74 33.332 0.076 6.55 1.1 14.15
2/9/2021 11:45:00 AM 0.74 33.332 0.076 6.55 1.08 14.16
2/9/2021 12:00:00 PM 0.75 33.35 0.076 6.56 1.06 14.15
2/9/2021 12:15:00 PM 0.74 33.332 0.076 6.52 1.09 14.16
2/9/2021 12:30:00 PM 0.73 33.314 0.075 6.56 1.06 14.15
2/9/2021 12:45:00 PM 0.72 33.296 0.075 6.52 1.09 14.15
2/9/2021 1:00:00 PM 0.74 33.332 0.075 6.55 1.11 14.15
2/9/2021 1:15:00 PM 0.73 33.314 0.075 6.5 1.12 14.14
2/9/2021 1:30:00 PM 0.73 33.314 0.075 6.54 1.13 14.13
2/9/2021 1:45:00 PM 0.73 33.314 0.075 6.55 1.13 14.13
2/9/2021 2:00:00 PM 0.72 33.296 0.075 6.56 1.13 14.13
2/9/2021 2:15:00 PM 0.72 33.296 0.075 6.56 1.12 14.13
2/9/2021 2:30:00 PM 0.73 33.314 0.075 6.56 1.17 14.13
2/9/2021 2:45:00 PM 0.73 33.314 0.075 6.56 1.18 14.13
2/9/2021 3:00:00 PM 0.73 33.314 0.075 6.56 1.2 14.12
2/9/2021 3:15:00 PM 0.72 33.296 0.075 6.57 1.17 14.13
2/9/2021 3:30:00 PM 0.72 33.296 0.075 6.54 1.15 14.13
2/9/2021 3:45:00 PM 0.72 33.296 0.075 6.56 1.15 14.12
2/9/2021 4:00:00 PM 0.72 33.296 0.075 6.57 1.17 14.12
2/9/2021 4:15:00 PM 0.72 33.296 0.075 6.57 1.2 14.12
2/9/2021 4:30:00 PM 0.71 33.278 0.075 6.57 1.12 14.12
2/9/2021 4:45:00 PM 0.7 33.26 0.075 6.54 1.16 14.13
2/9/2021 5:00:00 PM 0.71 33.278 0.075 6.57 1.12 14.12
2/9/2021 5:15:00 PM 0.71 33.278 0.075 6.56 1.12 14.1
2/9/2021 5:30:00 PM 0.71 33.278 0.075 6.57 1.16 14.09
2/9/2021 5:45:00 PM 0.7 33.26 0.075 6.53 1.13 14.09
2/9/2021 6:00:00 PM 0.71 33.278 0.075 6.55 1.14 14.07
2/9/2021 6:15:00 PM 0.71 33.278 0.075 6.55 1.12 14.07
2/9/2021 6:30:00 PM 0.7 33.26 0.075 6.55 1.08 14.06
2/9/2021 6:45:00 PM 0.7 33.26 0.075 6.55 1.12 14.06
2/9/2021 7:00:00 PM 0.7 33.26 0.075 6.55 1.13 14.06
2/9/2021 7:15:00 PM 0.7 33.26 0.075 6.54 1.12 14.06
2/9/2021 7:30:00 PM 0.7 33.26 0.075 6.54 1.13 14.06
2/9/2021 7:45:00 PM 0.7 33.26 0.075 6.53 1.12 14.06
2/9/2021 8:00:00 PM 0.71 33.278 0.075 6.53 1.1 14.07
2/9/2021 8:15:00 PM 0.7 33.26 0.076 6.49 1.12 14.07
2/9/2021 8:30:00 PM 0.71 33.278 0.075 6.53 1.09 14.08
2/9/2021 8:45:00 PM 0.71 33.278 0.076 6.52 1.05 14.07
2/9/2021 9:00:00 PM 0.71 33.278 0.076 6.52 1.1 14.07
2/9/2021 9:15:00 PM 0.7 33.26 0.076 6.52 1.1 14.08
2/9/2021 9:30:00 PM 0.7 33.26 0.076 6.51 1.07 14.08
2/9/2021 9:45:00 PM 0.7 33.26 0.076 6.52 1.07 14.08
2/9/2021 10:00:00 PM 0.7 33.26 0.076 6.52 1.07 14.07
2/9/2021 10:15:00 PM 0.7 33.26 0.076 6.52 1.06 14.08
2/9/2021 10:30:00 PM 0.7 33.26 0.076 6.5 1.09 14.09
2/9/2021 10:45:00 PM 0.7 33.26 0.076 6.52 1.09 14.08
2/9/2021 11:00:00 PM 0.7 33.26 0.076 6.52 1.08 14.09
2/9/2021 11:15:00 PM 0.7 33.26 0.076 6.52 1.07 14.09
2/9/2021 11:30:00 PM 0.7 33.26 0.076 6.51 1.12 14.09
2/9/2021 11:45:00 PM 0.7 33.26 0.076 6.5 1.08 14.08
2/10/2021 12:00:00 AM 0.7 33.26 0.076 6.52 1.07 14.09
2/10/2021 12:15:00 AM 0.7 33.26 0.076 6.52 1.09 14.09
2/10/2021 12:30:00 AM 0.7 33.26 0.076 6.49 1.07 14.1
2/10/2021 12:45:00 AM 0.7 33.26 0.076 6.52 1.07 14.09
2/10/2021 1:00:00 AM 0.7 33.26 0.076 6.52 1.06 14.1
2/10/2021 1:15:00 AM 0.7 33.26 0.076 6.52 1.05 14.09
2/10/2021 1:30:00 AM 0.7 33.26 0.076 6.52 1.07 14.11
2/10/2021 1:45:00 AM 0.7 33.26 0.076 6.52 1.06 14.1
2/10/2021 2:00:00 AM 0.7 33.26 0.076 6.52 1.07 14.1
2/10/2021 2:15:00 AM 0.7 33.26 0.076 6.52 1.08 14.11
2/10/2021 2:30:00 AM 0.7 33.26 0.076 6.52 1.1 14.1
2/10/2021 2:45:00 AM 0.7 33.26 0.076 6.51 1.06 14.1
2/10/2021 3:00:00 AM 0.7 33.26 0.076 6.52 1.07 14.11
2/10/2021 3:15:00 AM 0.7 33.26 0.076 6.52 1.07 14.1
2/10/2021 3:30:00 AM 0.7 33.26 0.076 6.52 1.05 14.11
2/10/2021 3:45:00 AM 0.7 33.26 0.076 6.5 1.08 14.11
2/10/2021 4:00:00 AM 0.69 33.242 0.076 6.5 1.08 14.12
2/10/2021 4:15:00 AM 0.7 33.26 0.076 6.52 1.06 14.12
2/10/2021 4:30:00 AM 0.7 33.26 0.076 6.52 1.09 14.12
2/10/2021 4:45:00 AM 0.7 33.26 0.076 6.52 1.06 14.12
2/10/2021 5:00:00 AM 0.7 33.26 0.076 6.52 1.06 14.12
2/10/2021 5:15:00 AM 0.7 33.26 0.076 6.5 1.04 14.13
2/10/2021 5:30:00 AM 0.7 33.26 0.076 6.52 1.07 14.14
2/10/2021 5:45:00 AM 0.7 33.26 0.076 6.52 1.02 14.14
2/10/2021 6:00:00 AM 0.69 33.242 0.076 6.49 1.03 14.15
2/10/2021 6:15:00 AM 0.7 33.26 0.076 6.52 1.03 14.15
2/10/2021 6:30:00 AM 0.7 33.26 0.076 6.51 1.03 14.14
2/10/2021 6:45:00 AM 0.69 33.242 0.076 6.5 1.04 14.16
2/10/2021 7:00:00 AM 0.69 33.242 0.076 6.52 1.04 14.16
2/10/2021 7:15:00 AM 0.69 33.242 0.076 6.5 1.04 14.17
2/10/2021 7:30:00 AM 0.7 33.26 0.077 6.52 1.02 14.17
2/10/2021 7:45:00 AM 0.7 33.26 0.077 6.52 1.03 14.19
2/10/2021 8:00:00 AM 0.7 33.26 0.077 6.52 1.04 14.21
2/10/2021 8:15:00 AM 0.7 33.26 0.077 6.53 1.01 14.23
2/10/2021 8:30:00 AM 0.69 33.242 0.077 6.48 1.05 14.25
2/10/2021 8:45:00 AM 0.71 33.278 0.077 6.53 1.02 14.25
2/10/2021 9:00:00 AM 0.71 33.278 0.077 6.53 1.04 14.25
2/10/2021 9:15:00 AM 0.72 33.296 0.077 6.53 1.02 14.27
2/10/2021 9:30:00 AM 0.74 33.332 0.077 6.54 1.01 14.28
2/10/2021 9:45:00 AM 0.74 33.332 0.076 6.55 1.03 14.28
2/10/2021 10:00:00 AM 0.74 33.332 0.076 6.51 1.04 14.29
2/10/2021 10:15:00 AM 0.76 33.368 0.076 6.55 1.04 14.28
2/10/2021 10:30:00 AM 0.76 33.368 0.076 6.54 1 14.28
2/10/2021 10:45:00 AM 0.76 33.368 0.076 6.55 1.03 14.28
2/10/2021 11:00:00 AM 0.77 33.386 0.076 6.55 1.06 14.29
2/10/2021 11:15:00 AM 0.76 33.368 0.076 6.55 1.04 14.29
2/10/2021 11:30:00 AM 0.77 33.386 0.076 6.56 1.06 14.29
2/10/2021 11:45:00 AM 0.76 33.368 0.076 6.54 1.06 14.29
2/10/2021 12:00:00 PM 0.76 33.368 0.076 6.57 1.04 14.28
2/10/2021 12:15:00 PM 0.76 33.368 0.076 6.57 1.07 14.27
2/10/2021 12:30:00 PM 0.76 33.368 0.075 6.58 1.08 14.27
2/10/2021 12:45:00 PM 0.75 33.35 0.075 6.58 1.07 14.27
2/10/2021 1:00:00 PM 0.75 33.35 0.075 6.57 1.07 14.25
2/10/2021 1:15:00 PM 0.75 33.35 0.075 6.56 1.1 14.25
2/10/2021 1:30:00 PM 0.75 33.35 0.075 6.57 1.08 14.25
2/10/2021 1:45:00 PM 0.75 33.35 0.075 6.57 1.11 14.24
2/10/2021 2:00:00 PM 0.74 33.332 0.075 6.56 1.08 14.23
2/10/2021 2:15:00 PM 0.76 33.368 0.075 6.57 1.08 14.22
2/10/2021 2:30:00 PM 0.75 33.35 0.075 6.56 1.06 14.22
2/10/2021 2:45:00 PM 0.75 33.35 0.075 6.56 1.07 14.21
2/10/2021 3:00:00 PM 0.74 33.332 0.075 6.55 1.11 14.21
2/10/2021 3:15:00 PM 0.74 33.332 0.075 6.56 1.11 14.22
2/10/2021 3:30:00 PM 0.73 33.314 0.075 6.53 1.07 14.22
2/10/2021 3:45:00 PM 0.74 33.332 0.075 6.56 1.09 14.2
2/10/2021 4:00:00 PM 0.73 33.314 0.075 6.56 1.07 14.2
2/10/2021 4:15:00 PM 0.73 33.314 0.075 6.56 1.05 14.2
2/10/2021 4:30:00 PM 0.73 33.314 0.075 6.56 1.06 14.2
2/10/2021 4:45:00 PM 0.72 33.296 0.076 6.56 1.06 14.19
2/10/2021 5:00:00 PM 0.72 33.296 0.076 6.56 1.08 14.17
2/10/2021 5:15:00 PM 0.71 33.278 0.076 6.55 1.07 14.16
2/10/2021 5:30:00 PM 0.71 33.278 0.076 6.55 1.05 14.14
2/10/2021 5:45:00 PM 0.71 33.278 0.076 6.55 1.08 14.14
2/10/2021 6:00:00 PM 0.71 33.278 0.076 6.55 1.07 14.13
2/10/2021 6:15:00 PM 0.71 33.278 0.076 6.55 1.06 14.12
2/10/2021 6:30:00 PM 0.71 33.278 0.076 6.55 1.06 14.12
2/10/2021 6:45:00 PM 0.71 33.278 0.076 6.54 1.06 14.11
2/10/2021 7:00:00 PM 0.71 33.278 0.076 6.54 1.06 14.12
2/10/2021 7:15:00 PM 0.71 33.278 0.076 6.54 1.04 14.11
2/10/2021 7:30:00 PM 0.71 33.278 0.076 6.54 1.08 14.11
2/10/2021 7:45:00 PM 0.71 33.278 0.076 6.54 1.06 14.11
2/10/2021 8:00:00 PM 0.7 33.26 0.076 6.54 1.08 14.11
2/10/2021 8:15:00 PM 0.7 33.26 0.076 6.54 1.07 14.11
2/10/2021 8:30:00 PM 0.71 33.278 0.076 6.54 1.06 14.1
2/10/2021 8:45:00 PM 0.71 33.278 0.076 6.54 1.04 14.1
2/10/2021 9:00:00 PM 0.71 33.278 0.076 6.54 1.04 14.1
2/10/2021 9:15:00 PM 0.71 33.278 0.076 6.53 1.08 14.1
2/10/2021 9:30:00 PM 0.71 33.278 0.076 6.53 1.1 14.11
2/10/2021 9:45:00 PM 0.71 33.278 0.076 6.54 1.08 14.11
2/10/2021 10:00:00 PM 0.71 33.278 0.076 6.53 1.07 14.1
2/10/2021 10:15:00 PM 0.7 33.26 0.076 6.54 1.04 14.11
2/10/2021 10:30:00 PM 0.7 33.26 0.076 6.52 1.03 14.12
2/10/2021 10:45:00 PM 0.7 33.26 0.076 6.54 1.04 14.11
2/10/2021 11:00:00 PM 0.7 33.26 0.076 6.54 1.06 14.1
2/10/2021 11:15:00 PM 0.71 33.278 0.076 6.53 1.08 14.11
2/10/2021 11:30:00 PM 0.71 33.278 0.076 6.53 1.08 14.1
2/10/2021 11:45:00 PM 0.7 33.26 0.076 6.53 1.05 14.1
2/11/2021 12:00:00 AM 0.7 33.26 0.076 6.53 1.1 14.1
2/11/2021 12:15:00 AM 0.7 33.26 0.076 6.53 1.03 14.1
2/11/2021 12:30:00 AM 0.71 33.278 0.076 6.53 1.04 14.09
2/11/2021 12:45:00 AM 0.71 33.278 0.076 6.53 1.07 14.09
2/11/2021 1:00:00 AM 0.7 33.26 0.076 6.51 1.05 14.1
2/11/2021 1:15:00 AM 0.71 33.278 0.076 6.54 1.06 14.09
2/11/2021 1:30:00 AM 0.7 33.26 0.076 6.53 1.07 14.09
2/11/2021 1:45:00 AM 0.7 33.26 0.076 6.53 1.06 14.09
2/11/2021 2:00:00 AM 0.71 33.278 0.076 6.54 1.02 14.08
2/11/2021 2:15:00 AM 0.7 33.26 0.076 6.54 1.04 14.08
2/11/2021 2:30:00 AM 0.7 33.26 0.076 6.54 1.01 14.08
2/11/2021 2:45:00 AM 0.71 33.278 0.076 6.54 1.05 14.08
2/11/2021 3:00:00 AM 0.71 33.278 0.076 6.53 1.03 14.08
2/11/2021 3:15:00 AM 0.7 33.26 0.076 6.54 1.09 14.08
2/11/2021 3:30:00 AM 0.7 33.26 0.076 6.51 1.04 14.08
2/11/2021 3:45:00 AM 0.71 33.278 0.076 6.54 1.02 14.07
2/11/2021 4:00:00 AM 0.71 33.278 0.076 6.54 1.06 14.07
2/11/2021 4:15:00 AM 0.71 33.278 0.076 6.54 1.04 14.08
2/11/2021 4:30:00 AM 0.7 33.26 0.076 6.54 1.06 14.08
2/11/2021 4:45:00 AM 0.71 33.278 0.076 6.54 1.03 14.08
2/11/2021 5:00:00 AM 0.7 33.26 0.076 6.53 1.05 14.09
2/11/2021 5:15:00 AM 0.7 33.26 0.076 6.54 1.04 14.09
2/11/2021 5:30:00 AM 0.7 33.26 0.076 6.54 1.03 14.08
2/11/2021 5:45:00 AM 0.7 33.26 0.076 6.53 1.06 14.08
2/11/2021 6:00:00 AM 0.7 33.26 0.076 6.49 1.06 14.1
2/11/2021 6:15:00 AM 0.71 33.278 0.076 6.54 1 14.08
2/11/2021 6:30:00 AM 0.7 33.26 0.076 6.53 1.06 14.09
2/11/2021 6:45:00 AM 0.71 33.278 0.076 6.54 1 14.08
2/11/2021 7:00:00 AM 0.69 33.242 0.076 6.48 1.12 14.1
2/11/2021 7:15:00 AM 0.71 33.278 0.076 6.53 1.02 14.08
2/11/2021 7:30:00 AM 0.7 33.26 0.076 6.53 1.05 14.1
2/11/2021 7:45:00 AM 0.71 33.278 0.076 6.54 1.01 14.1
2/11/2021 8:00:00 AM 0.7 33.26 0.076 6.5 1.05 14.11
2/11/2021 8:15:00 AM 0.71 33.278 0.076 6.53 1.03 14.11
2/11/2021 8:30:00 AM 0.71 33.278 0.076 6.53 1.02 14.13
2/11/2021 8:45:00 AM 0.71 33.278 0.076 6.54 1.01 14.12
2/11/2021 9:00:00 AM 0.71 33.278 0.076 6.54 1.03 14.14
2/11/2021 9:15:00 AM 0.71 33.278 0.076 6.54 1.03 14.15
2/11/2021 9:30:00 AM 0.71 33.278 0.076 6.55 1.02 14.16
2/11/2021 9:45:00 AM 0.71 33.278 0.076 6.55 1.04 14.18
2/11/2021 10:00:00 AM 0.71 33.278 0.076 6.55 1 14.18
2/11/2021 10:15:00 AM 0.72 33.296 0.076 6.56 1.02 14.19
2/11/2021 10:30:00 AM 0.72 33.296 0.076 6.56 1.01 14.19
2/11/2021 10:45:00 AM 0.72 33.296 0.076 6.55 1.05 14.2
2/11/2021 11:00:00 AM 0.72 33.296 0.076 6.56 1.02 14.2
2/11/2021 11:15:00 AM 0.72 33.296 0.076 6.56 1.01 14.21
2/11/2021 11:30:00 AM 0.72 33.296 0.075 6.56 1.06 14.22
2/11/2021 11:45:00 AM 0.74 33.332 0.075 6.56 1.02 14.22
2/11/2021 12:00:00 PM 0.75 33.35 0.075 6.56 1.01 14.23
2/11/2021 12:15:00 PM 0.76 33.368 0.075 6.57 1.05 14.22
2/11/2021 12:30:00 PM 0.76 33.368 0.075 6.56 1.02 14.23
2/11/2021 12:45:00 PM 0.76 33.368 0.075 6.56 1.01 14.22
2/11/2021 1:00:00 PM 0.75 33.35 0.075 6.56 1.05 14.22
2/11/2021 1:15:00 PM 0.74 33.332 0.075 6.56 1.04 14.22
2/11/2021 1:30:00 PM 0.75 33.35 0.075 6.54 1.05 14.21
2/11/2021 1:45:00 PM 0.74 33.332 0.075 6.56 1.03 14.21
2/11/2021 2:00:00 PM 0.74 33.332 0.075 6.56 1.03 14.2
2/11/2021 2:15:00 PM 0.73 33.314 0.075 6.56 1.02 14.19
2/11/2021 2:30:00 PM 0.73 33.314 0.075 6.56 1.01 14.19
2/11/2021 2:45:00 PM 0.73 33.314 0.075 6.55 1.03 14.18
2/11/2021 3:00:00 PM 0.73 33.314 0.075 6.56 1.05 14.18
2/11/2021 3:15:00 PM 0.72 33.296 0.075 6.56 1.02 14.17
2/11/2021 3:30:00 PM 0.72 33.296 0.075 6.56 1.03 14.17
2/11/2021 3:45:00 PM 0.72 33.296 0.075 6.53 1.05 14.17
2/11/2021 4:00:00 PM 0.72 33.296 0.075 6.55 1.61 14.16
2/11/2021 4:15:00 PM 0.72 33.296 0.075 6.55 1.05 14.17
2/11/2021 4:30:00 PM 0.72 33.296 0.075 6.55 1.04 14.16
2/11/2021 4:45:00 PM 0.71 33.278 0.075 6.54 1.02 14.17
2/11/2021 5:00:00 PM 0.71 33.278 0.075 6.55 1.04 14.15
2/11/2021 5:15:00 PM 0.71 33.278 0.075 6.55 1.03 14.15
2/11/2021 5:30:00 PM 0.71 33.278 0.075 6.55 1.06 14.14
2/11/2021 5:45:00 PM 0.7 33.26 0.075 6.54 1.04 14.14
2/11/2021 6:00:00 PM 0.7 33.26 0.075 6.54 1.06 14.14
2/11/2021 6:15:00 PM 0.7 33.26 0.075 6.54 1.09 14.13
2/11/2021 6:30:00 PM 0.7 33.26 0.075 6.54 1.03 14.13
2/11/2021 6:45:00 PM 0.7 33.26 0.075 6.53 1.11 14.13
2/11/2021 7:00:00 PM 0.7 33.26 0.075 6.53 1.07 14.13
2/11/2021 7:15:00 PM 0.7 33.26 0.075 6.54 1.07 14.13
2/11/2021 7:30:00 PM 0.7 33.26 0.075 6.52 1.07 14.14
2/11/2021 7:45:00 PM 0.7 33.26 0.075 6.54 1.02 14.13
2/11/2021 8:00:00 PM 0.7 33.26 0.075 6.54 1.06 14.14
2/11/2021 8:15:00 PM 0.7 33.26 0.075 6.54 1.06 14.14
2/11/2021 8:30:00 PM 0.69 33.242 0.076 6.5 1.04 14.15
2/11/2021 8:45:00 PM 0.7 33.26 0.076 6.54 1.05 14.15
2/11/2021 9:00:00 PM 0.7 33.26 0.076 6.54 1.06 14.14
2/11/2021 9:15:00 PM 0.7 33.26 0.076 6.54 1.07 14.14
2/11/2021 9:30:00 PM 0.7 33.26 0.076 6.54 1.04 14.15
2/11/2021 9:45:00 PM 0.7 33.26 0.076 6.53 1.03 14.15
2/11/2021 10:00:00 PM 0.7 33.26 0.076 6.54 1.07 14.15
2/11/2021 10:15:00 PM 0.7 33.26 0.076 6.53 1.05 14.16
2/11/2021 10:30:00 PM 0.7 33.26 0.076 6.53 1.02 14.15
2/11/2021 10:45:00 PM 0.7 33.26 0.076 6.53 1.03 14.16
2/11/2021 11:00:00 PM 0.7 33.26 0.076 6.53 1.02 14.16
2/11/2021 11:15:00 PM 0.7 33.26 0.076 6.53 1.02 14.16
2/11/2021 11:30:00 PM 0.7 33.26 0.076 6.53 1.04 14.15
2/11/2021 11:45:00 PM 0.7 33.26 0.076 6.53 1.04 14.15
2/12/2021 12:00:00 AM 0.7 33.26 0.076 6.53 1 14.16
2/12/2021 12:15:00 AM 0.7 33.26 0.076 6.53 1.04 14.16
2/12/2021 12:30:00 AM 0.7 33.26 0.076 6.53 1.04 14.16
2/12/2021 12:45:00 AM 0.69 33.242 0.076 6.53 1.01 14.17
2/12/2021 1:00:00 AM 0.7 33.26 0.076 6.53 1.02 14.16
2/12/2021 1:15:00 AM 0.69 33.242 0.076 6.53 1.02 14.16
2/12/2021 1:30:00 AM 0.68 33.224 0.076 6.49 1.01 14.17
2/12/2021 1:45:00 AM 0.69 33.242 0.076 6.53 1 14.17
2/12/2021 2:00:00 AM 0.7 33.26 0.076 6.54 1.02 14.17
2/12/2021 2:15:00 AM 0.69 33.242 0.076 6.52 1.02 14.17
2/12/2021 2:30:00 AM 0.69 33.242 0.076 6.54 1.02 14.17
2/12/2021 2:45:00 AM 0.69 33.242 0.076 6.51 1 14.17
2/12/2021 3:00:00 AM 0.69 33.242 0.076 6.54 0.99 14.16
2/12/2021 3:15:00 AM 0.69 33.242 0.076 6.53 0.99 14.16
2/12/2021 3:30:00 AM 0.69 33.242 0.077 6.54 1.01 14.16
2/12/2021 3:45:00 AM 0.69 33.242 0.077 6.54 1.03 14.16
2/12/2021 4:00:00 AM 0.7 33.26 0.077 6.54 1.03 14.16
2/12/2021 4:15:00 AM 0.7 33.26 0.077 6.55 1 14.16
2/12/2021 4:30:00 AM 0.7 33.26 0.077 6.55 1 14.17
2/12/2021 4:45:00 AM 0.69 33.242 0.077 6.54 0.99 14.17
2/12/2021 5:00:00 AM 0.69 33.242 0.077 6.54 1.01 14.16
2/12/2021 5:15:00 AM 0.69 33.242 0.077 6.53 1.02 14.17
2/12/2021 5:30:00 AM 0.7 33.26 0.077 6.54 0.99 14.16
2/12/2021 5:45:00 AM 0.7 33.26 0.077 6.55 1 14.15
2/12/2021 6:00:00 AM 0.7 33.26 0.077 6.53 1.04 14.14
2/12/2021 6:15:00 AM 0.7 33.26 0.077 6.54 1.01 14.15
2/12/2021 6:30:00 AM 0.7 33.26 0.077 6.55 1.01 14.15
2/12/2021 6:45:00 AM 0.7 33.26 0.077 6.54 1.02 14.14
2/12/2021 7:00:00 AM 0.7 33.26 0.077 6.53 1 14.14
2/12/2021 7:15:00 AM 0.71 33.278 0.077 6.54 1.01 14.13
2/12/2021 7:30:00 AM 0.71 33.278 0.077 6.55 1 14.14
2/12/2021 7:45:00 AM 0.7 33.26 0.077 6.51 0.99 14.14
2/12/2021 8:00:00 AM 0.71 33.278 0.077 6.55 1.02 14.15
2/12/2021 8:15:00 AM 0.7 33.26 0.077 6.52 1 14.15
2/12/2021 8:30:00 AM 0.71 33.278 0.077 6.55 0.96 14.16
2/12/2021 8:45:00 AM 0.71 33.278 0.077 6.56 1.01 14.18
2/12/2021 9:00:00 AM 0.71 33.278 0.077 6.55 0.97 14.18
2/12/2021 9:15:00 AM 0.71 33.278 0.077 6.53 1 14.21
2/12/2021 9:30:00 AM 0.71 33.278 0.077 6.56 0.97 14.21
2/12/2021 9:45:00 AM 0.71 33.278 0.077 6.56 0.99 14.23
2/12/2021 10:00:00 AM 0.71 33.278 0.077 6.55 1.01 14.24
2/12/2021 10:15:00 AM 0.72 33.296 0.077 6.57 1.01 14.25
2/12/2021 10:30:00 AM 0.72 33.296 0.077 6.57 1 14.24
2/12/2021 10:45:00 AM 0.71 33.278 0.077 6.57 1 14.24
2/12/2021 11:00:00 AM 0.72 33.296 0.077 6.56 1.01 14.22
2/12/2021 11:15:00 AM 0.72 33.296 0.077 6.56 1.03 14.21
2/12/2021 11:30:00 AM 0.73 33.314 0.077 6.56 1 14.23
2/12/2021 11:45:00 AM 0.72 33.296 0.076 6.58 1.02 14.27
2/12/2021 12:00:00 PM 0.72 33.296 0.076 6.57 1.07 14.26
2/12/2021 12:15:00 PM 0.72 33.296 0.076 6.58 1.05 14.27
2/12/2021 12:30:00 PM 0.71 33.278 0.076 6.57 1.06 14.26
2/12/2021 12:45:00 PM 0.71 33.278 0.076 6.57 1.04 14.26
2/12/2021 1:00:00 PM 0.71 33.278 0.076 6.57 1.07 14.26
2/12/2021 1:15:00 PM 0.71 33.278 0.076 6.56 1.05 14.24
2/12/2021 1:30:00 PM 0.71 33.278 0.076 6.56 1.04 14.24
2/12/2021 1:45:00 PM 0.71 33.278 0.075 6.57 1.07 14.24
2/12/2021 2:00:00 PM 0.7 33.26 0.075 6.56 1.09 14.24
2/12/2021 2:15:00 PM 0.71 33.278 0.075 6.57 1.02 14.23
2/12/2021 2:30:00 PM 0.71 33.278 0.075 6.56 1.03 14.23
2/12/2021 2:45:00 PM 0.71 33.278 0.075 6.57 1.06 14.24
2/12/2021 3:00:00 PM 0.71 33.278 0.075 6.57 1.05 14.22
2/12/2021 3:15:00 PM 0.7 33.26 0.075 6.56 1.02 14.24
2/12/2021 3:30:00 PM 0.71 33.278 0.075 6.57 1.05 14.22
2/12/2021 3:45:00 PM 0.71 33.278 0.076 6.57 1.01 14.22
2/12/2021 4:00:00 PM 0.7 33.26 0.076 6.54 1.07 14.23
2/12/2021 4:15:00 PM 0.71 33.278 0.076 6.57 1.03 14.22
2/12/2021 4:30:00 PM 0.7 33.26 0.076 6.57 1.04 14.2
2/12/2021 4:45:00 PM 0.7 33.26 0.076 6.57 1.05 14.2
2/12/2021 5:00:00 PM 0.7 33.26 0.076 6.53 1.05 14.19
2/12/2021 5:15:00 PM 0.7 33.26 0.077 6.56 1.05 14.18
2/12/2021 5:30:00 PM 0.7 33.26 0.077 6.56 1.05 14.16
2/12/2021 5:45:00 PM 0.7 33.26 0.077 6.55 1.06 14.16
2/12/2021 6:00:00 PM 0.7 33.26 0.077 6.55 1.04 14.14
2/12/2021 6:15:00 PM 0.69 33.242 0.077 6.53 1.1 14.14
2/12/2021 6:30:00 PM 0.7 33.26 0.077 6.56 1.08 14.14
2/12/2021 6:45:00 PM 0.7 33.26 0.077 6.55 1.03 14.14
2/12/2021 7:00:00 PM 0.7 33.26 0.077 6.55 1.03 14.14
2/12/2021 7:15:00 PM 0.7 33.26 0.076 6.55 1.04 14.12
2/12/2021 7:30:00 PM 0.7 33.26 0.076 6.55 1.04 14.13
2/12/2021 7:45:00 PM 0.7 33.26 0.076 6.55 1 14.12
2/12/2021 8:00:00 PM 0.7 33.26 0.076 6.55 1 14.13
2/12/2021 8:15:00 PM 0.7 33.26 0.076 6.55 1.02 14.12
2/12/2021 8:30:00 PM 0.69 33.242 0.076 6.51 1.04 14.13
2/12/2021 8:45:00 PM 0.7 33.26 0.076 6.55 1.03 14.12
2/12/2021 9:00:00 PM 0.7 33.26 0.076 6.52 1.01 14.13
2/12/2021 9:15:00 PM 0.71 33.278 0.076 6.55 1.02 14.13
2/12/2021 9:30:00 PM 0.7 33.26 0.076 6.55 1.03 14.13
2/12/2021 9:45:00 PM 0.7 33.26 0.076 6.55 0.99 14.13
2/12/2021 10:00:00 PM 0.7 33.26 0.076 6.55 1.04 14.12
2/12/2021 10:15:00 PM 0.7 33.26 0.076 6.55 1.01 14.14
2/12/2021 10:30:00 PM 0.7 33.26 0.076 6.55 1.12 14.14
2/12/2021 10:45:00 PM 0.7 33.26 0.076 6.55 1.02 14.14
2/12/2021 11:00:00 PM 0.7 33.26 0.076 6.55 1.01 14.14
2/12/2021 11:15:00 PM 0.7 33.26 0.076 6.55 1.01 14.13
2/12/2021 11:30:00 PM 0.7 33.26 0.076 6.55 1.02 14.13
2/12/2021 11:45:00 PM 0.7 33.26 0.076 6.55 1.01 14.14
2/13/2021 12:00:00 AM 0.7 33.26 0.076 6.55 1 14.14
2/13/2021 12:15:00 AM 0.7 33.26 0.076 6.55 1 14.13
2/13/2021 12:30:00 AM 0.69 33.242 0.076 6.49 0.99 14.14
2/13/2021 12:45:00 AM 0.7 33.26 0.076 6.54 1.01 14.14
2/13/2021 1:00:00 AM 0.7 33.26 0.076 6.55 1.02 14.14
2/13/2021 1:15:00 AM 0.7 33.26 0.076 6.55 1 14.14
2/13/2021 1:30:00 AM 0.7 33.26 0.076 6.55 0.99 14.14
2/13/2021 1:45:00 AM 0.68 33.224 0.076 6.51 0.98 14.15
2/13/2021 2:00:00 AM 0.69 33.242 0.076 6.55 1 14.15
2/13/2021 2:15:00 AM 0.7 33.26 0.076 6.55 1.02 14.13
2/13/2021 2:30:00 AM 0.68 33.224 0.076 6.51 1.01 14.15
2/13/2021 2:45:00 AM 0.69 33.242 0.077 6.55 1.01 14.15
2/13/2021 3:00:00 AM 0.7 33.26 0.077 6.55 0.99 14.14
2/13/2021 3:15:00 AM 0.69 33.242 0.077 6.55 1.01 14.14
2/13/2021 3:30:00 AM 0.69 33.242 0.077 6.53 1 14.14
2/13/2021 3:45:00 AM 0.7 33.26 0.077 6.55 0.99 14.15
2/13/2021 4:00:00 AM 0.7 33.26 0.077 6.55 0.99 14.15
2/13/2021 4:15:00 AM 0.69 33.242 0.077 6.55 1 14.15
2/13/2021 4:30:00 AM 0.69 33.242 0.077 6.55 0.97 14.15
2/13/2021 4:45:00 AM 0.69 33.242 0.077 6.55 1.03 14.16
2/13/2021 5:00:00 AM 0.69 33.242 0.077 6.55 1 14.16
2/13/2021 5:15:00 AM 0.69 33.242 0.077 6.55 1.02 14.15
2/13/2021 5:30:00 AM 0.69 33.242 0.077 6.55 1 14.15
2/13/2021 5:45:00 AM 0.69 33.242 0.077 6.55 1 14.15
2/13/2021 6:00:00 AM 0.68 33.224 0.077 6.52 0.99 14.16
2/13/2021 6:15:00 AM 0.69 33.242 0.077 6.55 0.99 14.16
2/13/2021 6:30:00 AM 0.69 33.242 0.077 6.55 0.97 14.16
2/13/2021 6:45:00 AM 0.69 33.242 0.077 6.55 1.01 14.16
2/13/2021 7:00:00 AM 0.7 33.26 0.077 6.55 0.99 14.15
2/13/2021 7:15:00 AM 0.7 33.26 0.077 6.55 1.04 14.15
2/13/2021 7:30:00 AM 0.69 33.242 0.077 6.52 1 14.16
2/13/2021 7:45:00 AM 0.7 33.26 0.077 6.55 0.98 14.17
2/13/2021 8:00:00 AM 0.7 33.26 0.077 6.52 0.96 14.18
2/13/2021 8:15:00 AM 0.7 33.26 0.077 6.56 1.01 14.19
2/13/2021 8:30:00 AM 0.7 33.26 0.077 6.54 1 14.21
2/13/2021 8:45:00 AM 0.71 33.278 0.077 6.56 0.99 14.21
2/13/2021 9:00:00 AM 0.71 33.278 0.077 6.53 0.97 14.23
2/13/2021 9:15:00 AM 0.73 33.314 0.077 6.57 0.96 14.24
2/13/2021 9:30:00 AM 0.74 33.332 0.077 6.57 0.99 14.24
2/13/2021 9:45:00 AM 0.73 33.314 0.077 6.54 0.99 14.26
2/13/2021 10:00:00 AM 0.74 33.332 0.077 6.58 0.98 14.27
2/13/2021 10:15:00 AM 0.73 33.314 0.077 6.58 1.01 14.28
2/13/2021 10:30:00 AM 0.73 33.314 0.077 6.58 0.98 14.28
2/13/2021 10:45:00 AM 0.73 33.314 0.077 6.58 1.01 14.28
2/13/2021 11:00:00 AM 0.73 33.314 0.077 6.57 0.99 14.28
2/13/2021 11:15:00 AM 0.74 33.332 0.077 6.57 1.01 14.29
2/13/2021 11:30:00 AM 0.73 33.314 0.077 6.56 0.99 14.29
2/13/2021 11:45:00 AM 0.72 33.296 0.077 6.49 1.04 14.29
2/13/2021 12:00:00 PM 0.73 33.314 0.077 6.55 0.98 14.28
2/13/2021 12:15:00 PM 0.73 33.314 0.077 6.54 1.02 14.28
2/13/2021 12:30:00 PM 0.73 33.314 0.077 6.54 1.03 14.28
2/13/2021 12:45:00 PM 0.73 33.314 0.077 6.55 0.99 14.27
2/13/2021 1:00:00 PM 0.73 33.314 0.077 6.55 1.03 14.27
2/13/2021 1:15:00 PM 0.73 33.314 0.077 6.55 1.03 14.26
2/13/2021 1:30:00 PM 0.73 33.314 0.077 6.56 1.03 14.26
2/13/2021 1:45:00 PM 0.73 33.314 0.077 6.56 1.05 14.25
2/13/2021 2:00:00 PM 0.73 33.314 0.076 6.57 1.04 14.23
2/13/2021 2:15:00 PM 0.72 33.296 0.076 6.58 1.03 14.23
2/13/2021 2:30:00 PM 0.72 33.296 0.076 6.57 1.01 14.22
2/13/2021 2:45:00 PM 0.72 33.296 0.076 6.58 1.02 14.22
2/13/2021 3:00:00 PM 0.72 33.296 0.075 6.58 1.03 14.22
2/13/2021 3:15:00 PM 0.71 33.278 0.075 6.55 1.03 14.22
2/13/2021 3:30:00 PM 0.71 33.278 0.075 6.57 1.03 14.21
2/13/2021 3:45:00 PM 0.71 33.278 0.075 6.58 1.02 14.2
2/13/2021 4:00:00 PM 0.71 33.278 0.075 6.58 1.05 14.2
2/13/2021 4:15:00 PM 0.7 33.26 0.075 6.54 1.02 14.2
2/13/2021 4:30:00 PM 0.71 33.278 0.075 6.56 1.06 14.19
2/13/2021 4:45:00 PM 0.7 33.26 0.075 6.56 1.03 14.18
2/13/2021 5:00:00 PM 0.7 33.26 0.076 6.56 1.01 14.16
2/13/2021 5:15:00 PM 0.7 33.26 0.076 6.54 1.01 14.15
2/13/2021 5:30:00 PM 0.7 33.26 0.076 6.53 0.99 14.15
2/13/2021 5:45:00 PM 0.7 33.26 0.076 6.54 1.02 14.13
2/13/2021 6:00:00 PM 0.7 33.26 0.077 6.53 1.05 14.12
2/13/2021 6:15:00 PM 0.7 33.26 0.077 6.52 1.04 14.12
2/13/2021 6:30:00 PM 0.7 33.26 0.077 6.51 1.03 14.11
2/13/2021 6:45:00 PM 0.69 33.242 0.077 6.5 1.02 14.11
2/13/2021 7:00:00 PM 0.69 33.242 0.077 6.51 1.03 14.1
2/13/2021 7:15:00 PM 0.7 33.26 0.077 6.52 1.02 14.09
2/13/2021 7:30:00 PM 0.69 33.242 0.077 6.51 1 14.1
2/13/2021 7:45:00 PM 0.69 33.242 0.077 6.5 1.01 14.09
2/13/2021 8:00:00 PM 0.7 33.26 0.077 6.52 1 14.09
2/13/2021 8:15:00 PM 0.7 33.26 0.077 6.52 1.01 14.08
2/13/2021 8:30:00 PM 0.7 33.26 0.077 6.51 1 14.09
2/13/2021 8:45:00 PM 0.7 33.26 0.077 6.52 1.02 14.08
2/13/2021 9:00:00 PM 0.7 33.26 0.076 6.52 1.01 14.09
2/13/2021 9:15:00 PM 0.7 33.26 0.076 6.52 0.99 14.08
2/13/2021 9:30:00 PM 0.7 33.26 0.076 6.52 1.03 14.09
2/13/2021 9:45:00 PM 0.69 33.242 0.076 6.5 1.02 14.1
2/13/2021 10:00:00 PM 0.7 33.26 0.076 6.52 1.01 14.08
2/13/2021 10:15:00 PM 0.7 33.26 0.076 6.51 1.02 14.08
2/13/2021 10:30:00 PM 0.69 33.242 0.076 6.51 0.98 14.09
2/13/2021 10:45:00 PM 0.7 33.26 0.076 6.52 0.98 14.08
2/13/2021 11:00:00 PM 0.69 33.242 0.076 6.49 1.01 14.09
2/13/2021 11:15:00 PM 0.7 33.26 0.076 6.52 0.99 14.08
2/13/2021 11:30:00 PM 0.7 33.26 0.076 6.51 1 14.09
2/13/2021 11:45:00 PM 0.7 33.26 0.076 6.51 0.99 14.07
2/14/2021 12:00:00 AM 0.69 33.242 0.076 6.51 1 14.07
2/14/2021 12:15:00 AM 0.7 33.26 0.076 6.52 0.97 14.07
2/14/2021 12:30:00 AM 0.7 33.26 0.076 6.52 0.98 14.07
2/14/2021 12:45:00 AM 0.7 33.26 0.076 6.52 1.01 14.08
2/14/2021 1:00:00 AM 0.69 33.242 0.076 6.49 1.02 14.08
2/14/2021 1:15:00 AM 0.7 33.26 0.076 6.52 1.01 14.07
2/14/2021 1:30:00 AM 0.7 33.26 0.076 6.51 0.99 14.07
2/14/2021 1:45:00 AM 0.69 33.242 0.076 6.5 1 14.07
2/14/2021 2:00:00 AM 0.7 33.26 0.076 6.51 0.98 14.08
2/14/2021 2:15:00 AM 0.7 33.26 0.076 6.51 1 14.07
2/14/2021 2:30:00 AM 0.7 33.26 0.076 6.51 1 14.08
2/14/2021 2:45:00 AM 0.7 33.26 0.076 6.52 1 14.07
2/14/2021 3:00:00 AM 0.69 33.242 0.076 6.47 1.01 14.07
2/14/2021 3:15:00 AM 0.7 33.26 0.076 6.51 1.02 14.07
2/14/2021 3:30:00 AM 0.7 33.26 0.076 6.52 1 14.07
2/14/2021 3:45:00 AM 0.7 33.26 0.076 6.52 1 14.07
2/14/2021 4:00:00 AM 0.7 33.26 0.076 6.47 1.01 14.07
2/14/2021 4:15:00 AM 0.7 33.26 0.076 6.51 1.02 14.07
2/14/2021 4:30:00 AM 0.7 33.26 0.076 6.52 0.99 14.07
2/14/2021 4:45:00 AM 0.7 33.26 0.076 6.51 0.96 14.08
2/14/2021 5:00:00 AM 0.7 33.26 0.076 6.52 1.02 14.07
2/14/2021 5:15:00 AM 0.7 33.26 0.076 6.51 1.04 14.08
2/14/2021 5:30:00 AM 0.7 33.26 0.076 6.51 1.02 14.08
2/14/2021 5:45:00 AM 0.7 33.26 0.076 6.52 0.99 14.08
2/14/2021 6:00:00 AM 0.7 33.26 0.076 6.52 1.01 14.09
2/14/2021 6:15:00 AM 0.69 33.242 0.076 6.48 1 14.09
2/14/2021 6:30:00 AM 0.7 33.26 0.076 6.51 0.98 14.08
2/14/2021 6:45:00 AM 0.69 33.242 0.076 6.49 1.04 14.09
2/14/2021 7:00:00 AM 0.7 33.26 0.076 6.52 1.01 14.09
2/14/2021 7:15:00 AM 0.7 33.26 0.076 6.5 1.01 14.1
2/14/2021 7:30:00 AM 0.7 33.26 0.076 6.51 1.01 14.1
2/14/2021 7:45:00 AM 0.7 33.26 0.076 6.51 1 14.11
2/14/2021 8:00:00 AM 0.7 33.26 0.076 6.51 1.02 14.11
2/14/2021 8:15:00 AM 0.7 33.26 0.076 6.51 1.02 14.13
2/14/2021 8:30:00 AM 0.7 33.26 0.076 6.52 1.02 14.15
2/14/2021 8:45:00 AM 0.71 33.278 0.076 6.52 1.02 14.15
2/14/2021 9:00:00 AM 0.71 33.278 0.076 6.53 0.99 14.17
2/14/2021 9:15:00 AM 0.72 33.296 0.076 6.53 1 14.19
2/14/2021 9:30:00 AM 0.72 33.296 0.076 6.54 0.99 14.2
2/14/2021 9:45:00 AM 0.72 33.296 0.076 6.54 1.01 14.21
2/14/2021 10:00:00 AM 0.72 33.296 0.076 6.55 1.01 14.22
2/14/2021 10:15:00 AM 0.72 33.296 0.076 6.53 1 14.23
2/14/2021 10:30:00 AM 0.73 33.314 0.076 6.54 1 14.23
2/14/2021 10:45:00 AM 0.73 33.314 0.076 6.56 0.99 14.24
2/14/2021 11:00:00 AM 0.73 33.314 0.076 6.55 1.02 14.24
2/14/2021 11:15:00 AM 0.74 33.332 0.076 6.56 1 14.25
2/14/2021 11:30:00 AM 0.74 33.332 0.076 6.56 1 14.25
2/14/2021 11:45:00 AM 0.74 33.332 0.076 6.56 1.03 14.25
2/14/2021 12:00:00 PM 0.75 33.35 0.076 6.56 1.01 14.26
2/14/2021 12:15:00 PM 0.75 33.35 0.076 6.54 1 14.26
2/14/2021 12:30:00 PM 0.76 33.368 0.076 6.56 1 14.25
2/14/2021 12:45:00 PM 0.77 33.386 0.076 6.57 0.99 14.25
2/14/2021 1:00:00 PM 0.76 33.368 0.076 6.54 1.05 14.25
2/14/2021 1:15:00 PM 0.77 33.386 0.075 6.57 1.02 14.24
2/14/2021 1:30:00 PM 0.76 33.368 0.075 6.57 1.01 14.24
2/14/2021 1:45:00 PM 0.75 33.35 0.075 6.55 1 14.24
2/14/2021 2:00:00 PM 0.75 33.35 0.075 6.56 1.04 14.23
2/14/2021 2:15:00 PM 0.74 33.332 0.075 6.57 1.03 14.22
2/14/2021 2:30:00 PM 0.74 33.332 0.075 6.58 1.02 14.22
2/14/2021 2:45:00 PM 0.74 33.332 0.075 6.58 1.01 14.22
2/14/2021 3:00:00 PM 0.73 33.314 0.075 6.56 1.02 14.21
2/14/2021 3:15:00 PM 0.73 33.314 0.075 6.58 1.03 14.21
2/14/2021 3:30:00 PM 0.72 33.296 0.075 6.57 1.04 14.21
2/14/2021 3:45:00 PM 0.72 33.296 0.075 6.56 1.03 14.21
2/14/2021 4:00:00 PM 0.72 33.296 0.075 6.57 1 14.2
2/14/2021 4:15:00 PM 0.72 33.296 0.075 6.57 1 14.21
2/14/2021 4:30:00 PM 0.72 33.296 0.075 6.58 1.02 14.2
2/14/2021 4:45:00 PM 0.72 33.296 0.075 6.58 1.02 14.19
2/14/2021 5:00:00 PM 0.72 33.296 0.075 6.58 1.04 14.19
2/14/2021 5:15:00 PM 0.7 33.26 0.075 6.53 1.02 14.19
2/14/2021 5:30:00 PM 0.71 33.278 0.075 6.56 1.04 14.18
2/14/2021 5:45:00 PM 0.71 33.278 0.075 6.56 1.03 14.16
2/14/2021 6:00:00 PM 0.71 33.278 0.076 6.57 1.02 14.15
2/14/2021 6:15:00 PM 0.71 33.278 0.076 6.56 1.02 14.15
2/14/2021 6:30:00 PM 0.71 33.278 0.076 6.56 1.02 14.14
2/14/2021 6:45:00 PM 0.69 33.242 0.076 6.5 1.04 14.14
2/14/2021 7:00:00 PM 0.7 33.26 0.076 6.55 1.04 14.14
2/14/2021 7:15:00 PM 0.7 33.26 0.076 6.55 1.03 14.14
2/14/2021 7:30:00 PM 0.7 33.26 0.076 6.56 1.05 14.14
2/14/2021 7:45:00 PM 0.7 33.26 0.076 6.52 1.04 14.14
2/14/2021 8:00:00 PM 0.7 33.26 0.076 6.55 1.05 14.15
2/14/2021 8:15:00 PM 0.7 33.26 0.076 6.52 1.03 14.14
2/14/2021 8:30:00 PM 0.7 33.26 0.076 6.55 1.06 14.13
2/14/2021 8:45:00 PM 0.7 33.26 0.076 6.55 1.03 14.15
2/14/2021 9:00:00 PM 0.69 33.242 0.076 6.52 1.01 14.14
2/14/2021 9:15:00 PM 0.7 33.26 0.076 6.54 1.05 14.13
2/14/2021 9:30:00 PM 0.7 33.26 0.076 6.55 1.02 14.15
2/14/2021 9:45:00 PM 0.7 33.26 0.076 6.55 1.03 14.15
2/14/2021 10:00:00 PM 0.69 33.242 0.076 6.52 1.02 14.15
2/14/2021 10:15:00 PM 0.7 33.26 0.076 6.55 1.04 14.14
2/14/2021 10:30:00 PM 0.7 33.26 0.076 6.55 1.01 14.14
2/14/2021 10:45:00 PM 0.69 33.242 0.076 6.53 1.04 14.15
2/14/2021 11:00:00 PM 0.7 33.26 0.076 6.55 1.04 14.14
2/14/2021 11:15:00 PM 0.7 33.26 0.076 6.55 1.01 14.15
2/14/2021 11:30:00 PM 0.7 33.26 0.076 6.55 1.03 14.14
2/14/2021 11:45:00 PM 0.7 33.26 0.076 6.54 1.03 14.14
2/15/2021 12:00:00 AM 0.7 33.26 0.076 6.55 1.02 14.13
2/15/2021 12:15:00 AM 0.7 33.26 0.076 6.54 1.03 14.14
2/15/2021 12:30:00 AM 0.7 33.26 0.076 6.53 1.03 14.14
2/15/2021 12:45:00 AM 0.7 33.26 0.076 6.55 1.01 14.14
2/15/2021 1:00:00 AM 0.7 33.26 0.076 6.54 1.01 14.13
2/15/2021 1:15:00 AM 0.69 33.242 0.076 6.53 1.01 14.14
2/15/2021 1:30:00 AM 0.7 33.26 0.076 6.54 1.01 14.14
2/15/2021 1:45:00 AM 0.7 33.26 0.076 6.54 1.01 14.14
2/15/2021 2:00:00 AM 0.7 33.26 0.076 6.54 1 14.13
2/15/2021 2:15:00 AM 0.7 33.26 0.076 6.55 1.02 14.13
2/15/2021 2:30:00 AM 0.7 33.26 0.076 6.55 1 14.14
2/15/2021 2:45:00 AM 0.7 33.26 0.076 6.55 1.01 14.13
2/15/2021 3:00:00 AM 0.7 33.26 0.076 6.54 1.01 14.13
2/15/2021 3:15:00 AM 0.7 33.26 0.076 6.54 1.02 14.13
2/15/2021 3:30:00 AM 0.7 33.26 0.076 6.54 1 14.13
2/15/2021 3:45:00 AM 0.7 33.26 0.076 6.54 1.02 14.13
2/15/2021 4:00:00 AM 0.7 33.26 0.076 6.53 1 14.13
2/15/2021 4:15:00 AM 0.7 33.26 0.076 6.55 1 14.12
2/15/2021 4:30:00 AM 0.7 33.26 0.076 6.55 1 14.13
2/15/2021 4:45:00 AM 0.69 33.242 0.076 6.53 1 14.12
2/15/2021 5:00:00 AM 0.7 33.26 0.076 6.55 1.01 14.13
2/15/2021 5:15:00 AM 0.7 33.26 0.076 6.54 1 14.12
2/15/2021 5:30:00 AM 0.7 33.26 0.076 6.54 1.02 14.11
2/15/2021 5:45:00 AM 0.7 33.26 0.076 6.55 1.02 14.12
2/15/2021 6:00:00 AM 0.69 33.242 0.076 6.52 1.02 14.12
2/15/2021 6:15:00 AM 0.7 33.26 0.076 6.54 0.99 14.12
2/15/2021 6:30:00 AM 0.7 33.26 0.076 6.56 1 14.12
2/15/2021 6:45:00 AM 0.7 33.26 0.076 6.52 1 14.12
2/15/2021 7:00:00 AM 0.71 33.278 0.076 6.55 1.03 14.11
2/15/2021 7:15:00 AM 0.71 33.278 0.076 6.56 1.05 14.11
2/15/2021 7:30:00 AM 0.7 33.26 0.076 6.55 1.01 14.12
2/15/2021 7:45:00 AM 0.7 33.26 0.076 6.54 1.02 14.13
2/15/2021 8:00:00 AM 0.71 33.278 0.076 6.56 1.02 14.15
2/15/2021 8:15:00 AM 0.71 33.278 0.076 6.57 1.03 14.16
2/15/2021 8:30:00 AM 0.72 33.296 0.076 6.57 1.04 14.18
2/15/2021 8:45:00 AM 0.72 33.296 0.076 6.56 1.02 14.19
2/15/2021 9:00:00 AM 0.71 33.278 0.076 6.56 1 14.2
2/15/2021 9:15:00 AM 0.72 33.296 0.076 6.58 1 14.2
2/15/2021 9:30:00 AM 0.72 33.296 0.076 6.56 1.02 14.22
2/15/2021 9:45:00 AM 0.71 33.278 0.076 6.58 1.03 14.2
2/15/2021 10:00:00 AM 0.71 33.278 0.076 6.58 1.01 14.19
2/15/2021 10:15:00 AM 0.71 33.278 0.076 6.54 1.04 14.2
2/15/2021 10:30:00 AM 0.71 33.278 0.076 6.58 1.01 14.19
2/15/2021 10:45:00 AM 0.71 33.278 0.076 6.58 1.02 14.2
2/15/2021 11:00:00 AM 0.71 33.278 0.076 6.58 1.01 14.21
2/15/2021 11:15:00 AM 0.73 33.314 0.076 6.58 1.03 14.2
2/15/2021 11:30:00 AM 0.72 33.296 0.076 6.58 0.99 14.21
2/15/2021 11:45:00 AM 0.72 33.296 0.076 6.58 1 14.21
2/15/2021 12:00:00 PM 0.73 33.314 0.076 6.59 0.99 14.21
2/15/2021 12:15:00 PM 0.73 33.314 0.076 6.59 1.03 14.21
2/15/2021 12:30:00 PM 0.73 33.314 0.076 6.58 1.01 14.21
2/15/2021 12:45:00 PM 0.74 33.332 0.076 6.6 1.02 14.22
2/15/2021 1:00:00 PM 0.75 33.35 0.076 6.6 0.99 14.21
2/15/2021 1:15:00 PM 0.74 33.332 0.075 6.57 1.01 14.2
2/15/2021 1:30:00 PM 0.75 33.35 0.075 6.6 1.05 14.2
2/15/2021 1:45:00 PM 0.75 33.35 0.075 6.6 1.01 14.18
2/15/2021 2:00:00 PM 0.74 33.332 0.075 6.6 1.02 14.17
2/15/2021 2:15:00 PM 0.74 33.332 0.075 6.6 1 14.15
2/15/2021 2:30:00 PM 0.73 33.314 0.075 6.6 1 14.15
2/15/2021 2:45:00 PM 0.72 33.296 0.075 6.55 1 14.14
2/15/2021 3:00:00 PM 0.73 33.314 0.075 6.59 0.97 14.13
2/15/2021 3:15:00 PM 0.72 33.296 0.075 6.58 1 14.1
2/15/2021 3:30:00 PM 0.72 33.296 0.075 6.58 0.99 14.1
2/15/2021 3:45:00 PM 0.72 33.296 0.075 6.59 1.01 14.1
2/15/2021 4:00:00 PM 0.71 33.278 0.075 6.55 1.04 14.1
2/15/2021 4:15:00 PM 0.72 33.296 0.075 6.58 1.02 14.08
2/15/2021 4:30:00 PM 0.71 33.278 0.075 6.55 1 14.08
2/15/2021 4:45:00 PM 0.71 33.278 0.075 6.57 1.01 14.07
2/15/2021 5:00:00 PM 0.72 33.296 0.075 6.58 1.02 14.06
2/15/2021 5:15:00 PM 0.72 33.296 0.075 6.58 1.05 14.06
2/15/2021 5:30:00 PM 0.72 33.296 0.075 6.58 1.05 14.05
2/15/2021 5:45:00 PM 0.71 33.278 0.075 6.57 1.01 14.05
2/15/2021 6:00:00 PM 0.71 33.278 0.075 6.57 1.14 14.04
2/15/2021 6:15:00 PM 0.71 33.278 0.075 6.57 1.06 14.04
2/15/2021 6:30:00 PM 0.7 33.26 0.075 6.55 1.05 14.04
2/15/2021 6:45:00 PM 0.71 33.278 0.075 6.56 1.04 14.04
2/15/2021 7:00:00 PM 0.71 33.278 0.075 6.57 1.06 14.03
2/15/2021 7:15:00 PM 0.71 33.278 0.075 6.57 1.04 14.02
2/15/2021 7:30:00 PM 0.71 33.278 0.076 6.55 1.04 14.02
2/15/2021 7:45:00 PM 0.71 33.278 0.075 6.57 1.04 14.02
2/15/2021 8:00:00 PM 0.7 33.26 0.075 6.56 1.05 14.02
2/15/2021 8:15:00 PM 0.7 33.26 0.075 6.57 1.01 14.01
2/15/2021 8:30:00 PM 0.7 33.26 0.075 6.56 1.01 14.01
2/15/2021 8:45:00 PM 0.7 33.26 0.075 6.57 1.02 14.01
2/15/2021 9:00:00 PM 0.7 33.26 0.075 6.57 1.04 14.01
2/15/2021 9:15:00 PM 0.69 33.242 0.075 6.53 1.07 14.01
2/15/2021 9:30:00 PM 0.7 33.26 0.075 6.56 1 14
2/15/2021 9:45:00 PM 0.7 33.26 0.076 6.56 1.04 13.99
2/15/2021 10:00:00 PM 0.7 33.26 0.076 6.56 1.01 13.99
2/15/2021 10:15:00 PM 0.7 33.26 0.076 6.56 1.04 13.98
2/15/2021 10:30:00 PM 0.69 33.242 0.076 6.55 1.04 13.98
2/15/2021 10:45:00 PM 0.7 33.26 0.076 6.56 1.04 13.96
2/15/2021 11:00:00 PM 0.7 33.26 0.076 6.56 1.05 13.96
2/15/2021 11:15:00 PM 0.7 33.26 0.076 6.56 1 13.95
2/15/2021 11:30:00 PM 0.7 33.26 0.076 6.55 1.03 13.94
2/15/2021 11:45:00 PM 0.7 33.26 0.076 6.56 1.04 13.94
2/16/2021 12:00:00 AM 0.7 33.26 0.076 6.55 1.05 13.93
2/16/2021 12:15:00 AM 0.7 33.26 0.076 6.55 1.03 13.91
2/16/2021 12:30:00 AM 0.7 33.26 0.076 6.55 1.03 13.9
2/16/2021 12:45:00 AM 0.7 33.26 0.076 6.55 1.07 13.9
2/16/2021 1:00:00 AM 0.7 33.26 0.075 6.55 1.04 13.89
2/16/2021 1:15:00 AM 0.7 33.26 0.075 6.55 1.05 13.88
2/16/2021 1:30:00 AM 0.7 33.26 0.075 6.54 1.03 13.88
2/16/2021 1:45:00 AM 0.71 33.278 0.075 6.54 1.03 13.87
2/16/2021 2:00:00 AM 0.7 33.26 0.075 6.54 1.03 13.87
2/16/2021 2:15:00 AM 0.7 33.26 0.075 6.55 1.04 13.87
2/16/2021 2:30:00 AM 0.71 33.278 0.075 6.55 1.01 13.85
2/16/2021 2:45:00 AM 0.7 33.26 0.075 6.54 1.06 13.86
2/16/2021 3:00:00 AM 0.7 33.26 0.075 6.54 1.03 13.85
2/16/2021 3:15:00 AM 0.7 33.26 0.075 6.54 1.05 13.85
2/16/2021 3:30:00 AM 0.71 33.278 0.075 6.55 1.08 13.85
2/16/2021 3:45:00 AM 0.71 33.278 0.075 6.54 1.03 13.82
2/16/2021 4:00:00 AM 0.71 33.278 0.075 6.55 1.07 13.83
2/16/2021 4:15:00 AM 0.71 33.278 0.075 6.54 1.04 13.82
2/16/2021 4:30:00 AM 0.71 33.278 0.075 6.54 1.03 13.82
2/16/2021 4:45:00 AM 0.71 33.278 0.075 6.53 1.01 13.81
2/16/2021 5:00:00 AM 0.71 33.278 0.075 6.55 1.08 13.8
2/16/2021 5:15:00 AM 0.71 33.278 0.075 6.55 1.07 13.8
2/16/2021 5:30:00 AM 0.71 33.278 0.075 6.55 1.12 13.82
2/16/2021 5:45:00 AM 0.71 33.278 0.075 6.55 1.09 13.81
2/16/2021 6:00:00 AM 0.71 33.278 0.075 6.55 1.03 13.8
2/16/2021 6:15:00 AM 0.71 33.278 0.075 6.54 1.07 13.8
2/16/2021 6:30:00 AM 0.7 33.26 0.075 6.54 1.07 13.79
2/16/2021 6:45:00 AM 0.71 33.278 0.075 6.55 1.11 13.79
2/16/2021 7:00:00 AM 0.7 33.26 0.075 6.51 1.07 13.79
2/16/2021 7:15:00 AM 0.71 33.278 0.075 6.56 1.07 13.78
2/16/2021 7:30:00 AM 0.71 33.278 0.075 6.52 1.07 13.78
2/16/2021 7:45:00 AM 0.71 33.278 0.075 6.56 1.07 13.8
2/16/2021 8:00:00 AM 0.71 33.278 0.075 6.55 1.07 13.79
2/16/2021 8:15:00 AM 0.72 33.296 0.075 6.56 1.07 13.8
2/16/2021 8:30:00 AM 0.72 33.296 0.075 6.55 1.1 13.79
2/16/2021 8:45:00 AM 0.72 33.296 0.075 6.55 1.02 13.8
2/16/2021 9:00:00 AM 0.72 33.296 0.075 6.55 1.14 13.86
2/16/2021 9:15:00 AM 0.73 33.314 0.075 6.57 1.15 13.83
2/16/2021 9:30:00 AM 0.73 33.314 0.075 6.58 1.13 13.87
2/16/2021 9:45:00 AM 0.73 33.314 0.075 6.58 1.11 13.87
2/16/2021 10:00:00 AM 0.73 33.314 0.075 6.57 1.14 13.86
2/16/2021 10:15:00 AM 0.73 33.314 0.075 6.58 1.08 13.88
2/16/2021 10:30:00 AM 0.74 33.332 0.075 6.59 1.07 13.89
2/16/2021 10:45:00 AM 0.75 33.35 0.075 6.59 1.16 13.91
2/16/2021 11:00:00 AM 0.74 33.332 0.075 6.56 1.06 13.93
2/16/2021 11:15:00 AM 0.74 33.332 0.075 6.6 1.03 13.93
2/16/2021 11:30:00 AM 0.73 33.314 0.075 6.57 1.05 13.92
2/16/2021 11:45:00 AM 0.73 33.314 0.076 6.59 1.05 13.91
2/16/2021 12:00:00 PM 0.73 33.314 0.076 6.59 1.06 13.9
2/16/2021 12:15:00 PM 0.73 33.314 0.076 6.59 1.05 13.9
2/16/2021 12:30:00 PM 0.73 33.314 0.076 6.59 1.03 13.9
2/16/2021 12:45:00 PM 0.74 33.332 0.076 6.58 1.06 13.91
2/16/2021 1:00:00 PM 0.73 33.314 0.076 6.59 1.05 13.91
2/16/2021 1:15:00 PM 0.73 33.314 0.076 6.59 1.05 13.91
2/16/2021 1:30:00 PM 0.73 33.314 0.076 6.6 1.07 13.92
2/16/2021 1:45:00 PM 0.73 33.314 0.076 6.58 1.04 13.94
2/16/2021 2:00:00 PM 0.72 33.296 0.076 6.58 1.08 13.94
2/16/2021 2:15:00 PM 0.73 33.314 0.076 6.61 1.07 13.95
2/16/2021 2:30:00 PM 0.73 33.314 0.076 6.6 1.04 13.94
2/16/2021 2:45:00 PM 0.73 33.314 0.076 6.6 1.06 13.96
2/16/2021 3:00:00 PM 0.74 33.332 0.076 6.58 1.04 13.96
2/16/2021 3:15:00 PM 0.73 33.314 0.076 6.6 1.07 13.98
2/16/2021 3:30:00 PM 0.72 33.296 0.076 6.59 1.09 14
2/16/2021 3:45:00 PM 0.72 33.296 0.076 6.61 1.13 14
2/16/2021 4:00:00 PM 0.72 33.296 0.077 6.59 1.09 14
2/16/2021 4:15:00 PM 0.71 33.278 0.077 6.6 1.11 14
2/16/2021 4:30:00 PM 0.71 33.278 0.077 6.59 1.09 14.01
2/16/2021 4:45:00 PM 0.71 33.278 0.077 6.58 1.1 13.99
2/16/2021 5:00:00 PM 0.71 33.278 0.077 6.6 1.1 14
2/16/2021 5:15:00 PM 0.71 33.278 0.077 6.59 1.11 14
2/16/2021 5:30:00 PM 0.71 33.278 0.077 6.59 1.05 14
2/16/2021 5:45:00 PM 0.71 33.278 0.077 6.58 1.07 13.99
2/16/2021 6:00:00 PM 0.71 33.278 0.077 6.58 1.06 13.97
2/16/2021 6:15:00 PM 0.71 33.278 0.077 6.57 1.06 13.98
2/16/2021 6:30:00 PM 0.71 33.278 0.077 6.58 1.08 13.97
2/16/2021 6:45:00 PM 0.71 33.278 0.077 6.56 1.06 13.96
2/16/2021 7:00:00 PM 0.7 33.26 0.077 6.55 1.06 13.98
2/16/2021 7:15:00 PM 0.71 33.278 0.077 6.57 1.11 13.98
2/16/2021 7:30:00 PM 0.71 33.278 0.077 6.56 1.05 13.98
2/16/2021 7:45:00 PM 0.71 33.278 0.078 6.57 1.08 13.98
2/16/2021 8:00:00 PM 0.7 33.26 0.078 6.52 1.07 13.99
2/16/2021 8:15:00 PM 0.71 33.278 0.078 6.56 1.06 13.99
2/16/2021 8:30:00 PM 0.71 33.278 0.078 6.56 1.09 14
2/16/2021 8:45:00 PM 0.7 33.26 0.078 6.54 1.12 14
2/16/2021 9:00:00 PM 0.71 33.278 0.078 6.56 1.06 14.01
2/16/2021 9:15:00 PM 0.71 33.278 0.078 6.56 1.04 14
2/16/2021 9:30:00 PM 0.71 33.278 0.078 6.56 1.07 14.01
2/16/2021 9:45:00 PM 0.7 33.26 0.078 6.53 1.06 14.02
2/16/2021 10:00:00 PM 0.71 33.278 0.078 6.56 1.04 14.03
2/16/2021 10:15:00 PM 0.71 33.278 0.078 6.55 1.1 14.03
2/16/2021 10:30:00 PM 0.71 33.278 0.078 6.54 1.06 14.02
2/16/2021 10:45:00 PM 0.71 33.278 0.078 6.56 1.06 14.04
2/16/2021 11:00:00 PM 0.71 33.278 0.078 6.56 1.04 14.04
2/16/2021 11:15:00 PM 0.71 33.278 0.078 6.55 1.02 14.03
2/16/2021 11:30:00 PM 0.71 33.278 0.078 6.56 1.08 14.05
2/16/2021 11:45:00 PM 0.7 33.26 0.078 6.53 1.02 14.05
2/17/2021 12:00:00 AM 0.71 33.278 0.078 6.56 1.04 14.05
2/17/2021 12:15:00 AM 0.71 33.278 0.078 6.56 1.06 14.05
2/17/2021 12:30:00 AM 0.7 33.26 0.078 6.55 1.07 14.07
2/17/2021 12:45:00 AM 0.71 33.278 0.078 6.56 1.05 14.06
2/17/2021 1:00:00 AM 0.7 33.26 0.078 6.55 1.05 14.07
2/17/2021 1:15:00 AM 0.7 33.26 0.078 6.56 1.05 14.08
2/17/2021 1:30:00 AM 0.7 33.26 0.078 6.56 1.06 14.08
2/17/2021 1:45:00 AM 0.7 33.26 0.078 6.56 1.02 14.09
2/17/2021 2:00:00 AM 0.7 33.26 0.078 6.56 1.04 14.09
2/17/2021 2:15:00 AM 0.7 33.26 0.078 6.56 1.02 14.11
2/17/2021 2:30:00 AM 0.7 33.26 0.078 6.55 1.04 14.1
2/17/2021 2:45:00 AM 0.7 33.26 0.078 6.55 1.08 14.11
2/17/2021 3:00:00 AM 0.71 33.278 0.078 6.56 1.03 14.1
2/17/2021 3:15:00 AM 0.7 33.26 0.078 6.55 1.01 14.1
2/17/2021 3:30:00 AM 0.7 33.26 0.078 6.56 1.05 14.11
2/17/2021 3:45:00 AM 0.7 33.26 0.078 6.55 1.02 14.12
2/17/2021 4:00:00 AM 0.7 33.26 0.078 6.55 1.02 14.12
2/17/2021 4:15:00 AM 0.71 33.278 0.078 6.55 1.01 14.12
2/17/2021 4:30:00 AM 0.7 33.26 0.079 6.56 1.01 14.12
2/17/2021 4:45:00 AM 0.69 33.242 0.079 6.54 1.02 14.14
2/17/2021 5:00:00 AM 0.69 33.242 0.079 6.53 1.02 14.14
2/17/2021 5:15:00 AM 0.7 33.26 0.079 6.55 1.02 14.15
2/17/2021 5:30:00 AM 0.7 33.26 0.079 6.56 1.02 14.14
2/17/2021 5:45:00 AM 0.7 33.26 0.079 6.56 1.06 14.15
2/17/2021 6:00:00 AM 0.7 33.26 0.079 6.56 1.03 14.14
2/17/2021 6:15:00 AM 0.7 33.26 0.079 6.55 1.03 14.15
2/17/2021 6:30:00 AM 0.7 33.26 0.079 6.55 1 14.15
2/17/2021 6:45:00 AM 0.7 33.26 0.08 6.55 1.01 14.16
2/17/2021 7:00:00 AM 0.7 33.26 0.08 6.54 1 14.16
2/17/2021 7:15:00 AM 0.7 33.26 0.08 6.55 1.01 14.17
2/17/2021 7:30:00 AM 0.7 33.26 0.08 6.55 1.03 14.17
2/17/2021 7:45:00 AM 0.7 33.26 0.08 6.55 1.03 14.17
2/17/2021 8:00:00 AM 0.7 33.26 0.08 6.55 1.01 14.2
2/17/2021 8:15:00 AM 0.71 33.278 0.08 6.56 1.02 14.22
2/17/2021 8:30:00 AM 0.71 33.278 0.08 6.56 0.99 14.24
2/17/2021 8:45:00 AM 0.71 33.278 0.08 6.56 1.02 14.26
2/17/2021 9:00:00 AM 0.71 33.278 0.08 6.57 1.01 14.26
2/17/2021 9:15:00 AM 0.71 33.278 0.08 6.53 1.03 14.27
2/17/2021 9:30:00 AM 0.72 33.296 0.08 6.57 1 14.28
2/17/2021 9:45:00 AM 0.72 33.296 0.08 6.56 1 14.29
2/17/2021 10:00:00 AM 0.73 33.314 0.08 6.57 1 14.29
2/17/2021 10:15:00 AM 0.74 33.332 0.08 6.57 0.98 14.3
2/17/2021 10:30:00 AM 0.76 33.368 0.08 6.58 0.97 14.3
2/17/2021 10:45:00 AM 0.78 33.404 0.08 6.57 0.99 14.31
2/17/2021 11:00:00 AM 0.8 33.44 0.08 6.58 0.99 14.3
2/17/2021 11:15:00 AM 0.79 33.422 0.08 6.58 0.95 14.32
2/17/2021 11:30:00 AM 0.77 33.386 0.08 6.57 1 14.32
2/17/2021 11:45:00 AM 0.77 33.386 0.079 6.58 1.02 14.32
2/17/2021 12:00:00 PM 0.75 33.35 0.079 6.58 1.03 14.34
2/17/2021 12:15:00 PM 0.75 33.35 0.078 6.58 1.04 14.33
2/17/2021 12:30:00 PM 0.73 33.314 0.078 6.54 1.04 14.33
2/17/2021 12:45:00 PM 0.74 33.332 0.078 6.57 1.06 14.32
2/17/2021 1:00:00 PM 0.75 33.35 0.077 6.56 1.07 14.32
2/17/2021 1:15:00 PM 0.74 33.332 0.077 6.55 1.08 14.3
2/17/2021 1:30:00 PM 0.75 33.35 0.077 6.55 1.05 14.28
2/17/2021 1:45:00 PM 0.73 33.314 0.077 6.55 1.09 14.29
2/17/2021 2:00:00 PM 0.73 33.314 0.077 6.55 1.15 14.28
2/17/2021 2:15:00 PM 0.75 33.35 0.077 6.56 1.16 14.27
2/17/2021 2:30:00 PM 0.75 33.35 0.077 6.56 1.12 14.26
2/17/2021 2:45:00 PM 0.74 33.332 0.077 6.56 1.08 14.26
2/17/2021 3:00:00 PM 0.74 33.332 0.077 6.57 1.13 14.25
2/17/2021 3:15:00 PM 0.72 33.296 0.077 6.57 1.14 14.25
2/17/2021 3:30:00 PM 0.72 33.296 0.077 6.55 1.08 14.24
2/17/2021 3:45:00 PM 0.72 33.296 0.077 6.57 1.1 14.23
2/17/2021 4:00:00 PM 0.71 33.278 0.077 6.56 1.07 14.23
2/17/2021 4:15:00 PM 0.71 33.278 0.077 6.54 1.12 14.23
2/17/2021 4:30:00 PM 0.72 33.296 0.077 6.57 1.1 14.22
2/17/2021 4:45:00 PM 0.71 33.278 0.078 6.57 1.08 14.22
2/17/2021 5:00:00 PM 0.71 33.278 0.078 6.55 1.09 14.2
2/17/2021 5:15:00 PM 0.71 33.278 0.078 6.57 1.06 14.2
2/17/2021 5:30:00 PM 0.71 33.278 0.078 6.56 1.05 14.2
2/17/2021 5:45:00 PM 0.71 33.278 0.078 6.56 1.09 14.19
2/17/2021 6:00:00 PM 0.7 33.26 0.078 6.57 1.1 14.19
2/17/2021 6:15:00 PM 0.7 33.26 0.078 6.54 1.09 14.19
2/17/2021 6:30:00 PM 0.71 33.278 0.079 6.56 1.08 14.18
2/17/2021 6:45:00 PM 0.7 33.26 0.079 6.56 1.05 14.17
2/17/2021 7:00:00 PM 0.7 33.26 0.079 6.56 1.1 14.18
2/17/2021 7:15:00 PM 0.7 33.26 0.079 6.56 1.08 14.18
2/17/2021 7:30:00 PM 0.7 33.26 0.079 6.54 1.07 14.17
2/17/2021 7:45:00 PM 0.71 33.278 0.079 6.55 1.06 14.17
2/17/2021 8:00:00 PM 0.71 33.278 0.079 6.55 1.12 14.17
2/17/2021 8:15:00 PM 0.71 33.278 0.079 6.55 1.06 14.19
2/17/2021 8:30:00 PM 0.71 33.278 0.079 6.55 1.06 14.18
2/17/2021 8:45:00 PM 0.7 33.26 0.079 6.54 1.03 14.17
2/17/2021 9:00:00 PM 0.7 33.26 0.079 6.54 1.05 14.17
2/17/2021 9:15:00 PM 0.7 33.26 0.079 6.52 1.08 14.19
2/17/2021 9:30:00 PM 0.71 33.278 0.079 6.53 1.02 14.16
2/17/2021 9:45:00 PM 0.71 33.278 0.078 6.54 1.07 14.19
2/17/2021 10:00:00 PM 0.7 33.26 0.078 6.54 1.05 14.18
2/17/2021 10:15:00 PM 0.7 33.26 0.078 6.54 1.06 14.17
2/17/2021 10:30:00 PM 0.7 33.26 0.078 6.54 1.05 14.17
2/17/2021 10:45:00 PM 0.7 33.26 0.078 6.53 1.01 14.17
2/17/2021 11:00:00 PM 0.7 33.26 0.078 6.53 1.04 14.17
2/17/2021 11:15:00 PM 0.71 33.278 0.078 6.55 1.02 14.18
2/17/2021 11:30:00 PM 0.7 33.26 0.077 6.54 1.04 14.18
2/17/2021 11:45:00 PM 0.71 33.278 0.078 6.53 1.06 14.18
2/18/2021 12:00:00 AM 0.7 33.26 0.078 6.54 1.04 14.17
2/18/2021 12:15:00 AM 0.7 33.26 0.077 6.55 1 14.18
2/18/2021 12:30:00 AM 0.69 33.242 0.077 6.5 1.05 14.17
2/18/2021 12:45:00 AM 0.7 33.26 0.077 6.55 0.97 14.18
2/18/2021 1:00:00 AM 0.7 33.26 0.078 6.54 1.06 14.17
2/18/2021 1:15:00 AM 0.7 33.26 0.078 6.54 1.04 14.19
2/18/2021 1:30:00 AM 0.7 33.26 0.077 6.54 1 14.18
2/18/2021 1:45:00 AM 0.7 33.26 0.077 6.54 1.04 14.18
2/18/2021 2:00:00 AM 0.71 33.278 0.078 6.54 1.03 14.18
2/18/2021 2:15:00 AM 0.7 33.26 0.078 6.53 1.03 14.19
2/18/2021 2:30:00 AM 0.71 33.278 0.078 6.54 1.02 14.18
2/18/2021 2:45:00 AM 0.7 33.26 0.078 6.52 1.01 14.18
2/18/2021 3:00:00 AM 0.7 33.26 0.078 6.54 1.06 14.18
2/18/2021 3:15:00 AM 0.7 33.26 0.077 6.55 1.03 14.19
2/18/2021 3:30:00 AM 0.7 33.26 0.078 6.52 1 14.17
2/18/2021 3:45:00 AM 0.7 33.26 0.078 6.55 1.02 14.17
2/18/2021 4:00:00 AM 0.7 33.26 0.078 6.54 1.01 14.17
2/18/2021 4:15:00 AM 0.71 33.278 0.078 6.54 1.01 14.17
2/18/2021 4:30:00 AM 0.7 33.26 0.078 6.54 1 14.17
2/18/2021 4:45:00 AM 0.7 33.26 0.077 6.55 0.99 14.17
2/18/2021 5:00:00 AM 0.7 33.26 0.077 6.51 1 14.17
2/18/2021 5:15:00 AM 0.71 33.278 0.077 6.54 0.99 14.18
2/18/2021 5:30:00 AM 0.7 33.26 0.078 6.54 1.01 14.17
2/18/2021 5:45:00 AM 0.71 33.278 0.078 6.54 1.02 14.16
2/18/2021 6:00:00 AM 0.7 33.26 0.077 6.54 1.03 14.17
2/18/2021 6:15:00 AM 0.7 33.26 0.077 6.54 0.99 14.16
2/18/2021 6:30:00 AM 0.7 33.26 0.078 6.54 0.98 14.17
2/18/2021 6:45:00 AM 0.7 33.26 0.077 6.54 0.98 14.16
2/18/2021 7:00:00 AM 0.71 33.278 0.078 6.54 1.03 14.15
2/18/2021 7:15:00 AM 0.7 33.26 0.077 6.54 1 14.17
2/18/2021 7:30:00 AM 0.7 33.26 0.077 6.55 1.01 14.17
2/18/2021 7:45:00 AM 0.69 33.242 0.077 6.5 1 14.18
2/18/2021 8:00:00 AM 0.71 33.278 0.077 6.54 1 14.17
2/18/2021 8:15:00 AM 0.71 33.278 0.078 6.55 0.99 14.17
2/18/2021 8:30:00 AM 0.71 33.278 0.077 6.54 0.99 14.18
2/18/2021 8:45:00 AM 0.71 33.278 0.077 6.54 1 14.2
2/18/2021 9:00:00 AM 0.71 33.278 0.078 6.56 1.02 14.19
2/18/2021 9:15:00 AM 0.71 33.278 0.077 6.56 0.99 14.21
2/18/2021 9:30:00 AM 0.72 33.296 0.077 6.56 1.01 14.22
2/18/2021 9:45:00 AM 0.71 33.278 0.077 6.56 1.01 14.22
2/18/2021 10:00:00 AM 0.72 33.296 0.077 6.57 1.02 14.23
2/18/2021 10:15:00 AM 0.72 33.296 0.077 6.57 1 14.24
2/18/2021 10:30:00 AM 0.72 33.296 0.077 6.57 0.98 14.23
2/18/2021 10:45:00 AM 0.72 33.296 0.077 6.55 1 14.23
2/18/2021 11:00:00 AM 0.72 33.296 0.077 6.57 0.98 14.23
2/18/2021 11:15:00 AM 0.72 33.296 0.077 6.58 1.01 14.26
2/18/2021 11:30:00 AM 0.72 33.296 0.077 6.58 1.04 14.25
2/18/2021 11:45:00 AM 0.72 33.296 0.077 6.57 0.98 14.25
2/18/2021 12:00:00 PM 0.73 33.314 0.077 6.58 0.99 14.25
2/18/2021 12:15:00 PM 0.72 33.296 0.077 6.58 0.99 14.26
2/18/2021 12:30:00 PM 0.72 33.296 0.077 6.58 0.94 14.25
2/18/2021 12:45:00 PM 0.72 33.296 0.077 6.58 0.99 14.25
2/18/2021 1:00:00 PM 0.72 33.296 0.077 6.58 0.99 14.25
2/18/2021 1:15:00 PM 0.71 33.278 0.077 6.53 1 14.25
2/18/2021 1:30:00 PM 0.72 33.296 0.077 6.58 1 14.25
2/18/2021 1:45:00 PM 0.72 33.296 0.077 6.57 1 14.25
2/18/2021 2:00:00 PM 0.73 33.314 0.077 6.58 1.01 14.24
2/18/2021 2:15:00 PM 0.72 33.296 0.077 6.59 1 14.24
2/18/2021 2:30:00 PM 0.72 33.296 0.077 6.58 1.01 14.24
2/18/2021 2:45:00 PM 0.7 33.26 0.077 6.53 0.99 14.23
2/18/2021 3:00:00 PM 0.72 33.296 0.077 6.58 1.01 14.22
2/18/2021 3:15:00 PM 0.72 33.296 0.077 6.57 1.01 14.22
2/18/2021 3:30:00 PM 0.71 33.278 0.077 6.57 0.99 14.22
2/18/2021 3:45:00 PM 0.71 33.278 0.077 6.58 0.97 14.22
2/18/2021 4:00:00 PM 0.71 33.278 0.077 6.57 1.01 14.21
2/18/2021 4:15:00 PM 0.71 33.278 0.077 6.57 0.99 14.21
2/18/2021 4:30:00 PM 0.72 33.296 0.077 6.57 1.13 14.19
2/18/2021 4:45:00 PM 0.72 33.296 0.077 6.57 0.99 14.19
2/18/2021 5:00:00 PM 0.71 33.278 0.077 6.57 0.99 14.19
2/18/2021 5:15:00 PM 0.71 33.278 0.077 6.57 1.01 14.17
2/18/2021 5:30:00 PM 0.71 33.278 0.077 6.57 0.99 14.15
2/18/2021 5:45:00 PM 0.71 33.278 0.077 6.56 0.99 14.16
2/18/2021 6:00:00 PM 0.71 33.278 0.077 6.56 1.04 14.14
2/18/2021 6:15:00 PM 0.71 33.278 0.077 6.56 1.02 14.12
2/18/2021 6:30:00 PM 0.71 33.278 0.077 6.55 0.99 14.12
2/18/2021 6:45:00 PM 0.71 33.278 0.077 6.55 1.01 14.1
2/18/2021 7:00:00 PM 0.71 33.278 0.077 6.55 1 14.12
2/18/2021 7:15:00 PM 0.71 33.278 0.078 6.54 0.99 14.1
2/18/2021 7:30:00 PM 0.71 33.278 0.077 6.54 1 14.1
2/18/2021 7:45:00 PM 0.71 33.278 0.077 6.56 1.01 14.11
2/18/2021 8:00:00 PM 0.7 33.26 0.077 6.51 1.09 14.12
2/18/2021 8:15:00 PM 0.71 33.278 0.077 6.54 1.03 14.11
2/18/2021 8:30:00 PM 0.7 33.26 0.077 6.54 1.03 14.12
2/18/2021 8:45:00 PM 0.7 33.26 0.077 6.54 1.02 14.1
2/18/2021 9:00:00 PM 0.7 33.26 0.078 6.54 1 14.12
2/18/2021 9:15:00 PM 0.71 33.278 0.078 6.54 0.97 14.1
2/18/2021 9:30:00 PM 0.7 33.26 0.078 6.54 1.02 14.11
2/18/2021 9:45:00 PM 0.7 33.26 0.078 6.54 1.04 14.12
2/18/2021 10:00:00 PM 0.7 33.26 0.078 6.55 0.99 14.09
2/18/2021 10:15:00 PM 0.71 33.278 0.078 6.54 1 14.1
2/18/2021 10:30:00 PM 0.7 33.26 0.078 6.53 1 14.13
2/18/2021 10:45:00 PM 0.71 33.278 0.078 6.55 0.99 14.11
2/18/2021 11:00:00 PM 0.71 33.278 0.078 6.55 1.01 14.11
2/18/2021 11:15:00 PM 0.7 33.26 0.078 6.55 0.98 14.12
2/18/2021 11:30:00 PM 0.7 33.26 0.078 6.51 0.98 14.11
2/18/2021 11:45:00 PM 0.7 33.26 0.078 6.54 1.01 14.12
2/19/2021 12:00:00 AM 0.71 33.278 0.078 6.55 1.03 14.11
2/19/2021 12:15:00 AM 0.7 33.26 0.078 6.55 0.98 14.12
2/19/2021 12:30:00 AM 0.7 33.26 0.078 6.51 0.98 14.11
2/19/2021 12:45:00 AM 0.7 33.26 0.078 6.54 0.99 14.1
2/19/2021 1:00:00 AM 0.7 33.26 0.078 6.55 1.01 14.11
2/19/2021 1:15:00 AM 0.71 33.278 0.078 6.55 1 14.1
2/19/2021 1:30:00 AM 0.7 33.26 0.078 6.5 0.98 14.11
2/19/2021 1:45:00 AM 0.71 33.278 0.078 6.54 0.98 14.1
2/19/2021 2:00:00 AM 0.71 33.278 0.078 6.54 0.99 14.1
2/19/2021 2:15:00 AM 0.71 33.278 0.078 6.54 1.01 14.09
2/19/2021 2:30:00 AM 0.71 33.278 0.078 6.54 0.97 14.09
2/19/2021 2:45:00 AM 0.7 33.26 0.078 6.54 1.02 14.1
2/19/2021 3:00:00 AM 0.7 33.26 0.078 6.55 0.98 14.1
2/19/2021 3:15:00 AM 0.71 33.278 0.078 6.54 0.97 14.08
2/19/2021 3:30:00 AM 0.7 33.26 0.078 6.52 0.99 14.1
2/19/2021 3:45:00 AM 0.71 33.278 0.078 6.55 0.97 14.08
2/19/2021 4:00:00 AM 0.7 33.26 0.078 6.55 1 14.08
2/19/2021 4:15:00 AM 0.71 33.278 0.078 6.55 1 14.07
2/19/2021 4:30:00 AM 0.71 33.278 0.078 6.56 1.01 14.1
2/19/2021 4:45:00 AM 0.71 33.278 0.078 6.55 1 14.06
2/19/2021 5:00:00 AM 0.71 33.278 0.078 6.55 0.97 14.08
2/19/2021 5:15:00 AM 0.7 33.26 0.078 6.55 1.05 14.1
2/19/2021 5:30:00 AM 0.7 33.26 0.078 6.53 1.01 14.07
2/19/2021 5:45:00 AM 0.71 33.278 0.078 6.55 0.99 14.07
2/19/2021 6:00:00 AM 0.7 33.26 0.078 6.53 0.99 14.07
2/19/2021 6:15:00 AM 0.71 33.278 0.078 6.54 1.03 14.07
2/19/2021 6:30:00 AM 0.71 33.278 0.079 6.55 0.99 14.06
2/19/2021 6:45:00 AM 0.71 33.278 0.078 6.56 1.03 14.08
2/19/2021 7:00:00 AM 0.7 33.26 0.078 6.51 1 14.09
2/19/2021 7:15:00 AM 0.71 33.278 0.078 6.54 0.99 14.08
2/19/2021 7:30:00 AM 0.71 33.278 0.078 6.56 1.01 14.08
2/19/2021 7:45:00 AM 0.71 33.278 0.078 6.55 1.02 14.09
2/19/2021 8:00:00 AM 0.71 33.278 0.078 6.55 1.02 14.09
2/19/2021 8:15:00 AM 0.7 33.26 0.078 6.54 1.02 14.1
2/19/2021 8:30:00 AM 0.72 33.296 0.079 6.56 0.98 14.1
2/19/2021 8:45:00 AM 0.72 33.296 0.079 6.57 0.99 14.11
2/19/2021 9:00:00 AM 0.72 33.296 0.078 6.57 0.99 14.13
2/19/2021 9:15:00 AM 0.71 33.278 0.078 6.55 0.99 14.16
2/19/2021 9:30:00 AM 0.72 33.296 0.078 6.57 1 14.14
2/19/2021 9:45:00 AM 0.71 33.278 0.078 6.57 1.01 14.16
2/19/2021 10:00:00 AM 0.72 33.296 0.078 6.57 1 14.15
2/19/2021 10:15:00 AM 0.72 33.296 0.078 6.57 1.01 14.15
2/19/2021 10:30:00 AM 0.72 33.296 0.078 6.57 0.98 14.15
2/19/2021 10:45:00 AM 0.72 33.296 0.078 6.57 1.01 14.14
2/19/2021 11:00:00 AM 0.72 33.296 0.078 6.58 1.01 14.16
2/19/2021 11:15:00 AM 0.73 33.314 0.078 6.58 0.99 14.16
2/19/2021 11:30:00 AM 0.73 33.314 0.078 6.59 0.98 14.14
2/19/2021 11:45:00 AM 0.73 33.314 0.078 6.57 1 14.15
2/19/2021 12:00:00 PM 0.73 33.314 0.078 6.59 0.98 14.13
2/19/2021 12:15:00 PM 0.73 33.314 0.078 6.59 1 14.13
2/19/2021 12:30:00 PM 0.72 33.296 0.078 6.59 1 14.12
2/19/2021 12:45:00 PM 0.73 33.314 0.078 6.59 1 14.1
2/19/2021 1:00:00 PM 0.72 33.296 0.078 6.56 1 14.11
2/19/2021 1:15:00 PM 0.72 33.296 0.078 6.58 0.99 14.09
2/19/2021 1:30:00 PM 0.73 33.314 0.078 6.58 0.99 14.09
2/19/2021 1:45:00 PM 0.73 33.314 0.078 6.59 0.98 14.08
2/19/2021 2:00:00 PM 0.72 33.296 0.078 6.56 1 14.1
2/19/2021 2:15:00 PM 0.73 33.314 0.078 6.59 0.97 14.11
2/19/2021 2:30:00 PM 0.72 33.296 0.078 6.58 1 14.1
2/19/2021 2:45:00 PM 0.73 33.314 0.078 6.6 0.99 14.09
2/19/2021 3:00:00 PM 0.72 33.296 0.078 6.59 1.01 14.09
2/19/2021 3:15:00 PM 0.73 33.314 0.078 6.6 1 14.08
2/19/2021 3:30:00 PM 0.72 33.296 0.078 6.59 1.01 14.07
2/19/2021 3:45:00 PM 0.72 33.296 0.078 6.6 1.02 14.07
2/19/2021 4:00:00 PM 0.72 33.296 0.078 6.6 1.02 14.07
2/19/2021 4:15:00 PM 0.71 33.278 0.078 6.56 0.97 14.05
2/19/2021 4:30:00 PM 0.72 33.296 0.078 6.58 1.01 14.05
2/19/2021 4:45:00 PM 0.72 33.296 0.078 6.59 1.05 14.05
2/19/2021 5:00:00 PM 0.72 33.296 0.078 6.59 1.03 14.05
2/19/2021 5:15:00 PM 0.71 33.278 0.078 6.57 0.98 14.06
2/19/2021 5:30:00 PM 0.71 33.278 0.078 6.58 1.01 14.05
2/19/2021 5:45:00 PM 0.71 33.278 0.078 6.59 1 14.05
2/19/2021 6:00:00 PM 0.71 33.278 0.078 6.59 1 14.05
2/19/2021 6:15:00 PM 0.71 33.278 0.078 6.59 1.02 14.04
2/19/2021 6:30:00 PM 0.71 33.278 0.078 6.56 1.02 14.05
2/19/2021 6:45:00 PM 0.71 33.278 0.078 6.57 1.03 14.05
2/19/2021 7:00:00 PM 0.71 33.278 0.078 6.58 1.02 14.05
2/19/2021 7:15:00 PM 0.71 33.278 0.078 6.58 1.01 14.04
2/19/2021 7:30:00 PM 0.71 33.278 0.078 6.58 0.99 14.05
2/19/2021 7:45:00 PM 0.71 33.278 0.078 6.58 1.02 14.05
2/19/2021 8:00:00 PM 0.7 33.26 0.078 6.53 1.02 14.06
2/19/2021 8:15:00 PM 0.71 33.278 0.078 6.57 1 14.06
2/19/2021 8:30:00 PM 0.71 33.278 0.078 6.58 0.98 14.05
2/19/2021 8:45:00 PM 0.7 33.26 0.078 6.54 1.02 14.06
2/19/2021 9:00:00 PM 0.71 33.278 0.078 6.58 1.02 14.07
2/19/2021 9:15:00 PM 0.71 33.278 0.078 6.58 1.03 14.07
2/19/2021 9:30:00 PM 0.71 33.278 0.078 6.58 1.01 14.07
2/19/2021 9:45:00 PM 0.71 33.278 0.078 6.58 1 14.07
2/19/2021 10:00:00 PM 0.7 33.26 0.078 6.55 1 14.08
2/19/2021 10:15:00 PM 0.71 33.278 0.078 6.58 1.03 14.09
2/19/2021 10:30:00 PM 0.7 33.26 0.078 6.56 1.04 14.09
2/19/2021 10:45:00 PM 0.7 33.26 0.078 6.57 1.02 14.09
2/19/2021 11:00:00 PM 0.7 33.26 0.078 6.58 0.98 14.1
2/19/2021 11:15:00 PM 0.7 33.26 0.078 6.58 1 14.1
2/19/2021 11:30:00 PM 0.7 33.26 0.079 6.57 1.04 14.1
2/19/2021 11:45:00 PM 0.7 33.26 0.079 6.57 0.99 14.11
2/20/2021 12:00:00 AM 0.69 33.242 0.079 6.57 1.02 14.12
2/20/2021 12:15:00 AM 0.7 33.26 0.079 6.58 1.01 14.11
2/20/2021 12:30:00 AM 0.69 33.242 0.079 6.56 1.03 14.11
2/20/2021 12:45:00 AM 0.69 33.242 0.079 6.58 1.01 14.12
2/20/2021 1:00:00 AM 0.7 33.26 0.079 6.58 0.98 14.12
2/20/2021 1:15:00 AM 0.69 33.242 0.079 6.52 0.99 14.12
2/20/2021 1:30:00 AM 0.69 33.242 0.079 6.56 1 14.13
2/20/2021 1:45:00 AM 0.69 33.242 0.079 6.56 1.01 14.13
2/20/2021 2:00:00 AM 0.69 33.242 0.079 6.58 0.99 14.13
2/20/2021 2:15:00 AM 0.7 33.26 0.079 6.58 0.98 14.13
2/20/2021 2:30:00 AM 0.69 33.242 0.079 6.53 1 14.14
2/20/2021 2:45:00 AM 0.69 33.242 0.079 6.56 1.01 14.13
2/20/2021 3:00:00 AM 0.69 33.242 0.079 6.58 1 14.14
2/20/2021 3:15:00 AM 0.7 33.26 0.079 6.57 1.03 14.14
2/20/2021 3:30:00 AM 0.69 33.242 0.079 6.58 1.01 14.13
2/20/2021 3:45:00 AM 0.7 33.26 0.079 6.57 1.03 14.13
2/20/2021 4:00:00 AM 0.7 33.26 0.079 6.57 1.02 14.12
2/20/2021 4:15:00 AM 0.69 33.242 0.079 6.55 1 14.14
2/20/2021 4:30:00 AM 0.69 33.242 0.079 6.57 0.98 14.13
2/20/2021 4:45:00 AM 0.7 33.26 0.079 6.57 1 14.12
2/20/2021 5:00:00 AM 0.68 33.224 0.079 6.53 0.98 14.15
2/20/2021 5:15:00 AM 0.7 33.26 0.079 6.57 0.97 14.12
2/20/2021 5:30:00 AM 0.7 33.26 0.079 6.57 0.99 14.12
2/20/2021 5:45:00 AM 0.7 33.26 0.079 6.57 1.02 14.12
2/20/2021 6:00:00 AM 0.69 33.242 0.079 6.54 0.96 14.14
2/20/2021 6:15:00 AM 0.69 33.242 0.079 6.56 0.99 14.13
2/20/2021 6:30:00 AM 0.69 33.242 0.079 6.56 1.02 14.13
2/20/2021 6:45:00 AM 0.7 33.26 0.079 6.57 0.99 14.13
2/20/2021 7:00:00 AM 0.68 33.224 0.079 6.52 0.97 14.14
2/20/2021 7:15:00 AM 0.7 33.26 0.079 6.56 0.98 14.13
2/20/2021 7:30:00 AM 0.7 33.26 0.079 6.57 1 14.13
2/20/2021 7:45:00 AM 0.7 33.26 0.079 6.57 1 14.15
2/20/2021 8:00:00 AM 0.7 33.26 0.079 6.55 1.02 14.16
2/20/2021 8:15:00 AM 0.7 33.26 0.079 6.57 1.01 14.17
2/20/2021 8:30:00 AM 0.7 33.26 0.079 6.58 1.02 14.19
2/20/2021 8:45:00 AM 0.71 33.278 0.079 6.58 1.02 14.19
2/20/2021 9:00:00 AM 0.7 33.26 0.079 6.55 0.99 14.22
2/20/2021 9:15:00 AM 0.71 33.278 0.079 6.58 1.02 14.22
2/20/2021 9:30:00 AM 0.72 33.296 0.079 6.58 1 14.22
2/20/2021 9:45:00 AM 0.71 33.278 0.079 6.59 0.98 14.25
2/20/2021 10:00:00 AM 0.71 33.278 0.079 6.59 1.02 14.24
2/20/2021 10:15:00 AM 0.72 33.296 0.079 6.58 0.97 14.25
2/20/2021 10:30:00 AM 0.72 33.296 0.079 6.61 0.99 14.25
2/20/2021 10:45:00 AM 0.72 33.296 0.079 6.6 0.99 14.26
2/20/2021 11:00:00 AM 0.73 33.314 0.079 6.6 1 14.26
2/20/2021 11:15:00 AM 0.72 33.296 0.079 6.59 1.01 14.25
2/20/2021 11:30:00 AM 0.73 33.314 0.079 6.6 1.01 14.25
2/20/2021 11:45:00 AM 0.74 33.332 0.079 6.6 1.02 14.24
2/20/2021 12:00:00 PM 0.73 33.314 0.078 6.61 1 14.26
2/20/2021 12:15:00 PM 0.73 33.314 0.078 6.61 0.99 14.25
2/20/2021 12:30:00 PM 0.73 33.314 0.078 6.59 1.02 14.26
2/20/2021 12:45:00 PM 0.73 33.314 0.078 6.61 1 14.25
2/20/2021 1:00:00 PM 0.73 33.314 0.078 6.61 0.98 14.25
2/20/2021 1:15:00 PM 0.73 33.314 0.078 6.61 1.02 14.23
2/20/2021 1:30:00 PM 0.74 33.332 0.078 6.61 0.99 14.23
2/20/2021 1:45:00 PM 0.73 33.314 0.078 6.59 0.99 14.23
2/20/2021 2:00:00 PM 0.73 33.314 0.078 6.61 0.99 14.21
2/20/2021 2:15:00 PM 0.73 33.314 0.078 6.61 1 14.22
2/20/2021 2:30:00 PM 0.74 33.332 0.078 6.61 1.01 14.2
2/20/2021 2:45:00 PM 0.74 33.332 0.078 6.62 1.02 14.2
2/20/2021 3:00:00 PM 0.74 33.332 0.078 6.62 1.01 14.19
2/20/2021 3:15:00 PM 0.74 33.332 0.078 6.6 0.99 14.18
2/20/2021 3:30:00 PM 0.74 33.332 0.078 6.6 1 14.18
2/20/2021 3:45:00 PM 0.73 33.314 0.078 6.6 0.99 14.18
2/20/2021 4:00:00 PM 0.74 33.332 0.078 6.62 1.01 14.17
2/20/2021 4:15:00 PM 0.73 33.314 0.078 6.62 0.97 14.17
2/20/2021 4:30:00 PM 0.73 33.314 0.078 6.61 1.04 14.16
2/20/2021 4:45:00 PM 0.73 33.314 0.078 6.6 1.01 14.16
2/20/2021 5:00:00 PM 0.73 33.314 0.078 6.6 1 14.15
2/20/2021 5:15:00 PM 0.72 33.296 0.078 6.6 0.97 14.15
2/20/2021 5:30:00 PM 0.72 33.296 0.078 6.6 1 14.14
2/20/2021 5:45:00 PM 0.71 33.278 0.078 6.57 0.99 14.13
2/20/2021 6:00:00 PM 0.71 33.278 0.078 6.6 1 14.14
2/20/2021 6:15:00 PM 0.71 33.278 0.078 6.57 1.04 14.12
2/20/2021 6:30:00 PM 0.72 33.296 0.078 6.59 0.98 14.13
2/20/2021 6:45:00 PM 0.71 33.278 0.078 6.59 1.01 14.14
2/20/2021 7:00:00 PM 0.71 33.278 0.078 6.57 1.01 14.15
2/20/2021 7:15:00 PM 0.7 33.26 0.078 6.55 1.01 14.15
2/20/2021 7:30:00 PM 0.7 33.26 0.079 6.57 0.99 14.16
2/20/2021 7:45:00 PM 0.7 33.26 0.079 6.58 1.03 14.16
2/20/2021 8:00:00 PM 0.7 33.26 0.079 6.57 1.01 14.17
2/20/2021 8:15:00 PM 0.7 33.26 0.079 6.57 0.99 14.18
2/20/2021 8:30:00 PM 0.7 33.26 0.079 6.57 1 14.18
2/20/2021 8:45:00 PM 0.7 33.26 0.079 6.57 0.99 14.19
2/20/2021 9:00:00 PM 0.7 33.26 0.079 6.57 1 14.19
2/20/2021 9:15:00 PM 0.69 33.242 0.079 6.57 1 14.2
2/20/2021 9:30:00 PM 0.7 33.26 0.079 6.56 0.99 14.2
2/20/2021 9:45:00 PM 0.7 33.26 0.079 6.56 1.01 14.21
2/20/2021 10:00:00 PM 0.7 33.26 0.079 6.57 1 14.22
2/20/2021 10:15:00 PM 0.69 33.242 0.079 6.55 1.03 14.23
2/20/2021 10:30:00 PM 0.7 33.26 0.079 6.57 0.99 14.22
2/20/2021 10:45:00 PM 0.69 33.242 0.079 6.56 1 14.22
2/20/2021 11:00:00 PM 0.7 33.26 0.079 6.57 0.99 14.23
2/20/2021 11:15:00 PM 0.69 33.242 0.079 6.56 1 14.22
2/20/2021 11:30:00 PM 0.7 33.26 0.079 6.57 0.98 14.23
2/20/2021 11:45:00 PM 0.69 33.242 0.079 6.56 0.99 14.23
2/21/2021 12:00:00 AM 0.7 33.26 0.079 6.57 1.03 14.23
2/21/2021 12:15:00 AM 0.69 33.242 0.079 6.56 0.96 14.23
2/21/2021 12:30:00 AM 0.69 33.242 0.079 6.57 1 14.24
2/21/2021 12:45:00 AM 0.7 33.26 0.079 6.56 1.01 14.22
2/21/2021 1:00:00 AM 0.69 33.242 0.079 6.57 1 14.24
2/21/2021 1:15:00 AM 0.7 33.26 0.079 6.56 0.98 14.22
2/21/2021 1:30:00 AM 0.69 33.242 0.08 6.56 0.99 14.22
2/21/2021 1:45:00 AM 0.7 33.26 0.079 6.56 1 14.23
2/21/2021 2:00:00 AM 0.68 33.224 0.08 6.53 0.97 14.23
2/21/2021 2:15:00 AM 0.69 33.242 0.079 6.56 1 14.25
2/21/2021 2:30:00 AM 0.7 33.26 0.08 6.56 0.99 14.22
2/21/2021 2:45:00 AM 0.69 33.242 0.08 6.56 0.98 14.24
2/21/2021 3:00:00 AM 0.69 33.242 0.08 6.55 0.98 14.24
2/21/2021 3:15:00 AM 0.69 33.242 0.08 6.55 0.97 14.25
2/21/2021 3:30:00 AM 0.69 33.242 0.08 6.55 0.97 14.25
2/21/2021 3:45:00 AM 0.69 33.242 0.08 6.56 0.99 14.27
2/21/2021 4:00:00 AM 0.69 33.242 0.08 6.56 0.97 14.25
2/21/2021 4:15:00 AM 0.69 33.242 0.08 6.56 0.97 14.25
2/21/2021 4:30:00 AM 0.69 33.242 0.08 6.52 0.97 14.23
2/21/2021 4:45:00 AM 0.7 33.26 0.08 6.55 0.98 14.21
2/21/2021 5:00:00 AM 0.7 33.26 0.08 6.52 0.96 14.22
2/21/2021 5:15:00 AM 0.7 33.26 0.08 6.55 0.98 14.23
2/21/2021 5:30:00 AM 0.69 33.242 0.08 6.55 0.99 14.24
2/21/2021 5:45:00 AM 0.69 33.242 0.08 6.55 1.02 14.25
2/21/2021 6:00:00 AM 0.69 33.242 0.08 6.55 0.97 14.25
2/21/2021 6:15:00 AM 0.69 33.242 0.08 6.55 0.97 14.26
2/21/2021 6:30:00 AM 0.69 33.242 0.08 6.55 0.97 14.25
2/21/2021 6:45:00 AM 0.69 33.242 0.08 6.54 0.99 14.26
2/21/2021 7:00:00 AM 0.69 33.242 0.081 6.55 0.99 14.25
2/21/2021 7:15:00 AM 0.69 33.242 0.081 6.55 0.96 14.25
2/21/2021 7:30:00 AM 0.7 33.26 0.081 6.52 1.01 14.25
2/21/2021 7:45:00 AM 0.7 33.26 0.081 6.55 0.98 14.26
2/21/2021 8:00:00 AM 0.71 33.278 0.081 6.55 0.98 14.26
2/21/2021 8:15:00 AM 0.7 33.26 0.081 6.52 1 14.29
2/21/2021 8:30:00 AM 0.7 33.26 0.081 6.55 1 14.3
2/21/2021 8:45:00 AM 0.71 33.278 0.081 6.55 0.95 14.33
2/21/2021 9:00:00 AM 0.72 33.296 0.081 6.56 0.96 14.34
2/21/2021 9:15:00 AM 0.72 33.296 0.081 6.57 0.98 14.36
2/21/2021 9:30:00 AM 0.72 33.296 0.081 6.57 0.98 14.37
2/21/2021 9:45:00 AM 0.73 33.314 0.081 6.57 0.98 14.37
2/21/2021 10:00:00 AM 0.73 33.314 0.081 6.57 0.97 14.38
2/21/2021 10:15:00 AM 0.73 33.314 0.08 6.57 1 14.39
2/21/2021 10:30:00 AM 0.73 33.314 0.08 6.56 1.02 14.41
2/21/2021 10:45:00 AM 0.75 33.35 0.08 6.57 0.99 14.41
2/21/2021 11:00:00 AM 0.75 33.35 0.08 6.58 1.02 14.42
2/21/2021 11:15:00 AM 0.75 33.35 0.08 6.57 1.03 14.4
2/21/2021 11:30:00 AM 0.76 33.368 0.08 6.59 1.03 14.39
2/21/2021 11:45:00 AM 0.76 33.368 0.08 6.59 1.02 14.38
2/21/2021 12:00:00 PM 0.74 33.332 0.08 6.53 1.06 14.38
2/21/2021 12:15:00 PM 0.75 33.35 0.08 6.59 1.04 14.37
2/21/2021 12:30:00 PM 0.75 33.35 0.08 6.58 1.01 14.34
2/21/2021 12:45:00 PM 0.75 33.35 0.08 6.55 1.05 14.34
2/21/2021 1:00:00 PM 0.75 33.35 0.08 6.58 1.08 14.3
2/21/2021 1:15:00 PM 0.76 33.368 0.08 6.54 1.01 14.28
2/21/2021 1:30:00 PM 0.77 33.386 0.08 6.57 1.03 14.27
2/21/2021 1:45:00 PM 0.75 33.35 0.08 6.57 1.02 14.26
2/21/2021 2:00:00 PM 0.77 33.386 0.08 6.57 1.02 14.25
2/21/2021 2:15:00 PM 0.76 33.368 0.08 6.57 1.04 14.25
2/21/2021 2:30:00 PM 0.75 33.35 0.079 6.58 1.06 14.25
2/21/2021 2:45:00 PM 0.75 33.35 0.079 6.57 1.04 14.25
2/21/2021 3:00:00 PM 0.73 33.314 0.079 6.54 1.03 14.25
2/21/2021 3:15:00 PM 0.73 33.314 0.079 6.57 1.03 14.22
2/21/2021 3:30:00 PM 0.72 33.296 0.078 6.57 1.03 14.24
2/21/2021 3:45:00 PM 0.7 33.26 0.078 6.53 1.05 14.24
2/21/2021 4:00:00 PM 0.71 33.278 0.078 6.57 1.06 14.21
2/21/2021 4:15:00 PM 0.71 33.278 0.078 6.57 1.1 14.21
2/21/2021 4:30:00 PM 0.71 33.278 0.078 6.57 1.07 14.22
2/21/2021 4:45:00 PM 0.69 33.242 0.078 6.5 1.06 14.24
2/21/2021 5:00:00 PM 0.7 33.26 0.078 6.57 1.13 14.22
2/21/2021 5:15:00 PM 0.7 33.26 0.078 6.56 1.13 14.21
2/21/2021 5:30:00 PM 0.7 33.26 0.078 6.57 1.12 14.23
2/21/2021 5:45:00 PM 0.7 33.26 0.079 6.55 1.08 14.2
2/21/2021 6:00:00 PM 0.69 33.242 0.079 6.57 1.21 14.22
2/21/2021 6:15:00 PM 0.69 33.242 0.08 6.56 1.16 14.2
2/21/2021 6:30:00 PM 0.68 33.224 0.08 6.49 1.18 14.2
2/21/2021 6:45:00 PM 0.69 33.242 0.081 6.55 1.19 14.2
2/21/2021 7:00:00 PM 0.69 33.242 0.081 6.55 1.28 14.18
2/21/2021 7:15:00 PM 0.69 33.242 0.081 6.52 1.21 14.2
2/21/2021 7:30:00 PM 0.69 33.242 0.081 6.54 1.28 14.2
2/21/2021 7:45:00 PM 0.69 33.242 0.081 6.54 1.16 14.19
2/21/2021 8:00:00 PM 0.69 33.242 0.08 6.55 1.14 14.19
2/21/2021 8:15:00 PM 0.69 33.242 0.08 6.55 1.13 14.19
2/21/2021 8:30:00 PM 0.69 33.242 0.08 6.53 1.23 14.18
2/21/2021 8:45:00 PM 0.69 33.242 0.08 6.55 1.15 14.19
2/21/2021 9:00:00 PM 0.69 33.242 0.08 6.54 1.15 14.18
2/21/2021 9:15:00 PM 0.69 33.242 0.08 6.55 1.12 14.17
2/21/2021 9:30:00 PM 0.69 33.242 0.079 6.56 1.13 14.17
2/21/2021 9:45:00 PM 0.69 33.242 0.079 6.56 1.08 14.18
2/21/2021 10:00:00 PM 0.69 33.242 0.079 6.56 1.08 14.18
2/21/2021 10:15:00 PM 0.7 33.26 0.079 6.56 1.11 14.16
2/21/2021 10:30:00 PM 0.7 33.26 0.079 6.55 1.05 14.17
2/21/2021 10:45:00 PM 0.69 33.242 0.079 6.55 1.03 14.18
2/21/2021 11:00:00 PM 0.69 33.242 0.079 6.55 1.03 14.16
2/21/2021 11:15:00 PM 0.69 33.242 0.079 6.57 1.03 14.16
2/21/2021 11:30:00 PM 0.69 33.242 0.079 6.53 1.04 14.15
2/21/2021 11:45:00 PM 0.69 33.242 0.079 6.57 1.05 14.15
2/22/2021 12:00:00 AM 0.69 33.242 0.079 6.57 1.04 14.16
2/22/2021 12:15:00 AM 0.68 33.224 0.079 6.53 1.13 14.15
2/22/2021 12:30:00 AM 0.69 33.242 0.079 6.55 1.03 14.13
2/22/2021 12:45:00 AM 0.69 33.242 0.079 6.56 1.06 14.13
2/22/2021 1:00:00 AM 0.69 33.242 0.079 6.57 1.03 14.15
2/22/2021 1:15:00 AM 0.69 33.242 0.079 6.56 1.04 14.13
2/22/2021 1:30:00 AM 0.69 33.242 0.079 6.57 1.01 14.14
2/22/2021 1:45:00 AM 0.68 33.224 0.079 6.54 1.03 14.14
2/22/2021 2:00:00 AM 0.69 33.242 0.079 6.57 1.08 14.11
2/22/2021 2:15:00 AM 0.69 33.242 0.079 6.57 1 14.12
2/22/2021 2:30:00 AM 0.69 33.242 0.079 6.57 1.02 14.12
2/22/2021 2:45:00 AM 0.69 33.242 0.079 6.56 1.02 14.11
2/22/2021 3:00:00 AM 0.69 33.242 0.079 6.56 1.02 14.12
2/22/2021 3:15:00 AM 0.7 33.26 0.079 6.57 1.03 14.09
2/22/2021 3:30:00 AM 0.69 33.242 0.079 6.56 1.02 14.11
2/22/2021 3:45:00 AM 0.69 33.242 0.079 6.57 1 14.09
2/22/2021 4:00:00 AM 0.7 33.26 0.079 6.57 1 14.09
2/22/2021 4:15:00 AM 0.7 33.26 0.079 6.57 1.04 14.08
2/22/2021 4:30:00 AM 0.7 33.26 0.079 6.57 0.99 14.08
2/22/2021 4:45:00 AM 0.69 33.242 0.079 6.56 1.01 14.06
2/22/2021 5:00:00 AM 0.69 33.242 0.079 6.57 1.03 14.07
2/22/2021 5:15:00 AM 0.7 33.26 0.079 6.57 1.17 14.07
2/22/2021 5:30:00 AM 0.69 33.242 0.079 6.57 1.03 14.08
2/22/2021 5:45:00 AM 0.7 33.26 0.079 6.57 1.02 14.06
2/22/2021 6:00:00 AM 0.7 33.26 0.079 6.57 1.01 14.04
2/22/2021 6:15:00 AM 0.7 33.26 0.079 6.58 1 14.04
2/22/2021 6:30:00 AM 0.69 33.242 0.079 6.57 0.99 14.04
2/22/2021 6:45:00 AM 0.69 33.242 0.079 6.58 1.02 14.04
2/22/2021 7:00:00 AM 0.69 33.242 0.079 6.55 1.05 14.04
2/22/2021 7:15:00 AM 0.69 33.242 0.079 6.58 1.01 14.05
2/22/2021 7:30:00 AM 0.68 33.224 0.079 6.56 1 14.04
2/22/2021 7:45:00 AM 0.69 33.242 0.079 6.58 1.06 14.04
2/22/2021 8:00:00 AM 0.68 33.224 0.079 6.54 0.99 14.05
2/22/2021 8:15:00 AM 0.69 33.242 0.079 6.57 1.03 14.03
2/22/2021 8:30:00 AM 0.69 33.242 0.079 6.58 1.03 14.04
2/22/2021 8:45:00 AM 0.69 33.242 0.079 6.58 1.03 14.04
2/22/2021 9:00:00 AM 0.69 33.242 0.079 6.58 1.04 14.01
2/22/2021 9:15:00 AM 0.69 33.242 0.079 6.58 1.03 14.01
2/22/2021 9:30:00 AM 0.7 33.26 0.079 6.58 1.03 14.02
2/22/2021 9:45:00 AM 0.69 33.242 0.079 6.59 1.02 14.02
2/22/2021 10:00:00 AM 0.7 33.26 0.079 6.59 1.03 13.99
2/22/2021 10:15:00 AM 0.69 33.242 0.079 6.54 1 14.01
2/22/2021 10:30:00 AM 0.7 33.26 0.079 6.58 1.01 14
2/22/2021 10:45:00 AM 0.7 33.26 0.079 6.59 0.97 14.01
2/22/2021 11:00:00 AM 0.7 33.26 0.079 6.6 1.02 14
2/22/2021 11:15:00 AM 0.7 33.26 0.079 6.6 1.02 14.01
2/22/2021 11:30:00 AM 0.7 33.26 0.079 6.6 1.02 14.01
2/22/2021 11:45:00 AM 0.69 33.242 0.079 6.55 1 14.01
2/22/2021 12:00:00 PM 0.7 33.26 0.079 6.6 1.01 14
2/22/2021 12:15:00 PM 0.7 33.26 0.079 6.59 1.02 13.99
2/22/2021 12:30:00 PM 0.71 33.278 0.079 6.6 1.01 13.97
2/22/2021 12:45:00 PM 0.69 33.242 0.079 6.54 1 13.98
2/22/2021 1:00:00 PM 0.71 33.278 0.078 6.6 1.05 13.96
2/22/2021 1:15:00 PM 0.7 33.26 0.078 6.59 1.13 13.96
2/22/2021 1:30:00 PM 0.7 33.26 0.078 6.6 1 13.97
2/22/2021 1:45:00 PM 0.7 33.26 0.078 6.59 1.02 13.96
2/22/2021 2:00:00 PM 0.7 33.26 0.078 6.59 1.02 13.97
2/22/2021 2:15:00 PM 0.7 33.26 0.078 6.59 1.03 13.95
2/22/2021 2:30:00 PM 0.7 33.26 0.078 6.6 1.03 13.96
2/22/2021 2:45:00 PM 0.71 33.278 0.078 6.59 1.05 13.93
2/22/2021 3:00:00 PM 0.7 33.26 0.078 6.56 1.02 13.95
2/22/2021 3:15:00 PM 0.71 33.278 0.078 6.59 1.03 13.94
2/22/2021 3:30:00 PM 0.7 33.26 0.078 6.58 1.02 13.94
2/22/2021 3:45:00 PM 0.7 33.26 0.078 6.6 1 13.95
2/22/2021 4:00:00 PM 0.7 33.26 0.078 6.59 1.02 13.92
2/22/2021 4:15:00 PM 0.69 33.242 0.078 6.56 1.06 13.93
2/22/2021 4:30:00 PM 0.7 33.26 0.078 6.59 1 13.92
2/22/2021 4:45:00 PM 0.7 33.26 0.078 6.59 1.03 13.92
2/22/2021 5:00:00 PM 0.69 33.242 0.078 6.54 1.03 13.9
2/22/2021 5:15:00 PM 0.7 33.26 0.078 6.58 1.02 13.9
2/22/2021 5:30:00 PM 0.7 33.26 0.078 6.58 1.01 13.91
2/22/2021 5:45:00 PM 0.7 33.26 0.078 6.59 1.02 13.89
2/22/2021 6:00:00 PM 0.7 33.26 0.078 6.58 1.01 13.89
2/22/2021 6:15:00 PM 0.7 33.26 0.078 6.58 1.07 13.91
2/22/2021 6:30:00 PM 0.7 33.26 0.078 6.58 1.02 13.89
2/22/2021 6:45:00 PM 0.69 33.242 0.078 6.55 1.03 13.9
2/22/2021 7:00:00 PM 0.7 33.26 0.078 6.58 1.04 13.9
2/22/2021 7:15:00 PM 0.69 33.242 0.078 6.57 1.04 13.91
2/22/2021 7:30:00 PM 0.69 33.242 0.078 6.58 1.04 13.9
2/22/2021 7:45:00 PM 0.69 33.242 0.078 6.58 1.02 13.9
2/22/2021 8:00:00 PM 0.69 33.242 0.078 6.56 1.12 13.91
2/22/2021 8:15:00 PM 0.69 33.242 0.078 6.57 1 13.91
2/22/2021 8:30:00 PM 0.69 33.242 0.078 6.58 1.03 13.92
2/22/2021 8:45:00 PM 0.69 33.242 0.078 6.58 1.02 13.9
2/22/2021 9:00:00 PM 0.68 33.224 0.078 6.53 1.02 13.92
2/22/2021 9:15:00 PM 0.69 33.242 0.078 6.58 1.02 13.91
2/22/2021 9:30:00 PM 0.68 33.224 0.078 6.54 1.07 13.91
2/22/2021 9:45:00 PM 0.69 33.242 0.078 6.57 1.06 13.93
2/22/2021 10:00:00 PM 0.69 33.242 0.078 6.58 1.02 13.93
2/22/2021 10:15:00 PM 0.69 33.242 0.078 6.58 1 13.93
2/22/2021 10:30:00 PM 0.69 33.242 0.078 6.58 1.05 13.93
2/22/2021 10:45:00 PM 0.69 33.242 0.078 6.57 1.02 13.94
2/22/2021 11:00:00 PM 0.69 33.242 0.078 6.57 1.03 13.92
2/22/2021 11:15:00 PM 0.69 33.242 0.078 6.58 1.02 13.92
2/22/2021 11:30:00 PM 0.69 33.242 0.078 6.58 1.05 13.93
2/22/2021 11:45:00 PM 0.68 33.224 0.078 6.51 1 13.94
2/23/2021 12:00:00 AM 0.69 33.242 0.078 6.58 0.97 13.94
2/23/2021 12:15:00 AM 0.69 33.242 0.078 6.56 1 13.93
2/23/2021 12:30:00 AM 0.69 33.242 0.078 6.58 0.99 13.93
2/23/2021 12:45:00 AM 0.69 33.242 0.078 6.58 1.05 13.91
2/23/2021 1:00:00 AM 0.69 33.242 0.078 6.58 1.02 13.92
2/23/2021 1:15:00 AM 0.7 33.26 0.078 6.58 1.03 13.92
2/23/2021 1:30:00 AM 0.69 33.242 0.078 6.57 1.02 13.92
2/23/2021 1:45:00 AM 0.69 33.242 0.078 6.57 1 13.91
2/23/2021 2:00:00 AM 0.68 33.224 0.078 6.53 1.01 13.92
2/23/2021 2:15:00 AM 0.7 33.26 0.078 6.58 1.06 13.91
2/23/2021 2:30:00 AM 0.68 33.224 0.078 6.54 1.04 13.92
2/23/2021 2:45:00 AM 0.69 33.242 0.078 6.57 1.03 13.91
2/23/2021 3:00:00 AM 0.69 33.242 0.078 6.56 1.01 13.92
2/23/2021 3:15:00 AM 0.69 33.242 0.078 6.58 1.03 13.9
2/23/2021 3:30:00 AM 0.69 33.242 0.078 6.54 1.01 13.91
2/23/2021 3:45:00 AM 0.69 33.242 0.078 6.58 1.02 13.91
2/23/2021 4:00:00 AM 0.69 33.242 0.078 6.55 0.99 13.91
2/23/2021 4:15:00 AM 0.69 33.242 0.078 6.57 1.02 13.91
2/23/2021 4:30:00 AM 0.69 33.242 0.078 6.57 1 13.91
2/23/2021 4:45:00 AM 0.69 33.242 0.078 6.58 1.01 13.9
2/23/2021 5:00:00 AM 0.68 33.224 0.078 6.53 0.99 13.91
2/23/2021 5:15:00 AM 0.69 33.242 0.078 6.56 1.02 13.91
2/23/2021 5:30:00 AM 0.69 33.242 0.078 6.57 0.98 13.91
2/23/2021 5:45:00 AM 0.69 33.242 0.078 6.57 1 13.89
2/23/2021 6:00:00 AM 0.68 33.224 0.078 6.56 1.02 13.91
2/23/2021 6:15:00 AM 0.69 33.242 0.078 6.57 1.03 13.91
2/23/2021 6:30:00 AM 0.69 33.242 0.078 6.56 1.03 13.91
2/23/2021 6:45:00 AM 0.69 33.242 0.078 6.58 1.02 13.9
2/23/2021 7:00:00 AM 0.69 33.242 0.078 6.57 1 13.88
2/23/2021 7:15:00 AM 0.69 33.242 0.078 6.57 1.03 13.91
2/23/2021 7:30:00 AM 0.69 33.242 0.078 6.58 1.03 13.9
2/23/2021 7:45:00 AM 0.68 33.224 0.078 6.51 1.02 13.9
2/23/2021 8:00:00 AM 0.69 33.242 0.078 6.58 1.05 13.91
2/23/2021 8:15:00 AM 0.69 33.242 0.078 6.59 1.04 13.91
2/23/2021 8:30:00 AM 0.68 33.224 0.078 6.53 1.01 13.92
2/23/2021 8:45:00 AM 0.69 33.242 0.078 6.58 1.01 13.92
2/23/2021 9:00:00 AM 0.69 33.242 0.078 6.59 1.03 13.9
2/23/2021 9:15:00 AM 0.68 33.224 0.078 6.56 1.02 13.92
2/23/2021 9:30:00 AM 0.69 33.242 0.078 6.58 1.03 13.9
2/23/2021 9:45:00 AM 0.69 33.242 0.078 6.59 1.02 13.91
2/23/2021 10:00:00 AM 0.69 33.242 0.078 6.59 1.02 13.91
2/23/2021 10:15:00 AM 0.7 33.26 0.078 6.59 1.01 13.89
2/23/2021 10:30:00 AM 0.7 33.26 0.078 6.59 1.01 13.9
2/23/2021 10:45:00 AM 0.7 33.26 0.078 6.59 0.99 13.9
2/23/2021 11:00:00 AM 0.7 33.26 0.078 6.59 1.02 13.89
2/23/2021 11:15:00 AM 0.7 33.26 0.078 6.6 1.04 13.91
2/23/2021 11:30:00 AM 0.7 33.26 0.078 6.59 1.01 13.9
2/23/2021 11:45:00 AM 0.7 33.26 0.078 6.57 1.01 13.89
2/23/2021 12:00:00 PM 0.7 33.26 0.078 6.6 1.02 13.89
2/23/2021 12:15:00 PM 0.7 33.26 0.078 6.58 1.02 13.88
2/23/2021 12:30:00 PM 0.7 33.26 0.078 6.6 1.02 13.87
2/23/2021 12:45:00 PM 0.7 33.26 0.078 6.6 1.03 13.87
2/23/2021 1:00:00 PM 0.7 33.26 0.078 6.59 1.05 13.88
2/23/2021 1:15:00 PM 0.7 33.26 0.078 6.58 1.01 13.87
2/23/2021 1:30:00 PM 0.7 33.26 0.078 6.61 1 13.88
2/23/2021 1:45:00 PM 0.71 33.278 0.077 6.6 1.01 13.88
2/23/2021 2:00:00 PM 0.71 33.278 0.078 6.61 1.01 13.88
2/23/2021 2:15:00 PM 0.71 33.278 0.078 6.6 1 13.86
2/23/2021 2:30:00 PM 0.71 33.278 0.077 6.61 1.04 13.87
2/23/2021 2:45:00 PM 0.71 33.278 0.078 6.58 1.03 13.88
2/23/2021 3:00:00 PM 0.72 33.296 0.077 6.6 1.02 13.87
2/23/2021 3:15:00 PM 0.72 33.296 0.077 6.61 1.03 13.88
2/23/2021 3:30:00 PM 0.72 33.296 0.077 6.6 1.06 13.88
2/23/2021 3:45:00 PM 0.72 33.296 0.077 6.6 1.03 13.87
2/23/2021 4:00:00 PM 0.72 33.296 0.077 6.62 1.03 13.88
2/23/2021 4:15:00 PM 0.71 33.278 0.077 6.6 1.03 13.88
2/23/2021 4:30:00 PM 0.71 33.278 0.077 6.61 1.04 13.87
2/23/2021 4:45:00 PM 0.72 33.296 0.077 6.61 1.04 13.87
2/23/2021 5:00:00 PM 0.72 33.296 0.077 6.61 1.02 13.86
2/23/2021 5:15:00 PM 0.72 33.296 0.077 6.6 1.06 13.86
2/23/2021 5:30:00 PM 0.72 33.296 0.077 6.61 1.05 13.86
2/23/2021 5:45:00 PM 0.71 33.278 0.077 6.6 1.01 13.85
2/23/2021 6:00:00 PM 0.71 33.278 0.077 6.59 1.05 13.84
2/23/2021 6:15:00 PM 0.71 33.278 0.077 6.58 1.02 13.85
2/23/2021 6:30:00 PM 0.71 33.278 0.077 6.6 1.07 13.85
2/23/2021 6:45:00 PM 0.71 33.278 0.077 6.6 1.05 13.86
2/23/2021 7:00:00 PM 0.7 33.26 0.077 6.56 1.06 13.87
2/23/2021 7:15:00 PM 0.71 33.278 0.077 6.6 1.05 13.87
2/23/2021 7:30:00 PM 0.7 33.26 0.077 6.58 1.07 13.88
2/23/2021 7:45:00 PM 0.71 33.278 0.077 6.59 1.04 13.87
2/23/2021 8:00:00 PM 0.71 33.278 0.077 6.58 1.07 13.89
2/23/2021 8:15:00 PM 0.71 33.278 0.077 6.59 1.11 13.88
2/23/2021 8:30:00 PM 0.71 33.278 0.077 6.59 1.1 13.88
2/23/2021 8:45:00 PM 0.7 33.26 0.077 6.59 1.07 13.9
2/23/2021 9:00:00 PM 0.71 33.278 0.077 6.59 1.05 13.9
2/23/2021 9:15:00 PM 0.71 33.278 0.077 6.59 1.05 13.92
2/23/2021 9:30:00 PM 0.7 33.26 0.077 6.58 1.04 13.94
2/23/2021 9:45:00 PM 0.7 33.26 0.077 6.59 1.05 13.92
2/23/2021 10:00:00 PM 0.7 33.26 0.077 6.59 1.03 13.92
2/23/2021 10:15:00 PM 0.7 33.26 0.077 6.59 1.05 13.93
2/23/2021 10:30:00 PM 0.71 33.278 0.077 6.59 1.04 13.93
2/23/2021 10:45:00 PM 0.7 33.26 0.077 6.53 1.04 13.95
2/23/2021 11:00:00 PM 0.71 33.278 0.077 6.59 1.03 13.95
2/23/2021 11:15:00 PM 0.71 33.278 0.077 6.59 1.05 13.94
2/23/2021 11:30:00 PM 0.7 33.26 0.077 6.59 1.03 13.95
2/23/2021 11:45:00 PM 0.71 33.278 0.077 6.59 1.04 13.95
2/24/2021 12:00:00 AM 0.71 33.278 0.077 6.58 1.07 13.95
2/24/2021 12:15:00 AM 0.7 33.26 0.077 6.58 1.04 13.95
2/24/2021 12:30:00 AM 0.7 33.26 0.077 6.57 1.05 13.96
2/24/2021 12:45:00 AM 0.69 33.242 0.077 6.54 1.04 13.98
2/24/2021 1:00:00 AM 0.69 33.242 0.078 6.56 1.05 13.97
2/24/2021 1:15:00 AM 0.69 33.242 0.078 6.58 1.02 13.97
2/24/2021 1:30:00 AM 0.7 33.26 0.078 6.58 1.08 13.97
2/24/2021 1:45:00 AM 0.69 33.242 0.078 6.52 1.02 13.99
2/24/2021 2:00:00 AM 0.7 33.26 0.078 6.57 1.04 14
2/24/2021 2:15:00 AM 0.69 33.242 0.078 6.54 1.04 13.99
2/24/2021 2:30:00 AM 0.7 33.26 0.078 6.57 1.04 14
2/24/2021 2:45:00 AM 0.69 33.242 0.078 6.54 1.01 14.02
2/24/2021 3:00:00 AM 0.69 33.242 0.078 6.57 1.01 14.01
2/24/2021 3:15:00 AM 0.69 33.242 0.078 6.57 1.05 14.02
2/24/2021 3:30:00 AM 0.68 33.224 0.078 6.52 1.07 14.03
2/24/2021 3:45:00 AM 0.69 33.242 0.078 6.57 1.03 14.02
2/24/2021 4:00:00 AM 0.69 33.242 0.078 6.58 1.05 14.03
2/24/2021 4:15:00 AM 0.69 33.242 0.078 6.58 1.09 14.02
2/24/2021 4:30:00 AM 0.68 33.224 0.078 6.52 1.14 14.04
2/24/2021 4:45:00 AM 0.68 33.224 0.078 6.57 1.09 14.05
2/24/2021 5:00:00 AM 0.69 33.242 0.078 6.58 1.07 14.03
2/24/2021 5:15:00 AM 0.69 33.242 0.078 6.57 1.1 14.05
2/24/2021 5:30:00 AM 0.68 33.224 0.078 6.57 1.05 14.05
2/24/2021 5:45:00 AM 0.67 33.206 0.078 6.51 1.08 14.07
2/24/2021 6:00:00 AM 0.69 33.242 0.078 6.57 1.04 14.05
2/24/2021 6:15:00 AM 0.69 33.242 0.078 6.57 1.07 14.06
2/24/2021 6:30:00 AM 0.69 33.242 0.079 6.57 1.08 14.05
2/24/2021 6:45:00 AM 0.69 33.242 0.079 6.57 1.02 14.07
2/24/2021 7:00:00 AM 0.69 33.242 0.079 6.57 1.04 14.06
2/24/2021 7:15:00 AM 0.68 33.224 0.079 6.58 1.04 14.07
2/24/2021 7:30:00 AM 0.69 33.242 0.079 6.58 1.07 14.07
2/24/2021 7:45:00 AM 0.69 33.242 0.079 6.58 1.04 14.07
2/24/2021 8:00:00 AM 0.69 33.242 0.079 6.59 1.03 14.09
2/24/2021 8:15:00 AM 0.69 33.242 0.079 6.59 1.03 14.1
2/24/2021 8:30:00 AM 0.7 33.26 0.079 6.59 1.01 14.12
2/24/2021 8:45:00 AM 0.7 33.26 0.079 6.6 1.01 14.12
2/24/2021 9:00:00 AM 0.71 33.278 0.079 6.6 1.03 14.13
2/24/2021 9:15:00 AM 0.7 33.26 0.078 6.59 1.01 14.14
2/24/2021 9:30:00 AM 0.72 33.296 0.079 6.6 1 14.14
2/24/2021 9:45:00 AM 0.72 33.296 0.078 6.6 1.03 14.12
2/24/2021 10:00:00 AM 0.73 33.314 0.078 6.61 1.05 14.11
2/24/2021 10:15:00 AM 0.74 33.332 0.078 6.6 1.03 14.12
2/24/2021 10:30:00 AM 0.75 33.35 0.078 6.58 1.05 14.08
2/24/2021 10:45:00 AM 0.76 33.368 0.078 6.61 1.02 14.09
2/24/2021 11:00:00 AM 0.77 33.386 0.078 6.61 1.02 14.04
2/24/2021 11:15:00 AM 0.79 33.422 0.078 6.61 1.03 14.02
2/24/2021 11:30:00 AM 0.78 33.404 0.078 6.59 1.04 14
2/24/2021 11:45:00 AM 0.81 33.458 0.078 6.62 1.02 13.96
2/24/2021 12:00:00 PM 0.82 33.476 0.078 6.62 1 13.93
2/24/2021 12:15:00 PM 0.84 33.512 0.078 6.62 1.05 13.89
2/24/2021 12:30:00 PM 0.85 33.53 0.078 6.63 1.05 13.85
2/24/2021 12:45:00 PM 0.87 33.566 0.077 6.63 1.07 13.81
2/24/2021 1:00:00 PM 0.88 33.584 0.077 6.58 1.03 13.79
2/24/2021 1:15:00 PM 0.91 33.638 0.077 6.63 1.06 13.74
2/24/2021 1:30:00 PM 0.91 33.638 0.077 6.63 1.12 13.71
2/24/2021 1:45:00 PM 0.91 33.638 0.077 6.63 1.06 13.67
2/24/2021 2:00:00 PM 0.92 33.656 0.077 6.64 1.09 13.65
2/24/2021 2:15:00 PM 0.92 33.656 0.077 6.62 1.07 13.63
2/24/2021 2:30:00 PM 0.94 33.692 0.077 6.63 1.11 13.62
2/24/2021 2:45:00 PM 0.96 33.728 0.077 6.62 1.19 13.61
2/24/2021 3:00:00 PM 0.98 33.764 0.076 6.64 1.24 13.6
2/24/2021 3:15:00 PM 0.99 33.782 0.076 6.64 1.33 13.6
2/24/2021 3:30:00 PM 0.97 33.746 0.076 6.58 1.42 13.61
2/24/2021 3:45:00 PM 1 33.8 0.076 6.64 1.53 13.61
2/24/2021 4:00:00 PM 0.96 33.728 0.076 6.63 1.76 13.61
2/24/2021 4:15:00 PM 0.95 33.71 0.076 6.63 1.87 13.62
2/24/2021 4:30:00 PM 0.92 33.656 0.076 6.6 2.16 13.64
2/24/2021 4:45:00 PM 0.93 33.674 0.076 6.62 2.5 13.64
2/24/2021 5:00:00 PM 0.9 33.62 0.076 6.63 2.42 13.64
2/24/2021 5:15:00 PM 0.89 33.602 0.076 6.62 2.45 13.66
2/24/2021 5:30:00 PM 0.85 33.53 0.076 6.62 2.62 13.68
2/24/2021 5:45:00 PM 0.82 33.476 0.076 6.61 2.49 13.68
2/24/2021 6:00:00 PM 0.79 33.422 0.076 6.61 2.34 13.71
2/24/2021 6:15:00 PM 0.76 33.368 0.076 6.6 2.53 13.74
2/24/2021 6:30:00 PM 0.74 33.332 0.076 6.61 2.2 13.75
2/24/2021 6:45:00 PM 0.72 33.296 0.076 6.61 2.37 13.8
2/24/2021 7:00:00 PM 0.72 33.296 0.076 6.61 2.24 13.81
2/24/2021 7:15:00 PM 0.71 33.278 0.076 6.6 2.02 13.83
2/24/2021 7:30:00 PM 0.7 33.26 0.076 6.6 1.98 13.85
2/24/2021 7:45:00 PM 0.7 33.26 0.076 6.6 1.97 13.86
2/24/2021 8:00:00 PM 0.69 33.242 0.076 6.59 2.12 13.89
2/24/2021 8:15:00 PM 0.69 33.242 0.076 6.59 2.05 13.88
2/24/2021 8:30:00 PM 0.69 33.242 0.076 6.59 2.12 13.89
2/24/2021 8:45:00 PM 0.69 33.242 0.076 6.59 1.99 13.89
2/24/2021 9:00:00 PM 0.69 33.242 0.076 6.59 1.96 13.89
2/24/2021 9:15:00 PM 0.68 33.224 0.076 6.6 1.96 13.91
2/24/2021 9:30:00 PM 0.68 33.224 0.076 6.6 2.11 13.92
2/24/2021 9:45:00 PM 0.67 33.206 0.076 6.55 2.08 13.94
2/24/2021 10:00:00 PM 0.68 33.224 0.076 6.58 2.1 13.94
2/24/2021 10:15:00 PM 0.68 33.224 0.076 6.59 2.16 13.95
2/24/2021 10:30:00 PM 0.68 33.224 0.076 6.59 2.2 13.96
2/24/2021 10:45:00 PM 0.68 33.224 0.076 6.59 2.17 13.97
2/24/2021 11:00:00 PM 0.68 33.224 0.076 6.58 2.36 13.98
2/24/2021 11:15:00 PM 0.68 33.224 0.076 6.59 2.35 13.98
2/24/2021 11:30:00 PM 0.68 33.224 0.076 6.59 2.31 13.99
2/24/2021 11:45:00 PM 0.68 33.224 0.076 6.57 2.37 14
2/25/2021 12:00:00 AM 0.67 33.206 0.076 6.57 2.43 14.01
2/25/2021 12:15:00 AM 0.67 33.206 0.076 6.53 2.5 14.02
2/25/2021 12:30:00 AM 0.67 33.206 0.075 6.55 2.47 14.02
2/25/2021 12:45:00 AM 0.68 33.224 0.075 6.55 2.67 14.02
2/25/2021 1:00:00 AM 0.67 33.206 0.075 6.55 2.49 14.02
2/25/2021 1:15:00 AM 0.67 33.206 0.075 6.53 2.69 14.02
2/25/2021 1:30:00 AM 0.67 33.206 0.075 6.53 3.05 14.05
2/25/2021 1:45:00 AM 0.67 33.206 0.075 6.53 2.88 14.06
2/25/2021 2:00:00 AM 0.67 33.206 0.076 6.52 2.97 14.07
2/25/2021 2:15:00 AM 0.67 33.206 0.076 6.51 3.06 14.08
2/25/2021 2:30:00 AM 0.67 33.206 0.077 6.51 3.33 14.09
2/25/2021 2:45:00 AM 0.66 33.188 0.077 6.5 3.35 14.1
2/25/2021 3:00:00 AM 0.66 33.188 0.077 6.49 3.67 14.11
2/25/2021 3:15:00 AM 0.66 33.188 0.078 6.48 3.75 14.13
2/25/2021 3:30:00 AM 0.66 33.188 0.078 6.47 3.43 14.14
2/25/2021 3:45:00 AM 0.66 33.188 0.078 6.47 3.29 14.14
2/25/2021 4:00:00 AM 0.65 33.17 0.078 6.46 3.03 14.15
2/25/2021 4:15:00 AM 0.66 33.188 0.078 6.47 3.02 14.15
2/25/2021 4:30:00 AM 0.65 33.17 0.078 6.43 2.76 14.17
2/25/2021 4:45:00 AM 0.65 33.17 0.078 6.45 2.84 14.17
2/25/2021 5:00:00 AM 0.65 33.17 0.078 6.46 2.71 14.17
2/25/2021 5:15:00 AM 0.65 33.17 0.078 6.46 2.44 14.17
2/25/2021 5:30:00 AM 0.65 33.17 0.078 6.46 2.51 14.18
2/25/2021 5:45:00 AM 0.65 33.17 0.078 6.45 2.46 14.18
2/25/2021 6:00:00 AM 0.66 33.188 0.078 6.45 2.51 14.18
2/25/2021 6:15:00 AM 0.64 33.152 0.078 6.4 2.34 14.2
2/25/2021 6:30:00 AM 0.66 33.188 0.078 6.46 2.25 14.19
2/25/2021 6:45:00 AM 0.66 33.188 0.078 6.46 2.3 14.19
2/25/2021 7:00:00 AM 0.66 33.188 0.078 6.46 2.32 14.19
2/25/2021 7:15:00 AM 0.66 33.188 0.077 6.43 2.38 14.2
2/25/2021 7:30:00 AM 0.66 33.188 0.077 6.44 2.23 14.2
2/25/2021 7:45:00 AM 0.67 33.206 0.077 6.46 2.26 14.22
2/25/2021 8:00:00 AM 0.67 33.206 0.077 6.46 2.09 14.22
2/25/2021 8:15:00 AM 0.67 33.206 0.077 6.47 2.13 14.24
2/25/2021 8:30:00 AM 0.68 33.224 0.077 6.47 2.15 14.24
2/25/2021 8:45:00 AM 0.68 33.224 0.077 6.48 2.17 14.25
2/25/2021 9:00:00 AM 0.69 33.242 0.076 6.48 2.21 14.25
2/25/2021 9:15:00 AM 0.7 33.26 0.076 6.48 2.26 14.24
2/25/2021 9:30:00 AM 0.7 33.26 0.076 6.48 2.31 14.24
2/25/2021 9:45:00 AM 0.71 33.278 0.076 6.48 2.15 14.23
2/25/2021 10:00:00 AM 0.72 33.296 0.076 6.49 2.3 14.22
2/25/2021 10:15:00 AM 0.73 33.314 0.075 6.49 2.38 14.22
2/25/2021 10:30:00 AM 0.74 33.332 0.075 6.48 2.33 14.2
2/25/2021 10:45:00 AM 0.76 33.368 0.075 6.48 2.43 14.18
2/25/2021 11:00:00 AM 0.76 33.368 0.075 6.49 2.35 14.17
2/25/2021 11:15:00 AM 0.76 33.368 0.075 6.49 2.57 14.16
2/25/2021 11:30:00 AM 0.76 33.368 0.075 6.49 2.51 14.14
2/25/2021 11:45:00 AM 0.77 33.386 0.074 6.49 2.69 14.13
2/25/2021 12:00:00 PM 0.77 33.386 0.074 6.49 2.8 14.11
2/25/2021 12:15:00 PM 0.78 33.404 0.074 6.5 2.76 14.09
2/25/2021 12:30:00 PM 0.78 33.404 0.074 6.5 2.97 14.08
2/25/2021 12:45:00 PM 0.78 33.404 0.074 6.45 2.84 14.07
2/25/2021 1:00:00 PM 0.8 33.44 0.073 6.5 2.75 14.04
2/25/2021 1:15:00 PM 0.81 33.458 0.073 6.47 2.85 14.04
2/25/2021 1:30:00 PM 0.82 33.476 0.073 6.5 3.2 14.02
2/25/2021 1:45:00 PM 0.8 33.44 0.073 6.51 2.91 14.02
2/25/2021 2:00:00 PM 0.82 33.476 0.073 6.49 3.25 14.02
2/25/2021 2:15:00 PM 0.82 33.476 0.073 6.45 3.34 14.02
2/25/2021 2:30:00 PM 0.81 33.458 0.073 6.48 3.21 14
2/25/2021 2:45:00 PM 0.81 33.458 0.073 6.45 2.95 14.01
2/25/2021 3:00:00 PM 0.81 33.458 0.073 6.49 3.11 14.01
2/25/2021 3:15:00 PM 0.81 33.458 0.073 6.49 3.12 14.01
2/25/2021 3:30:00 PM 0.8 33.44 0.073 6.49 3.49 14.01
2/25/2021 3:45:00 PM 0.8 33.44 0.073 6.5 2.92 14.01
2/25/2021 4:00:00 PM 0.85 33.53 0.073 6.4 3.44 14.02
2/25/2021 4:15:00 PM 0.86 33.548 0.073 6.42 3.44 14.03
2/25/2021 4:30:00 PM 0.85 33.53 0.073 6.4 3.56 14.03
2/25/2021 4:45:00 PM 0.83 33.494 0.074 6.45 3.66 14.05
2/25/2021 5:00:00 PM 0.83 33.494 0.074 6.46 3.69 14.07
2/25/2021 5:15:00 PM 0.81 33.458 0.074 6.41 4.07 14.09
2/25/2021 5:30:00 PM 0.81 33.458 0.074 6.44 5.05 14.09
2/25/2021 5:45:00 PM 0.81 33.458 0.075 6.44 4.91 14.1
2/25/2021 6:00:00 PM 0.8 33.44 0.075 6.44 5.19 14.11
2/25/2021 6:15:00 PM 0.79 33.422 0.075 6.45 5.46 14.11
2/25/2021 6:30:00 PM 0.77 33.386 0.076 6.48 4.51 14.12
2/25/2021 6:45:00 PM 0.76 33.368 0.076 6.5 4.46 14.13
2/25/2021 7:00:00 PM 0.75 33.35 0.077 6.5 4.39 14.13
2/25/2021 7:15:00 PM 0.74 33.332 0.077 6.5 4 14.14
2/25/2021 7:30:00 PM 0.73 33.314 0.078 6.5 4.09 14.16
2/25/2021 7:45:00 PM 0.73 33.314 0.078 6.51 4.03 14.16
2/25/2021 8:00:00 PM 0.72 33.296 0.079 6.51 3.64 14.16
2/25/2021 8:15:00 PM 0.72 33.296 0.08 6.51 3.44 14.17
2/25/2021 8:30:00 PM 0.71 33.278 0.08 6.51 3.3 14.18
2/25/2021 8:45:00 PM 0.71 33.278 0.081 6.51 3.39 14.19
2/25/2021 9:00:00 PM 0.7 33.26 0.082 6.51 3.21 14.18
2/25/2021 9:15:00 PM 0.7 33.26 0.082 6.51 2.91 14.19
2/25/2021 9:30:00 PM 0.69 33.242 0.083 6.5 3.07 14.2
2/25/2021 9:45:00 PM 0.7 33.26 0.083 6.51 2.86 14.21
2/25/2021 10:00:00 PM 0.69 33.242 0.084 6.48 2.87 14.22
2/25/2021 10:15:00 PM 0.69 33.242 0.084 6.52 2.86 14.21
2/25/2021 10:30:00 PM 0.69 33.242 0.084 6.51 2.69 14.22
2/25/2021 10:45:00 PM 0.69 33.242 0.084 6.52 2.7 14.23
2/25/2021 11:00:00 PM 0.69 33.242 0.085 6.51 2.69 14.22
2/25/2021 11:15:00 PM 0.69 33.242 0.085 6.51 2.61 14.22
2/25/2021 11:30:00 PM 0.68 33.224 0.085 6.5 2.39 14.22
2/25/2021 11:45:00 PM 0.68 33.224 0.085 6.49 2.43 14.24
2/26/2021 12:00:00 AM 0.68 33.224 0.085 6.52 2.37 14.23
2/26/2021 12:15:00 AM 0.68 33.224 0.085 6.52 2.38 14.23
2/26/2021 12:30:00 AM 0.67 33.206 0.085 6.47 2.31 14.24
2/26/2021 12:45:00 AM 0.67 33.206 0.085 6.52 2.42 14.24
2/26/2021 1:00:00 AM 0.67 33.206 0.085 6.52 2.29 14.24
2/26/2021 1:15:00 AM 0.66 33.188 0.085 6.48 2.2 14.25
2/26/2021 1:30:00 AM 0.66 33.188 0.085 6.52 2.38 14.25
2/26/2021 1:45:00 AM 0.65 33.17 0.085 6.52 2.32 14.26
2/26/2021 2:00:00 AM 0.65 33.17 0.085 6.52 2.17 14.26
2/26/2021 2:15:00 AM 0.64 33.152 0.085 6.52 2.15 14.26
2/26/2021 2:30:00 AM 0.64 33.152 0.085 6.52 2.15 14.27
2/26/2021 2:45:00 AM 0.64 33.152 0.085 6.52 2.02 14.28
2/26/2021 3:00:00 AM 0.65 33.17 0.085 6.52 2.32 14.28
2/26/2021 3:15:00 AM 0.65 33.17 0.085 6.52 2.11 14.29
2/26/2021 3:30:00 AM 0.65 33.17 0.084 6.52 2.17 14.28
2/26/2021 3:45:00 AM 0.65 33.17 0.084 6.53 2.31 14.29
2/26/2021 4:00:00 AM 0.66 33.188 0.084 6.53 2.19 14.29
2/26/2021 4:15:00 AM 0.65 33.17 0.084 6.52 2.29 14.29
2/26/2021 4:30:00 AM 0.66 33.188 0.084 6.53 2.24 14.29
2/26/2021 4:45:00 AM 0.66 33.188 0.083 6.53 2.33 14.29
2/26/2021 5:00:00 AM 0.66 33.188 0.083 6.53 2.1 14.29
2/26/2021 5:15:00 AM 0.66 33.188 0.083 6.53 2.12 14.29
2/26/2021 5:30:00 AM 0.64 33.152 0.083 6.48 2.08 14.3
2/26/2021 5:45:00 AM 0.66 33.188 0.083 6.54 2.04 14.3
2/26/2021 6:00:00 AM 0.65 33.17 0.082 6.54 2.24 14.3
2/26/2021 6:15:00 AM 0.65 33.17 0.082 6.53 2.08 14.33
2/26/2021 6:30:00 AM 0.65 33.17 0.082 6.54 2.29 14.33
2/26/2021 6:45:00 AM 0.66 33.188 0.082 6.54 2.33 14.34
2/26/2021 7:00:00 AM 0.66 33.188 0.081 6.54 2.13 14.35
2/26/2021 7:15:00 AM 0.65 33.17 0.081 6.52 2.17 14.36
2/26/2021 7:30:00 AM 0.66 33.188 0.081 6.55 2.15 14.36
2/26/2021 7:45:00 AM 0.66 33.188 0.081 6.54 2.08 14.38
2/26/2021 8:00:00 AM 0.66 33.188 0.081 6.53 2.11 14.39
2/26/2021 8:15:00 AM 0.66 33.188 0.081 6.53 1.99 14.4
2/26/2021 8:30:00 AM 0.67 33.206 0.081 6.54 1.89 14.4
2/26/2021 8:45:00 AM 0.68 33.224 0.08 6.55 1.86 14.4
2/26/2021 9:00:00 AM 0.68 33.224 0.08 6.56 1.84 14.4
2/26/2021 9:15:00 AM 0.68 33.224 0.08 6.56 1.92 14.39
2/26/2021 9:30:00 AM 0.68 33.224 0.08 6.54 1.94 14.39
2/26/2021 9:45:00 AM 0.69 33.242 0.079 6.56 1.82 14.37
2/26/2021 10:00:00 AM 0.72 33.296 0.079 6.57 1.91 14.34
2/26/2021 10:15:00 AM 0.75 33.35 0.079 6.57 2.12 14.31
2/26/2021 10:30:00 AM 0.83 33.494 0.079 6.57 1.91 14.26
2/26/2021 10:45:00 AM 1 33.8 0.079 6.57 1.86 14.21
2/26/2021 11:00:00 AM 1.1 33.98 0.079 6.57 1.98 14.19
2/26/2021 11:15:00 AM 1.13 34.034 0.079 6.57 2.22 14.17
2/26/2021 11:30:00 AM 1.17 34.106 0.079 6.57 1.85 14.13
2/26/2021 11:45:00 AM 1.23 34.214 0.079 6.57 1.91 14.09
2/26/2021 12:00:00 PM 1.27 34.286 0.078 6.54 2.03 14.09
2/26/2021 12:15:00 PM 1.29 34.322 0.078 6.57 2.24 14.07
2/26/2021 12:30:00 PM 1.28 34.304 0.079 6.56 2.09 14.04
2/26/2021 12:45:00 PM 1.34 34.412 0.079 6.57 2.3 14.01
2/26/2021 1:00:00 PM 1.39 34.502 0.079 6.57 2.3 13.98
2/26/2021 1:15:00 PM 1.44 34.592 0.08 6.56 2.21 13.97
2/26/2021 1:30:00 PM 1.47 34.646 0.081 6.56 2.53 13.97
2/26/2021 1:45:00 PM 1.48 34.664 0.081 6.54 2.19 13.96
2/26/2021 2:00:00 PM 1.53 34.754 0.082 6.55 2.23 13.95
2/26/2021 2:15:00 PM 1.54 34.772 0.082 6.53 2.54 13.95
2/26/2021 2:30:00 PM 1.59 34.862 0.083 6.56 2.38 13.94
2/26/2021 2:45:00 PM 1.64 34.952 0.083 6.56 2.56 13.94
2/26/2021 3:00:00 PM 1.64 34.952 0.083 6.56 2.46 13.92
2/26/2021 3:15:00 PM 1.65 34.97 0.083 6.57 2.35 13.91
2/26/2021 3:30:00 PM 1.68 35.024 0.083 6.57 2.24 13.89
2/26/2021 3:45:00 PM 1.67 35.006 0.083 6.57 2.43 13.88
2/26/2021 4:00:00 PM 1.7 35.06 0.083 6.57 2.5 13.88
2/26/2021 4:15:00 PM 1.69 35.042 0.082 6.57 2.36 13.87
2/26/2021 4:30:00 PM 1.68 35.024 0.082 6.57 2.24 13.87
2/26/2021 4:45:00 PM 1.72 35.096 0.082 6.52 2.39 13.88
2/26/2021 5:00:00 PM 1.72 35.096 0.082 6.57 2.39 13.87
2/26/2021 5:15:00 PM 1.72 35.096 0.082 6.57 2.45 13.88
2/26/2021 5:30:00 PM 1.67 35.006 0.081 6.57 2.21 13.88
2/26/2021 5:45:00 PM 1.64 34.952 0.081 6.52 2.27 13.89
2/26/2021 6:00:00 PM 1.62 34.916 0.081 6.56 2.42 13.88
2/26/2021 6:15:00 PM 1.6 34.88 0.081 6.55 2.3 13.87
2/26/2021 6:30:00 PM 1.55 34.79 0.081 6.51 2.18 13.87
2/26/2021 6:45:00 PM 1.55 34.79 0.081 6.56 2.04 13.87
2/26/2021 7:00:00 PM 1.53 34.754 0.081 6.55 2.21 13.87
2/26/2021 7:15:00 PM 1.51 34.718 0.081 6.55 2.1 13.87
2/26/2021 7:30:00 PM 1.48 34.664 0.081 6.55 2.18 13.87
2/26/2021 7:45:00 PM 1.49 34.682 0.081 6.55 2.01 13.88
2/26/2021 8:00:00 PM 1.46 34.628 0.081 6.55 2.09 13.89
2/26/2021 8:15:00 PM 1.45 34.61 0.081 6.55 2 13.89
2/26/2021 8:30:00 PM 1.44 34.592 0.081 6.55 1.95 13.89
2/26/2021 8:45:00 PM 1.43 34.574 0.081 6.54 2.04 13.9
2/26/2021 9:00:00 PM 1.42 34.556 0.081 6.54 3.2 13.9
2/26/2021 9:15:00 PM 1.43 34.574 0.081 6.55 1.95 13.9
2/26/2021 9:30:00 PM 1.42 34.556 0.081 6.55 1.86 13.91
2/26/2021 9:45:00 PM 1.42 34.556 0.081 6.55 1.95 13.9
2/26/2021 10:00:00 PM 1.43 34.574 0.08 6.55 1.79 13.91
2/26/2021 10:15:00 PM 1.43 34.574 0.08 6.55 1.88 13.9
2/26/2021 10:30:00 PM 1.44 34.592 0.08 6.51 1.92 13.9
2/26/2021 10:45:00 PM 1.45 34.61 0.08 6.55 1.85 13.9
2/26/2021 11:00:00 PM 1.46 34.628 0.08 6.55 1.86 13.89
2/26/2021 11:15:00 PM 1.47 34.646 0.08 6.51 1.73 13.89
2/26/2021 11:30:00 PM 1.49 34.682 0.08 6.55 1.72 13.88
2/26/2021 11:45:00 PM 1.49 34.682 0.08 6.51 1.75 13.88
2/27/2021 12:00:00 AM 1.52 34.736 0.08 6.55 1.74 13.87
2/27/2021 12:15:00 AM 1.53 34.754 0.08 6.55 1.8 13.86
2/27/2021 12:30:00 AM 1.55 34.79 0.08 6.55 1.87 13.85
2/27/2021 12:45:00 AM 1.56 34.808 0.08 6.54 1.91 13.86
2/27/2021 1:00:00 AM 1.57 34.826 0.08 6.55 1.87 13.86
2/27/2021 1:15:00 AM 1.59 34.862 0.08 6.55 1.98 13.85
2/27/2021 1:30:00 AM 1.6 34.88 0.08 6.55 1.85 13.85
2/27/2021 1:45:00 AM 1.61 34.898 0.08 6.55 1.99 13.85
2/27/2021 2:00:00 AM 1.62 34.916 0.08 6.55 1.83 13.85
2/27/2021 2:15:00 AM 1.62 34.916 0.08 6.51 1.93 13.84
2/27/2021 2:30:00 AM 1.64 34.952 0.079 6.55 1.79 13.84
2/27/2021 2:45:00 AM 1.66 34.988 0.079 6.55 1.68 13.83
2/27/2021 3:00:00 AM 1.67 35.006 0.079 6.55 1.78 13.82
2/27/2021 3:15:00 AM 1.67 35.006 0.079 6.55 1.61 13.82
2/27/2021 3:30:00 AM 1.67 35.006 0.079 6.55 1.76 13.81
2/27/2021 3:45:00 AM 1.68 35.024 0.079 6.56 1.67 13.8
2/27/2021 4:00:00 AM 1.68 35.024 0.079 6.54 1.74 13.8
2/27/2021 4:15:00 AM 1.69 35.042 0.079 6.54 1.76 13.79
2/27/2021 4:30:00 AM 1.7 35.06 0.079 6.56 1.64 13.78
2/27/2021 4:45:00 AM 1.72 35.096 0.079 6.56 1.71 13.78
2/27/2021 5:00:00 AM 1.72 35.096 0.079 6.54 1.82 13.78
2/27/2021 5:15:00 AM 1.73 35.114 0.079 6.56 1.7 13.76
2/27/2021 5:30:00 AM 1.74 35.132 0.079 6.56 1.68 13.76
2/27/2021 5:45:00 AM 1.74 35.132 0.078 6.56 1.59 13.75
2/27/2021 6:00:00 AM 1.75 35.15 0.078 6.56 2.05 13.75
2/27/2021 6:15:00 AM 1.76 35.168 0.078 6.55 1.72 13.74
2/27/2021 6:30:00 AM 1.76 35.168 0.078 6.55 1.64 13.74
2/27/2021 6:45:00 AM 1.78 35.204 0.078 6.56 1.69 13.75
2/27/2021 7:00:00 AM 1.76 35.168 0.078 6.56 1.87 13.74
2/27/2021 7:15:00 AM 1.76 35.168 0.078 6.55 1.7 13.74
2/27/2021 7:30:00 AM 1.78 35.204 0.078 6.56 1.74 13.73
2/27/2021 7:45:00 AM 1.8 35.24 0.078 6.56 1.77 13.73
2/27/2021 8:00:00 AM 1.81 35.258 0.078 6.56 1.59 13.75
2/27/2021 8:15:00 AM 1.82 35.276 0.078 6.54 1.72 13.75
2/27/2021 8:30:00 AM 1.83 35.294 0.078 6.57 1.67 13.75
2/27/2021 8:45:00 AM 1.84 35.312 0.078 6.57 1.64 13.74
2/27/2021 9:00:00 AM 1.85 35.33 0.078 6.57 1.6 13.74
2/27/2021 9:15:00 AM 1.88 35.384 0.078 6.57 1.63 13.74
2/27/2021 9:30:00 AM 1.89 35.402 0.077 6.57 1.68 13.75
2/27/2021 9:45:00 AM 1.92 35.456 0.077 6.58 1.72 13.74
2/27/2021 10:00:00 AM 1.94 35.492 0.077 6.58 1.52 13.73
2/27/2021 10:15:00 AM 1.96 35.528 0.077 6.58 1.65 13.72
2/27/2021 10:30:00 AM 1.98 35.564 0.077 6.54 1.58 13.73
2/27/2021 10:45:00 AM 2 35.6 0.077 6.57 1.7 13.72
2/27/2021 11:00:00 AM 2.04 35.672 0.077 6.59 1.66 13.72
2/27/2021 11:15:00 AM 2.06 35.708 0.077 6.58 1.49 13.71
2/27/2021 11:30:00 AM 2.11 35.798 0.077 6.59 1.6 13.72
2/27/2021 11:45:00 AM 2.15 35.87 0.077 6.59 1.66 13.71
2/27/2021 12:00:00 PM 2.19 35.942 0.077 6.54 1.53 13.71
2/27/2021 12:15:00 PM 2.26 36.068 0.077 6.59 1.67 13.7
2/27/2021 12:30:00 PM 2.33 36.194 0.076 6.59 1.55 13.69
2/27/2021 12:45:00 PM 2.37 36.266 0.076 6.58 1.49 13.66
2/27/2021 1:00:00 PM 2.41 36.338 0.076 6.59 1.47 13.63
2/27/2021 1:15:00 PM 2.47 36.446 0.076 6.59 1.66 13.6
2/27/2021 1:30:00 PM 2.47 36.446 0.076 6.55 1.78 13.58
2/27/2021 1:45:00 PM 2.52 36.536 0.076 6.59 1.68 13.56
2/27/2021 2:00:00 PM 2.53 36.554 0.076 6.56 1.99 13.56
2/27/2021 2:15:00 PM 2.56 36.608 0.076 6.6 1.77 13.54
2/27/2021 2:30:00 PM 2.59 36.662 0.076 6.59 1.69 13.53
2/27/2021 2:45:00 PM 2.63 36.734 0.076 6.56 1.8 13.52
2/27/2021 3:00:00 PM 2.68 36.824 0.076 6.6 2.01 13.52
2/27/2021 3:15:00 PM 2.59 36.662 0.075 6.59 2.48 13.48
2/27/2021 3:30:00 PM 2.64 36.752 0.075 6.56 2.15 13.49
2/27/2021 3:45:00 PM 2.67 36.806 0.075 6.59 2.35 13.5
2/27/2021 4:00:00 PM 2.7 36.86 0.075 6.56 2.85 13.5
2/27/2021 4:15:00 PM 2.69 36.842 0.075 6.59 2.57 13.5
2/27/2021 4:30:00 PM 2.65 36.77 0.075 6.59 2.53 13.48
2/27/2021 4:45:00 PM 2.61 36.698 0.075 6.59 2.8 13.48
2/27/2021 5:00:00 PM 2.55 36.59 0.075 6.59 2.84 13.49
2/27/2021 5:15:00 PM 2.47 36.446 0.075 6.58 3.09 13.5
2/27/2021 5:30:00 PM 2.41 36.338 0.075 6.58 2.98 13.51
2/27/2021 5:45:00 PM 2.37 36.266 0.075 6.52 2.91 13.55
2/27/2021 6:00:00 PM 2.34 36.212 0.075 6.57 2.97 13.56
2/27/2021 6:15:00 PM 2.27 36.086 0.075 6.56 2.84 13.58
2/27/2021 6:30:00 PM 2.22 35.996 0.075 6.56 3.29 13.59
2/27/2021 6:45:00 PM 2.17 35.906 0.075 6.55 3.11 13.61
2/27/2021 7:00:00 PM 2.11 35.798 0.075 6.55 2.92 13.62
2/27/2021 7:15:00 PM 2.06 35.708 0.075 6.53 3.02 13.64
2/27/2021 7:30:00 PM 2.01 35.618 0.075 6.55 3.32 13.65
2/27/2021 7:45:00 PM 1.96 35.528 0.075 6.51 3.13 13.68
2/27/2021 8:00:00 PM 1.93 35.474 0.075 6.54 2.84 13.7
2/27/2021 8:15:00 PM 1.88 35.384 0.075 6.51 3.26 13.72
2/27/2021 8:30:00 PM 1.86 35.348 0.075 6.53 3.19 13.74
2/27/2021 8:45:00 PM 1.82 35.276 0.075 6.53 4.08 13.74
2/27/2021 9:00:00 PM 1.75 35.15 0.075 6.53 4.82 13.75
2/27/2021 9:15:00 PM 1.74 35.132 0.075 6.52 3.11 13.76
2/27/2021 9:30:00 PM 1.73 35.114 0.075 6.48 2.93 13.8
2/27/2021 9:45:00 PM 1.73 35.114 0.075 6.52 2.89 13.8
2/27/2021 10:00:00 PM 1.72 35.096 0.075 6.52 2.65 13.81
2/27/2021 10:15:00 PM 1.71 35.078 0.075 6.51 2.71 13.82
2/27/2021 10:30:00 PM 1.7 35.06 0.075 6.51 2.52 13.83
2/27/2021 10:45:00 PM 1.69 35.042 0.076 6.51 2.56 13.84
2/27/2021 11:00:00 PM 1.69 35.042 0.076 6.51 2.28 13.85
2/27/2021 11:15:00 PM 1.69 35.042 0.076 6.51 2.37 13.84
2/27/2021 11:30:00 PM 1.69 35.042 0.076 6.51 2.45 13.84
2/27/2021 11:45:00 PM 1.68 35.024 0.076 6.49 2.45 13.85
2/28/2021 12:00:00 AM 1.69 35.042 0.076 6.51 2.41 13.85
2/28/2021 12:15:00 AM 1.68 35.024 0.076 6.51 2.25 13.84
2/28/2021 12:30:00 AM 1.68 35.024 0.076 6.46 2.18 13.85
2/28/2021 12:45:00 AM 1.69 35.042 0.076 6.49 2.13 13.85
2/28/2021 1:00:00 AM 1.69 35.042 0.076 6.51 2.09 13.85
2/28/2021 1:15:00 AM 1.69 35.042 0.076 6.5 2.56 13.84
2/28/2021 1:30:00 AM 1.7 35.06 0.076 6.51 1.89 13.85
2/28/2021 1:45:00 AM 1.7 35.06 0.076 6.51 2.14 13.84
2/28/2021 2:00:00 AM 1.71 35.078 0.076 6.51 1.97 13.84
2/28/2021 2:15:00 AM 1.72 35.096 0.075 6.51 1.91 13.84
2/28/2021 2:30:00 AM 1.73 35.114 0.075 6.5 1.96 13.83
2/28/2021 2:45:00 AM 1.74 35.132 0.075 6.5 1.91 13.83
2/28/2021 3:00:00 AM 1.75 35.15 0.075 6.5 1.89 13.83
2/28/2021 3:15:00 AM 1.76 35.168 0.075 6.51 1.9 13.82
2/28/2021 3:30:00 AM 1.76 35.168 0.075 6.51 1.84 13.81
2/28/2021 3:45:00 AM 1.77 35.186 0.075 6.5 1.82 13.8
2/28/2021 4:00:00 AM 1.77 35.186 0.075 6.51 1.84 13.79
2/28/2021 4:15:00 AM 1.77 35.186 0.075 6.46 1.88 13.8
2/28/2021 4:30:00 AM 1.79 35.222 0.075 6.51 1.73 13.79
2/28/2021 4:45:00 AM 1.79 35.222 0.075 6.47 1.89 13.8
2/28/2021 5:00:00 AM 1.81 35.258 0.075 6.51 1.86 13.79
2/28/2021 5:15:00 AM 1.81 35.258 0.075 6.5 1.76 13.79
2/28/2021 5:30:00 AM 1.81 35.258 0.075 6.47 1.7 13.8
2/28/2021 5:45:00 AM 1.82 35.276 0.075 6.51 1.78 13.8
2/28/2021 6:00:00 AM 1.82 35.276 0.075 6.51 1.74 13.79
2/28/2021 6:15:00 AM 1.81 35.258 0.075 6.47 1.68 13.79
2/28/2021 6:30:00 AM 1.82 35.276 0.074 6.5 1.76 13.79
2/28/2021 6:45:00 AM 1.82 35.276 0.074 6.49 1.83 13.78
2/28/2021 7:00:00 AM 1.84 35.312 0.074 6.5 1.71 13.78
2/28/2021 7:15:00 AM 1.84 35.312 0.074 6.51 1.73 13.77
2/28/2021 7:30:00 AM 1.85 35.33 0.074 6.51 1.71 13.78
2/28/2021 7:45:00 AM 1.87 35.366 0.074 6.51 1.72 13.78
2/28/2021 8:00:00 AM 1.88 35.384 0.074 6.52 1.72 13.78
2/28/2021 8:15:00 AM 1.89 35.402 0.074 6.51 1.76 13.78
2/28/2021 8:30:00 AM 1.91 35.438 0.074 6.52 1.71 13.77
2/28/2021 8:45:00 AM 1.92 35.456 0.074 6.52 1.69 13.77
2/28/2021 9:00:00 AM 1.94 35.492 0.074 6.53 1.61 13.76
2/28/2021 9:15:00 AM 1.94 35.492 0.074 6.46 1.67 13.77
2/28/2021 9:30:00 AM 1.96 35.528 0.074 6.53 1.55 13.76
2/28/2021 9:45:00 AM 1.98 35.564 0.073 6.52 1.7 13.76
2/28/2021 10:00:00 AM 2.02 35.636 0.073 6.53 1.68 13.76
2/28/2021 10:15:00 AM 2.05 35.69 0.073 6.49 1.66 13.76
2/28/2021 10:30:00 AM 2.09 35.762 0.073 6.54 1.7 13.74
2/28/2021 10:45:00 AM 2.12 35.816 0.073 6.54 1.73 13.74
2/28/2021 11:00:00 AM 2.15 35.87 0.072 6.55 1.85 13.74
2/28/2021 11:15:00 AM 2.16 35.888 0.072